[[{"header":{"parameterUnit":"m.s-1","parameterCategory":1,"la1":30.6,"la2":28.766,"lo1":-90.7593,"lo2":-88.6598,"dx":0.0162,"dy":0.0183,"nx":116,"ny":114,"refTime":"2022-11-12T06:00:00:Z","depth":0,"parameterNumber":2,"parameterNumberName":"U-component_of_WINDS"},"data":[0.0,0.0,0.0,0.0,0.0,0.0,0.0,0.0,0.0,0.0,0.0,0.0,0.0,0.0,0.0,0.0,0.0,0.0,0.0,0.0,0.0,0.0,0.0,0.0,0.0,0.0,0.0,0.0,0.0,0.0,0.0,0.0,0.0,0.0,0.0,0.0,0.0,0.0,0.0,0.0,0.0,0.0,0.0,0.0,0.0,0.0,0.0,0.0,0.0,0.0,0.0,0.0,0.0,0.0,0.0,0.0,0.0,0.0,0.0,0.0,0.0,0.0,0.0,0.0,0.0,0.0,0.0,0.0,0.0,0.0,0.0,0.0,0.0,0.0,0.0,0.0,0.0,0.0,0.0,0.0,0.0,0.0,0.0,0.0,0.0,0.0,0.0,0.0,0.0,0.0,0.0,0.0,0.0,0.0,0.0,0.0,0.0,0.0,0.0,0.0,0.0,0.0,0.0,0.0,0.0,0.0,0.0,0.0,0.0,0.0,0.0,0.0,0.0,0.0,0.0,0.0,0.0,0.0,0.0,0.0,0.0,0.0,0.0,0.0,0.0,0.0,0.0,0.0,0.0,0.0,0.0,0.0,0.0,0.0,0.0,0.0,0.0,0.0,0.0,0.0,0.0,0.0,0.0,0.0,0.0,0.0,0.0,0.0,0.0,0.0,0.0,0.0,0.0,0.0,0.0,0.0,0.0,0.0,0.0,0.0,0.0,0.0,0.0,0.0,0.0,0.0,0.0,0.0,0.0,0.0,0.0,0.0,0.0,0.0,0.0,0.0,0.0,0.0,0.0,0.0,0.0,0.0,0.0,0.0,0.0,0.0,0.0,0.0,0.0,0.0,0.0,0.0,0.0,0.0,0.0,0.0,0.0,0.0,0.0,0.0,0.0,0.0,0.0,0.0,0.0,0.0,0.0,0.0,0.0,0.0,0.0,0.0,0.0,0.0,0.0,0.0,0.0,0.0,0.0,0.0,0.0,0.0,0.0,0.0,0.0,0.0,0.0,0.0,0.0,0.0,0.0,0.0,0.0,0.0,0.0,0.0,0.0,0.0,0.0,0.0,0.0,0.0,0.0,0.0,0.0,0.0,0.0,0.0,0.0,0.0,0.0,0.0,0.0,0.0,0.0,0.0,0.0,0.0,0.0,0.0,0.0,0.0,0.0,0.0,0.0,0.0,0.0,0.0,0.0,0.0,0.0,0.0,0.0,0.0,0.0,0.0,0.0,0.0,0.0,0.0,0.0,0.0,0.0,0.0,0.0,0.0,0.0,0.0,0.0,0.0,0.0,0.0,0.0,0.0,0.0,0.0,0.0,0.0,0.0,0.0,0.0,0.0,0.0,0.0,0.0,0.0,0.0,0.0,0.0,0.0,0.0,0.0,0.0,0.0,0.0,0.0,0.0,0.0,0.0,0.0,0.0,0.0,0.0,0.0,0.0,0.0,0.0,0.0,0.0,0.0,0.0,0.0,0.0,0.0,0.0,0.0,0.0,0.0,0.0,0.0,0.0,0.0,0.0,0.0,0.0,0.0,0.0,0.0,0.0,0.0,0.0,0.0,0.0,0.0,0.0,0.0,0.0,0.0,0.0,0.0,0.0,0.0,0.0,0.0,0.0,0.0,0.0,0.0,0.0,0.0,0.0,0.0,0.0,0.0,0.0,0.0,0.0,0.0,0.0,0.0,0.0,0.0,0.0,0.0,0.0,0.0,0.0,0.0,0.0,0.0,0.0,0.0,0.0,0.0,0.0,0.0,0.0,0.0,0.0,0.0,0.0,0.0,0.0,0.0,0.0,0.0,0.0,0.0,0.0,0.0,0.0,0.0,0.0,0.0,0.0,0.0,0.0,0.0,0.0,0.0,0.0,0.0,0.0,0.0,0.0,0.0,0.0,0.0,0.0,0.0,0.0,0.0,0.0,0.0,0.0,0.0,0.0,0.0,0.0,0.0,0.0,0.0,0.0,0.0,0.0,0.0,0.0,0.0,0.0,0.0,0.0,0.0,0.0,0.0,0.0,0.0,0.0,0.0,0.0,0.0,0.0,0.0,0.0,0.0,0.0,0.0,0.0,0.0,0.0,0.0,0.0,0.0,0.0,0.0,0.0,0.0,0.0,0.0,0.0,0.0,0.0,0.0,0.0,0.0,0.0,0.0,0.0,0.0,0.0,0.0,0.0,0.0,0.0,0.0,0.0,0.0,0.0,0.0,0.0,0.0,0.0,0.0,0.0,0.0,0.0,0.0,0.0,0.0,0.0,0.0,0.0,0.0,0.0,0.0,0.0,0.0,0.0,0.0,0.0,0.0,0.0,0.0,0.0,0.0,0.0,0.0,0.0,0.0,0.0,0.0,0.0,0.0,0.0,0.0,0.0,0.0,0.0,0.0,0.0,0.0,0.0,0.0,0.0,0.0,0.0,0.0,0.0,0.0,0.0,0.0,0.0,0.0,0.0,0.0,0.0,0.0,0.0,0.0,0.0,0.0,0.0,0.0,0.0,0.0,0.0,0.0,0.0,0.0,0.0,0.0,0.0,0.0,0.0,0.0,0.0,0.0,0.0,0.0,0.0,0.0,0.0,0.0,0.0,0.0,0.0,0.0,0.0,0.0,0.0,0.0,0.0,0.0,0.0,0.0,0.0,0.0,0.0,0.0,0.0,0.0,0.0,0.0,0.0,0.0,0.0,0.0,0.0,0.0,0.0,0.0,0.0,0.0,0.0,0.0,0.0,0.0,0.0,0.0,0.0,0.0,0.0,0.0,0.0,0.0,0.0,0.0,0.0,0.0,0.0,0.0,0.0,0.0,0.0,0.0,0.0,0.0,0.0,0.0,0.0,0.0,0.0,0.0,0.0,0.0,0.0,0.0,0.0,0.0,0.0,0.0,0.0,0.0,0.0,0.0,0.0,0.0,0.0,0.0,0.0,0.0,0.0,0.0,0.0,0.0,0.0,0.0,0.0,0.0,0.0,0.0,0.0,0.0,0.0,0.0,0.0,0.0,0.0,0.0,0.0,0.0,0.0,0.0,0.0,0.0,0.0,0.0,0.0,0.0,0.0,0.0,0.0,0.0,0.0,0.0,0.0,0.0,0.0,0.0,0.0,0.0,0.0,0.0,0.0,0.0,0.0,0.0,0.0,0.0,0.0,0.0,0.0,0.0,0.0,0.0,0.0,0.0,0.0,0.0,0.0,0.0,0.0,0.0,0.0,0.0,0.0,0.0,0.0,0.0,0.0,0.0,0.0,0.0,0.0,0.0,0.0,0.0,0.0,0.0,0.0,0.0,0.0,0.0,0.0,0.0,0.0,0.0,0.0,0.0,0.0,0.0,0.0,0.0,0.0,0.0,0.0,0.0,0.0,0.0,0.0,0.0,0.0,0.0,0.0,0.0,0.0,0.0,0.0,0.0,0.0,0.0,0.0,0.0,0.0,0.0,0.0,0.0,0.0,0.0,0.0,0.0,0.0,0.0,0.0,0.0,0.0,0.0,0.0,0.0,0.0,0.0,0.0,0.0,0.0,0.0,0.0,0.0,0.0,0.0,0.0,0.0,0.0,0.0,0.0,0.0,0.0,0.0,0.0,0.0,0.0,0.0,0.0,0.0,0.0,0.0,0.0,0.0,0.0,0.0,0.0,0.0,0.0,0.0,0.0,0.0,0.0,0.0,0.0,0.0,0.0,0.0,0.0,0.0,0.0,0.0,0.0,0.0,0.0,0.0,0.0,0.0,0.0,0.0,0.0,0.0,0.0,0.0,0.0,0.0,0.0,0.0,0.0,0.0,0.0,0.0,0.0,0.0,0.0,0.0,0.0,0.0,0.0,0.0,0.0,0.0,0.0,0.0,0.0,0.0,0.0,0.0,0.0,0.0,0.0,0.0,0.0,0.0,0.0,0.0,0.0,0.0,0.0,0.0,0.0,0.0,0.0,0.0,0.0,0.0,0.0,0.0,0.0,0.0,0.0,0.0,0.0,0.0,0.0,0.0,0.0,0.0,0.0,0.0,0.0,0.0,0.0,0.0,0.0,0.0,0.0,0.0,0.0,0.0,0.0,0.0,0.0,0.0,0.0,0.0,0.0,0.0,0.0,0.0,0.0,0.0,0.0,0.0,0.0,0.0,0.0,0.0,0.0,0.0,0.0,0.0,0.0,0.0,0.0,0.0,0.0,0.0,0.0,0.0,0.0,0.0,0.0,0.0,0.0,0.0,0.0,0.0,0.0,0.0,0.0,0.0,0.0,0.0,0.0,0.0,0.0,0.0,0.0,0.0,0.0,0.0,0.0,0.0,0.0,0.0,0.0,0.0,0.0,0.0,0.0,0.0,0.0,0.0,0.0,0.0,0.0,0.0,0.0,0.0,0.0,0.0,0.0,0.0,0.0,0.0,0.0,0.0,0.0,0.0,0.0,0.0,0.0,0.0,0.0,0.0,0.0,0.0,0.0,0.0,0.0,0.0,0.0,0.0,0.0,0.0,0.0,0.0,0.0,0.0,0.0,0.0,0.0,0.0,0.0,0.0,0.0,0.0,0.0,0.0,0.0,0.0,0.0,0.0,0.0,0.0,0.0,0.0,0.0,0.0,0.0,0.0,0.0,0.0,0.0,0.0,0.0,0.0,0.0,0.0,0.0,0.0,0.0,0.0,0.0,0.0,0.0,0.0,0.0,0.0,0.0,0.0,0.0,0.0,0.0,0.0,0.0,0.0,0.0,0.0,0.0,0.0,0.0,0.0,0.0,0.0,0.0,0.0,0.0,0.0,0.0,0.0,0.0,0.0,0.0,0.0,0.0,0.0,0.0,0.0,0.0,0.0,0.0,0.0,0.0,0.0,0.0,0.0,0.0,0.0,0.0,0.0,0.0,0.0,0.0,0.0,0.0,0.0,0.0,0.0,0.0,0.0,0.0,0.0,0.0,0.0,0.0,0.0,0.0,0.0,0.0,0.0,0.0,0.0,0.0,0.0,0.0,0.0,0.0,0.0,0.0,0.0,0.0,0.0,0.0,0.0,0.0,0.0,0.0,0.0,0.0,0.0,0.0,0.0,0.0,0.0,0.0,0.0,0.0,0.0,0.0,0.0,0.0,0.0,0.0,0.0,0.0,0.0,0.0,0.0,0.0,0.0,0.0,0.0,0.0,0.0,0.0,0.0,0.0,0.0,0.0,0.0,0.0,0.0,0.0,0.0,0.0,0.0,0.0,0.0,0.0,0.0,0.0,0.0,0.0,0.0,0.0,0.0,0.0,0.0,0.0,0.0,0.0,0.0,0.0,0.0,0.0,0.0,0.0,0.0,0.0,0.0,0.0,0.0,0.0,0.0,0.0,0.0,0.0,0.0,0.0,0.0,0.0,0.0,0.0,0.0,0.0,0.0,0.0,0.0,0.0,0.0,0.0,0.0,0.0,0.0,0.0,0.0,0.0,0.0,0.0,0.0,0.0,0.0,0.0,0.0,0.0,0.0,0.0,0.0,0.0,0.0,0.0,0.0,0.0,0.0,0.0,0.0,0.0,0.0,0.0,0.0,0.0,0.0,0.0,0.0,0.0,0.0,0.0,0.0,0.0,0.0,0.0,0.0,0.0,0.0,0.0,0.0,0.0,0.0,0.0,0.0,0.0,0.0,0.0,0.0,0.0,0.0,0.0,0.0,0.0,0.0,0.0,0.0,0.0,0.0,0.0,0.0,0.0,0.0,0.0,0.0,0.0,0.0,0.0,0.0,0.0,0.0,0.0,0.0,0.0,0.0,0.0,0.0,0.0,0.0,0.0,0.0,0.0,0.0,0.0,0.0,0.0,0.0,0.0,0.0,0.0,0.0,0.0,0.0,0.0,0.0,0.0,0.0,0.0,0.0,0.0,0.0,0.0,0.0,0.0,0.0,0.0,0.0,0.0,0.0,0.0,0.0,0.0,0.0,0.0,0.0,0.0,0.0,0.0,0.0,0.0,0.0,0.0,0.0,0.0,0.0,0.0,0.0,0.0,0.0,0.0,0.0,0.0,0.0,0.0,0.0,0.0,0.0,0.0,0.0,0.0,0.0,0.0,0.0,0.0,0.0,0.0,0.0,0.0,0.0,0.0,0.0,0.0,0.0,0.0,0.0,0.0,0.0,0.0,0.0,0.0,0.0,-4.4931,-3.8919,0.0,0.0,0.0,0.0,0.0,0.0,0.0,0.0,0.0,0.0,0.0,0.0,0.0,0.0,0.0,0.0,0.0,0.0,0.0,0.0,0.0,0.0,0.0,0.3964,0.4322,0.4338,0.4989,0.0,0.0,0.0,0.0,0.0,0.0,0.0,0.0,0.0,0.1463,0.1332,-0.3825,-0.9798,-1.6204,-1.155,-0.6689,-0.1754,0.0,0.0,0.0,0.0,0.0,0.0,0.0,0.0,0.0,0.0,0.0,0.0,0.0,0.0,0.0,0.0,0.0,0.0,0.0,0.0,0.0,0.0,0.0,0.0,0.0,0.0,0.0,0.0,0.0,0.0,0.0,0.0,0.0,0.0,0.0,0.0,0.0,0.0,0.0,0.0,0.0,0.0,0.0,0.0,0.0,0.0,0.0,0.0,0.0,0.0,0.0,0.0,0.0,0.0,0.0,0.0,0.0,0.0,0.0,0.0,0.0,0.0,0.0,0.0,0.0,0.0,0.0,0.0,0.0,0.0,-5.0001,-4.6296,0.0,0.0,0.0,0.0,0.0,0.0,0.0,0.0,0.0,0.0,0.0,0.0,0.0,0.0,0.0,0.0,0.0,0.0,0.0,0.0,0.0,0.2237,0.1598,0.2476,0.3343,0.3924,0.4389,0.4779,0.5333,0.6111,0.0,0.0,0.0,0.0,0.2354,0.1567,0.0186,-0.176,-1.2683,-2.2929,-3.2177,-2.4975,-1.6975,-0.8526,-0.635,0.0,0.0,0.0,0.0,0.0,0.0,0.0,0.0,0.0,0.0,0.0,0.0,0.0,0.0,0.0,0.0,0.0,0.0,0.0,0.0,0.0,0.0,0.0,0.0,0.0,0.0,0.0,0.0,0.0,0.0,0.0,0.0,0.0,0.0,0.0,0.0,0.0,0.0,0.0,0.0,0.0,0.0,0.0,0.0,0.0,0.0,0.0,0.0,0.0,0.0,0.0,0.0,0.0,0.0,0.0,0.0,0.0,0.0,0.0,0.0,0.0,0.0,0.0,-5.3536,-5.4097,-5.3695,-5.4553,-5.6776,-5.9533,-5.5111,-5.4476,-5.6162,-4.9709,0.0,0.0,0.0,0.0,0.0,0.0,0.0,0.0,0.0,0.0,0.0,0.0,0.0,0.0,0.0,0.0,0.0,0.0,0.0,0.0,-0.6755,-0.0077,0.4783,0.4279,0.561,0.6337,0.5748,0.5839,0.0,0.0,0.0,0.264,0.1608,0.1328,-0.3219,-1.2263,-2.4915,-3.2401,-3.4873,-3.3572,-3.229,-3.0721,-2.1024,-2.0419,-2.576,0.0,0.0,0.0,0.0,0.0,0.0,0.0,0.0,0.0,0.0,0.0,0.0,0.0,0.0,0.0,0.0,0.0,0.0,0.0,0.0,0.0,0.0,0.0,0.0,0.0,0.0,0.0,0.0,0.0,0.0,0.0,0.0,0.0,0.0,0.0,0.0,0.0,0.0,0.0,0.0,0.0,-4.5797,-4.9548,0.0,0.0,0.0,0.0,0.0,0.0,0.0,0.0,0.0,0.0,0.0,0.0,0.0,-5.3224,-5.5317,-5.7894,-5.9482,-6.0098,-6.2705,-6.4212,-6.4645,-6.4922,-6.5711,-6.6843,-6.5116,0.0,-5.7459,-5.6957,0.0,0.0,0.0,0.0,0.0,0.0,0.0,0.0,0.0,0.0,0.0,0.0,0.0,0.0,0.0,0.0,0.0,0.0,0.0,0.0,0.0,-0.1068,0.4553,0.5191,0.6404,0.6713,0.5711,0.6101,0.0,0.0,-0.1352,-0.4391,-0.5854,-1.1669,-2.0654,-3.287,-3.3658,-4.0112,-5.1585,-4.6739,-4.72,-5.1591,-4.1795,-3.5203,-3.0977,-2.3862,0.0,0.0,0.0,0.0,0.0,0.0,0.0,0.0,0.0,0.0,0.0,0.0,0.0,0.0,0.0,0.0,0.0,0.0,0.0,0.0,0.0,0.0,0.0,0.0,0.0,0.0,0.0,0.0,0.0,0.0,0.0,0.0,0.0,0.0,0.0,0.0,0.0,0.0,0.0,-4.8459,-5.0373,-5.354,-5.1794,-4.9125,0.0,0.0,0.0,0.0,0.0,0.0,0.0,0.0,0.0,-5.7365,-5.7556,-5.9097,-6.2268,-6.3542,-6.4689,-6.5528,-6.7145,-6.7855,-6.7884,-6.7971,-6.8011,-6.8071,-6.8199,-6.6505,-6.3701,-6.1386,-5.8395,-5.52,0.0,0.0,0.0,0.0,-5.7494,-5.9663,0.0,0.0,0.0,0.0,0.0,0.0,0.0,0.0,0.0,0.0,0.0,0.0,-1.4134,-0.3353,0.4045,0.2762,0.6008,0.6349,0.2224,0.2761,0.0907,-0.4298,-0.9984,-1.3678,-1.5013,-2.5787,-3.6772,-4.778,-4.3899,-4.9847,-6.4691,-5.83,-5.8892,-6.4967,-5.8473,-4.9732,-3.9616,-3.613,-3.4202,-3.307,0.0,0.0,0.0,0.0,0.0,0.0,0.0,0.0,0.0,0.0,0.0,0.0,0.0,0.0,0.0,0.0,0.0,0.0,0.0,0.0,0.0,0.0,0.0,0.0,0.0,0.0,0.0,0.0,0.0,0.0,0.0,0.0,0.0,0.0,0.0,0.0,0.0,-5.3082,-5.4828,-5.6519,-5.5686,-5.3649,0.0,0.0,0.0,0.0,0.0,0.0,-5.6777,-5.7312,-5.9315,-6.3164,-6.3132,-6.4513,-6.7715,-6.791,-6.8323,-6.8973,-6.9349,-6.9518,-6.9458,-6.8889,-6.8913,-6.9423,-6.9696,-7.0058,-6.9916,-6.5931,-6.3735,-6.264,-6.0772,-6.0115,-6.0379,-6.2278,-6.4271,-6.701,0.0,0.0,0.0,0.0,0.0,0.0,0.0,0.0,0.0,0.0,0.0,-1.4056,-3.1055,-0.8495,0.3974,-0.5725,0.3534,0.4862,-0.7041,-0.717,-1.215,-2.4232,-2.4241,-2.4076,-2.4152,-3.649,-4.4884,-4.8827,-5.8134,-6.3795,-6.5936,-6.5303,-6.5365,-6.592,-6.5505,-6.374,-6.0105,-4.3899,-4.1176,-4.6776,-3.5502,0.0,0.0,0.0,0.0,0.0,0.0,0.0,0.0,0.0,0.0,0.0,0.0,0.0,0.0,0.0,0.0,0.0,0.0,0.0,0.0,0.0,0.0,0.0,0.0,0.0,0.0,0.0,0.0,0.0,0.0,0.0,0.0,0.0,0.0,0.0,0.0,0.0,0.0,-6.1263,-6.1806,0.0,0.0,0.0,0.0,-5.6245,-5.733,-5.8856,-6.0499,-6.2464,-6.4574,-6.6906,-6.8234,-6.8978,-6.9173,-6.9885,-7.0274,-7.0235,-6.9785,-7.0204,-7.1374,-6.8941,-6.9871,-7.3259,-7.1473,-7.2207,-7.453,-7.2083,-6.9023,-6.612,-6.8311,-6.7001,-6.4506,-6.9645,-7.1897,-7.2886,0.0,0.0,0.0,-1.5421,-2.2268,-2.4725,-2.2538,-2.5939,-2.8417,-2.7513,-1.6043,-1.2505,-2.4402,-0.5209,0.4611,-0.5334,0.432,0.8852,0.3543,-0.2507,-0.9148,-1.6351,-2.7394,-3.7612,-4.6744,-5.2358,-5.642,-5.8941,-6.2777,-6.4908,-6.5417,-6.5379,-6.5548,-6.5856,-6.6013,-6.5311,-6.3573,-5.7491,-5.5586,-5.6283,-5.1517,-4.5286,0.0,0.0,0.0,0.0,0.0,0.0,0.0,0.0,0.0,0.0,0.0,0.0,0.0,0.0,0.0,0.0,0.0,0.0,0.0,0.0,0.0,0.0,0.0,0.0,0.0,0.0,0.0,0.0,0.0,0.0,0.0,0.0,0.0,0.0,0.0,0.0,0.0,-6.2422,-6.3912,0.0,-6.0946,-6.2021,-6.2948,-6.2707,-6.464,-6.6643,-6.8417,-6.785,-6.8271,-6.9911,-6.9086,-6.927,-7.063,-7.05,-7.0857,-7.1763,-7.1519,-7.1681,-7.2284,-7.0884,-7.1502,-7.3676,-7.3274,-7.416,-7.5967,-7.6425,-7.4984,-7.2582,-7.3821,-7.3878,-7.3612,-7.6341,-7.8097,-7.9501,0.0,0.0,0.0,-2.4527,-2.9236,-3.0312,-3.0592,-3.2243,-3.341,-3.3364,-2.3983,-2.1183,-3.1409,-1.4602,-0.6611,-1.6513,-0.7101,-0.2445,-0.6901,-1.3311,-1.9597,-2.5416,-3.7122,-4.8646,-5.9537,-6.08,-6.2363,-6.4521,-6.4668,-6.481,-6.4917,-6.4942,-6.5099,-6.5388,-6.5493,-6.5268,-6.4821,-6.4821,-6.3877,-6.2221,-6.1137,-5.6232,-4.9238,0.0,0.0,0.0,0.0,0.0,0.0,0.0,0.0,0.0,0.0,0.0,0.0,0.0,0.0,0.0,0.0,0.0,0.0,0.0,0.0,0.0,0.0,0.0,0.0,0.0,0.0,0.0,0.0,0.0,0.0,0.0,0.0,0.0,0.0,-6.095,-6.3618,-6.3105,-6.5746,-6.6493,-6.352,-6.5935,-6.7688,-6.7808,-6.9496,-7.1105,-7.2444,-7.1228,-7.1013,-7.2183,-7.1325,-7.1349,-7.2509,-7.2346,-7.2704,-7.3616,-7.3877,-7.4333,-7.4876,-7.396,-7.4457,-7.6071,-7.5723,-7.6446,-7.8219,-7.9617,-7.9505,-7.8431,-7.8554,-7.9293,-8.0458,-8.1563,-8.307,-8.4755,0.0,0.0,-1.0565,-2.6502,-3.0021,-3.0901,-3.1761,-3.3478,-3.5514,-3.7817,-3.6742,-4.0615,-5.3379,-3.6526,-2.8651,-3.9488,-3.022,-2.8408,-3.9182,-4.0203,-4.4395,-5.3357,-5.4231,-5.651,-6.0871,-6.0951,-6.2097,-6.4445,-6.4445,-6.4445,-6.4445,-6.4445,-6.4445,-6.4483,-6.4483,-6.4741,-6.5085,-6.5085,-6.4929,-6.4563,-6.3088,-6.2413,-6.1717,0.0,0.0,0.0,0.0,0.0,0.0,0.0,0.0,0.0,0.0,0.0,0.0,0.0,0.0,0.0,0.0,0.0,0.0,0.0,0.0,0.0,0.0,0.0,0.0,0.0,0.0,0.0,0.0,0.0,0.0,0.0,0.0,0.0,-6.0066,-6.2839,-6.484,-6.396,-6.7827,-6.9842,-6.7936,-7.0165,-7.1623,-7.1302,-7.1533,-7.1926,-7.2347,-7.258,-7.3037,-7.3893,-7.5203,-7.5538,-7.4785,-7.5543,-7.601,-7.601,-7.6736,-7.7854,-7.9254,-7.7755,-7.8497,-8.0811,-7.8574,-7.9095,-8.1672,-8.1767,-8.2381,-8.3254,-8.2549,-8.3014,-8.4316,-8.5221,-8.6787,-8.8421,0.2574,-0.4963,-1.41,-3.2081,-3.7763,-3.9845,-4.0032,-4.1676,-4.1188,-3.6302,-3.5098,-3.7349,-4.4272,-2.4267,-1.8731,-3.9518,-2.265,-1.5717,-2.7115,-3.4023,-4.2888,-5.4626,-5.8688,-6.1229,-6.2466,-6.2595,-6.2811,-6.3187,-6.2946,-6.2872,-6.2965,-6.3312,-6.3654,-6.3906,-6.437,-6.4595,-6.4669,-6.4739,-6.4658,-6.4595,-6.4847,-6.4307,-6.3085,0.0,0.0,0.0,0.0,0.0,0.0,0.0,0.0,0.0,0.0,0.0,0.0,0.0,0.0,0.0,0.0,0.0,0.0,0.0,0.0,0.0,0.0,0.0,0.0,0.0,0.0,0.0,0.0,0.0,0.0,0.0,-6.6761,-6.8742,-6.6938,-6.8911,-7.0469,-7.0478,-7.2049,-7.2584,-7.1445,-7.2335,-7.3396,-7.4381,-7.4773,-7.5544,-7.6755,-7.5499,-7.5356,-7.6709,-7.5691,-7.5572,-7.644,-7.7207,-7.7677,-7.771,-7.8411,-7.9251,-8.0163,-7.9229,-7.9908,-8.1619,-8.1221,-8.1933,-8.3417,-8.4773,-8.5894,-8.6505,-8.5711,-8.5735,-8.6416,-8.879,-9.0343,-9.1204,0.0771,-0.5962,-1.4386,-3.2645,-3.9558,-4.2665,-4.3038,-4.4802,-4.4982,-4.1994,-4.1784,-4.3517,-4.7673,-3.579,-3.3278,-4.7642,-3.6467,-3.1127,-3.7116,-4.2231,-4.9022,-5.8064,-6.0467,-6.2061,-6.3028,-6.3158,-6.3232,-6.3325,-6.2781,-6.2563,-6.2668,-6.2595,-6.2793,-6.3132,-6.3349,-6.3729,-6.4174,-6.4176,-6.452,-6.5194,-6.5444,-6.5025,-6.4085,-6.2723,-6.1569,-6.0429,-5.8604,-5.7758,-5.7427,-5.7057,0.0,0.0,0.0,0.0,0.0,0.0,0.0,0.0,0.0,0.0,0.0,0.0,0.0,0.0,0.0,0.0,0.0,0.0,0.0,0.0,0.0,0.0,0.0,0.0,-7.1319,-7.3464,-7.2779,-7.3081,-7.3305,-7.3281,-7.3724,-7.369,-7.2869,-7.3616,-7.45,-7.5423,-7.6101,-7.7248,-7.88,-7.7542,-7.7701,-7.9574,-7.8588,-7.853,-7.9293,-7.9905,-8.0208,-8.0208,-8.0951,-8.1731,-8.2479,-8.1999,-8.2682,-8.4214,-8.4033,-8.4812,-8.6319,-8.7457,-8.859,-8.9419,0.0,0.0,0.0,0.0,-9.401,-9.4696,0.2446,-0.4577,-1.3107,-2.9715,-3.7168,-4.1169,-4.2087,-4.4197,-4.6891,-5.0331,-5.1698,-5.367,-5.7173,-5.7096,-5.7351,-5.8802,-5.846,-5.798,-5.7573,-5.7276,-5.8525,-6.1841,-6.0587,-6.0774,-6.2927,-6.2903,-6.3243,-6.3928,-6.3185,-6.2825,-6.2825,-6.231,-6.2132,-6.2238,-6.2204,-6.2718,-6.3674,-6.3512,-6.4312,-6.5688,-6.5259,-6.5031,-6.4875,-6.4099,-6.3688,-6.3302,-6.1458,-6.039,-5.9781,-5.9056,0.0,0.0,0.0,0.0,0.0,0.0,0.0,0.0,0.0,0.0,0.0,0.0,0.0,0.0,0.0,0.0,0.0,0.0,0.0,0.0,0.0,0.0,0.0,0.0,-7.5236,-7.7354,-7.7461,-7.5969,-7.4587,-7.4037,-7.4185,-7.4047,-7.3333,-7.4726,-7.5581,-7.5581,-7.6707,-7.7965,-7.9347,-7.9188,0.0,0.0,0.0,-8.2662,-8.2687,-8.2918,-8.3126,-8.3126,-8.3875,-8.4557,-8.5328,-8.513,-8.59,-8.7351,-8.6592,-8.7529,-8.9726,-8.9965,-9.097,-9.2273,-9.1389,-9.1928,-9.3501,-9.5904,-9.7303,-9.8044,0.168,-0.6189,-1.4657,-2.633,-3.3431,-3.7785,-3.8564,-4.1857,-4.5181,-4.7939,-5.0134,-5.2804,-5.6351,-4.8526,-4.7367,-5.8109,-5.0371,-4.8613,-5.7417,-5.8925,-5.9542,-5.9864,-6.0974,-6.2037,-6.2891,-6.2346,-6.2199,-6.2505,-6.1841,-6.1535,-6.1603,-6.2506,-6.263,-6.2081,-6.3111,-6.3392,-6.2965,-6.2965,-6.3136,-6.3521,-6.4716,-6.554,-6.5988,-6.5214,-6.4967,-6.5051,-6.4677,-6.4591,-6.4754,-6.5319,-6.4687,-6.3595,-6.3516,-6.1909,0.0,0.0,0.0,0.0,0.0,0.0,0.0,0.0,0.0,0.0,0.0,0.0,0.0,0.0,0.0,0.0,0.0,0.0,0.0,-7.5463,-7.7597,-7.9133,-7.9616,-7.8815,-7.7694,-7.6263,-7.6321,-7.6408,-7.6298,-7.7341,-7.8008,-7.8008,-7.9429,-8.0463,-8.0748,-8.1555,-8.2475,-8.3536,-8.3396,-8.3706,-8.4318,-8.4633,-8.4751,-8.4751,-8.5508,0.0,-8.6087,-8.5987,-8.6483,-8.7421,-8.8623,-8.9804,-9.084,-9.2859,-9.479,-9.638,-9.4833,-9.5329,-9.6942,-9.7468,-9.8112,-9.8789,0.4086,-0.3626,-1.1888,-2.1596,-2.8697,-3.3786,-3.5919,-3.9585,-4.2762,-4.4516,-4.7261,-4.9923,-5.2134,-4.7772,-4.741,-5.4156,-4.9703,-4.9593,-5.6866,-5.7692,-5.8513,-5.9763,-6.0423,-6.1084,-6.1941,-6.1571,-6.1634,-6.2266,-6.1521,-6.1336,-6.1841,-6.2055,-6.2104,-6.1847,-6.2355,-6.2867,-6.3221,-6.3166,-6.3491,-6.4131,-6.4587,-6.526,-6.6024,-6.596,-6.5673,-6.5312,-6.5666,-6.589,-6.6242,-6.7131,-6.6975,-6.6504,-6.7394,-6.5939,-6.3403,0.0,0.0,0.0,0.0,0.0,0.0,0.0,0.0,0.0,0.0,0.0,0.0,0.0,0.0,-6.985,-7.2384,0.0,-7.6771,-7.9131,-8.0356,-8.099,-8.1129,-8.0676,-7.9707,-7.8075,-7.807,-7.815,-7.815,-7.9107,-7.9676,-7.9676,-8.0876,-8.1826,-8.2219,-8.3198,-8.4207,-8.5344,-8.5428,-8.5842,-8.6614,-8.6567,-8.6394,-8.6172,-8.6518,-8.6789,-8.7012,-8.7012,-8.8124,-9.016,-9.1025,-9.2482,-9.4326,-9.6108,-9.7467,-9.8346,-9.7856,-9.8249,-9.9088,-9.8854,-9.9588,-10.0786,0.6382,-0.0325,-0.7795,-1.6399,-2.3654,-2.9342,-3.2692,-3.6655,-3.9766,-4.0979,-4.3874,-4.627,-4.7466,-4.8542,-4.931,-4.9541,-5.0629,-5.2494,-5.516,-5.5461,-5.6655,-5.9218,-5.8834,-5.9025,-6.0091,-6.0232,-6.0738,-6.1661,-6.0873,-6.0974,-6.179,-6.1189,-6.1105,-6.1534,-6.1254,-6.1981,-6.3392,-6.3357,-6.4007,-6.5014,-6.4806,-6.5017,-6.5619,-6.6559,-6.6146,-6.5128,-6.5417,-6.5782,-6.629,-6.7248,-6.7735,-6.8319,-7.0028,-6.9059,-6.6995,-6.5517,-6.477,0.0,0.0,0.0,0.0,0.0,0.0,0.0,0.0,-6.8394,-6.9153,-7.1776,-7.2472,-7.3831,-7.7661,-7.8214,-7.9153,-8.2271,-8.2809,-8.2717,-8.2491,-8.236,-8.1687,-8.0302,-7.994,-7.9844,-7.9844,-8.0724,-8.1382,-8.1382,-8.2198,-8.3073,-8.3817,-8.4666,-8.5846,-8.7072,-8.7496,-8.7905,-8.8506,-8.7959,-8.7526,-8.7335,-8.7275,-8.7561,-8.8192,-8.8192,-8.9929,-9.2945,-9.3412,-9.5257,-9.7905,-9.8825,-9.9348,-9.9531,-10.0113,-10.0404,-10.048,-10.0118,-10.1096,-10.2774,0.5257,0.0945,-0.4259,-1.1508,-1.8769,-2.446,-2.7006,-3.1703,-3.5825,-3.8034,-4.0352,-4.2668,-4.4835,-4.5429,-4.592,-4.6513,-4.8484,-4.998,-5.0776,-5.3179,-5.4816,-5.5508,-5.5819,-5.6348,-5.692,-5.7348,-5.8092,-5.903,-5.8913,-5.9154,-5.9859,-5.9926,-6.0248,-6.1011,-6.1002,-6.1536,-6.238,-6.3057,-6.3403,-6.3681,-6.5442,-6.5794,-6.5419,-6.7016,-6.6528,-6.4945,-6.4397,-6.4936,-6.6053,-6.7355,-6.8397,-6.9333,-7.0699,-7.0505,-6.9623,-6.8795,-6.7009,-6.5155,-6.4675,-6.5355,-6.7113,-7.0788,-7.0486,-7.0911,0.0,-7.6635,-7.6002,-7.9719,-7.9851,-7.982,-8.1539,-8.1831,-8.2309,-8.3936,-8.4228,-8.4228,-8.4141,-8.4581,-8.4628,-8.3916,-8.2793,-8.2049,-8.2049,-8.302,-8.3624,-8.3624,-8.439,-8.5009,-8.5237,-8.6679,-8.7582,-8.7929,-8.8242,-8.8436,-8.8506,-8.762,-8.7491,-8.8219,-8.7796,-8.8517,-9.0053,-9.0053,-9.104,-9.3062,-9.5184,-9.7376,-9.9424,-9.9573,-10.0113,-10.0693,-10.0774,-10.1095,-10.1516,-10.1097,-10.2002,-10.3496,0.5375,0.1214,-0.332,-0.823,-1.4712,-2.0411,-2.3909,-2.8039,-3.1304,-3.2701,-3.4643,-3.6503,-3.7849,-3.8879,-3.9953,-4.105,-4.3131,-4.4983,-4.6538,-4.8576,-5.0743,-5.2981,-5.2542,-5.2739,-5.3851,-5.3772,-5.3965,-5.4451,-5.4925,-5.5566,-5.637,-5.7004,-5.7912,-5.9087,-5.9102,-6.0023,-6.1675,-6.2437,-6.2556,-6.2328,-6.3632,-6.4288,-6.4511,-6.4919,-6.5385,-6.5922,-6.5811,-6.6142,0.0,-6.7943,-6.8641,-6.9291,-7.0469,-7.0772,-7.056,-6.9881,-6.9796,-7.0317,-7.2252,-7.2283,-7.2546,-7.5765,-7.5977,-7.6104,-7.8942,-7.9037,-7.9207,-8.1658,-8.2194,-8.2721,-8.4173,-8.4442,-8.4862,-8.6197,-8.5994,-8.5835,-8.6085,-8.5763,-8.5625,-8.5839,-8.5675,-8.5217,-8.4592,-8.5086,-8.536,-8.5165,-8.6059,-8.6611,-8.6754,-8.8204,-8.9144,-8.9192,-8.9753,-8.9986,-8.9986,-8.9618,-8.9749,-9.0228,-9.0058,-9.0659,-9.1991,-9.1991,-9.3121,-9.5111,-9.6981,-9.8501,-9.9736,-10.0319,-10.0689,-10.1019,-10.1208,-10.1618,-10.1906,-10.1594,-10.263,-10.4308,0.4858,0.0522,-0.3517,-0.6414,-1.1582,-1.675,-2.0875,-2.4467,-2.7103,-2.7907,-2.9517,-3.0831,-3.1435,-3.2915,-3.4237,-3.5108,-3.7647,-3.9956,-4.1751,-4.4108,-4.6698,-4.9524,-4.9191,-4.9522,-5.0577,-5.0363,-5.0395,-5.0753,-5.1363,-5.2178,-5.3389,-5.3862,-5.5113,-5.7036,-5.708,-5.8418,-6.0608,-6.1628,-6.1814,-6.1476,-6.2335,-6.3235,-6.3992,-6.3733,-6.4767,-6.6375,-6.6388,-6.6663,-6.705,-6.739,-6.8133,-6.9055,-6.9996,-7.0837,-7.1446,-7.1258,-7.2108,-7.3726,-7.6397,-7.6588,-7.6622,-7.9216,-7.9948,-8.0156,-8.0323,-8.0792,-8.1524,-8.2917,-8.367,-8.4491,-8.5658,-8.6126,-8.6646,-8.773,-8.7569,-8.74,-8.7817,-8.7268,-8.6921,-8.7348,-8.8126,-8.8216,-8.7099,-8.7071,-8.7167,-8.7369,-8.7857,-8.839,-8.8801,-8.9935,-9.0664,-9.0951,-9.1498,-9.179,-9.179,-9.1676,-9.1854,-9.2321,-9.2162,-9.2758,-9.3947,-9.4248,-9.5405,-9.7152,-9.8454,-9.9368,-9.9999,-10.077,-10.1212,-10.1321,-10.158,-10.1893,-10.23,-10.2589,-10.3803,-10.5294,0.2931,-0.1134,-0.4827,-0.6531,-0.9702,-1.3365,-1.7291,-2.0834,-2.3561,-2.4937,-2.598,-2.6739,-2.7221,-2.8795,-2.9608,-2.9136,-3.2898,-3.5602,-3.6195,-4.0574,-4.3424,-4.4048,-4.5917,-4.6887,-4.6978,-4.759,-4.8202,-4.8909,-4.8938,-4.9734,-5.1326,-5.0665,-5.2119,-5.5162,-5.5422,-5.6693,-5.9006,-6.0535,-6.1327,-6.1606,-6.2546,-6.3456,-6.4357,-6.4782,-6.5316,-6.5715,-6.5064,-6.544,-6.6075,-6.5087,-6.6577,-6.896,-6.9298,-7.0937,-7.2888,-7.3678,-7.3592,-7.3507,-7.4375,-7.5816,-7.7677,-8.0308,-8.1531,-8.2335,-8.3202,-8.3352,-8.3689,-8.5039,-8.5349,-8.5444,-8.5837,-8.6588,-8.7406,-8.8155,-8.8647,-8.8972,-8.9049,-8.9421,-8.9411,-8.8653,-9.0017,-9.0512,-8.9423,-8.9081,-8.946,-9.0774,-9.0116,-9.0302,-9.176,-9.1944,-9.2427,-9.3472,-9.3545,-9.3545,-9.3545,-9.3042,-9.3201,-9.4116,-9.3663,-9.4216,-9.5774,-9.7018,-9.7935,-9.8679,-9.9368,-9.9999,-10.0604,-10.1014,-10.1283,-10.158,-10.1971,-10.2303,-10.278,-10.4494,-10.5702,-10.6403,0.1864,-0.1282,-0.4307,-0.6861,-0.9528,-1.213,-1.4522,-1.7605,-2.0114,-2.1528,-2.216,0.0,0.0,0.0,0.0,0.0,-2.9429,-3.165,-3.3556,-3.6779,-3.9425,-4.1122,-4.1769,-4.2652,-4.3955,-4.3889,-4.4083,-4.4885,-4.5525,-4.6454,-4.7636,-4.803,-4.9922,-5.3081,-5.3209,-5.4616,-5.6869,-5.8001,-5.8671,-5.8889,-5.9771,-6.0967,-6.2358,-6.3235,-6.3523,-6.3471,0.0,-6.4448,-6.5484,-6.5182,-6.5841,-6.6971,-6.7753,-6.9153,-7.072,-7.1979,-7.3924,-7.5768,-7.6072,-7.7461,-7.9438,-8.2081,-8.2912,-8.328,-8.4177,-8.4766,-8.5415,-8.6441,-8.6203,-8.6316,-8.8024,-8.8157,-8.8336,-8.9436,-8.9723,-8.9902,-9.0224,-9.0169,-9.0243,-9.0548,-9.1339,-9.1938,-9.219,-9.1439,-9.0774,-9.0492,-9.1006,-9.1846,-9.283,-9.3263,-9.3874,-9.4773,-9.4773,-9.4773,-9.4773,-9.4593,-9.4923,-9.5799,-9.6416,-9.7062,-9.7532,-9.8241,-9.8869,-9.9404,-9.9661,-10.0223,-10.1014,-10.1283,-10.1611,-10.1996,-10.2887,-10.3408,-10.3692,-10.5406,-10.7004,-10.8212,0.071,-0.2055,-0.4637,-0.688,-0.9135,0.0,0.0,0.0,0.0,0.0,0.0,0.0,0.0,0.0,0.0,0.0,0.0,-2.821,-3.0555,-3.3084,-3.5451,-3.7814,-3.8313,-3.9239,-4.069,-4.0544,-4.1037,-4.2162,-4.2873,-4.4003,-4.5551,-4.5956,-4.7728,-5.063,-5.1434,-5.2777,-5.46,-5.5886,-5.7139,-5.8268,-5.7457,-5.8772,-6.1177,-6.0346,-6.013,0.0,-6.0506,-6.1411,-6.2612,-6.3035,-6.4218,-6.5724,-6.6632,-6.8482,-7.0683,-7.2346,-7.4311,-7.6186,-7.7489,-7.8918,-8.0623,-8.2929,-8.3708,-8.4131,-8.499,-8.5604,-8.621,-8.7134,-8.6823,-8.6802,-8.8024,-8.8328,-8.8536,-8.9004,-8.9746,-9.0431,-9.0995,-9.0723,-9.1062,-9.2508,-9.2939,-9.344,-9.4171,-9.4136,-9.3373,-9.1846,-9.2221,-9.3035,-9.4248,-9.4654,-9.5277,-9.6257,-9.6294,-9.6294,-9.6294,-9.6294,-9.6653,-9.7367,-9.8076,-9.8517,-9.8764,-9.916,-9.9585,-9.9923,-10.0075,-10.0595,-10.1325,-10.1896,-10.2306,-10.2689,-10.391,-10.44,-10.4712,-10.6997,-10.8595,-10.9585,-0.0444,-0.3235,-0.5661,0.0,0.0,0.0,0.0,0.0,0.0,0.0,0.0,0.0,0.0,0.0,0.0,0.0,0.0,0.0,-2.7209,-2.9487,-3.1821,-3.4205,-3.5556,-3.6508,-3.7191,-3.7769,-3.8978,-4.0834,-4.0898,-4.2312,-4.4987,-4.4425,-4.559,-4.8145,-4.9935,-5.1288,-5.2267,-5.4026,-5.6591,-5.9111,-5.5538,-5.6848,-6.0566,-5.653,-5.5574,-5.65,-5.6213,-5.6786,-5.7902,-5.899,-6.2053,-6.5518,-6.6353,-6.9322,-7.2853,-7.4847,-7.4977,-7.5181,-7.8481,-8.0074,-8.1255,-8.2999,-8.4068,-8.4941,-8.5761,-8.6014,-8.6264,-8.7063,-8.7106,-8.6717,-8.5849,-8.7117,-8.7984,-8.7118,-8.891,-9.0675,-9.1465,-9.1297,-9.2021,-9.4407,-9.4751,-9.4972,-9.5509,-9.699,-9.7018,-9.4794,-9.3817,-9.4085,-9.5918,-9.5966,-9.6584,-9.7924,-9.7892,-9.7892,-9.7892,-9.7961,-9.8188,-9.8717,-9.8555,-9.8825,-9.9366,-9.9834,-10.0075,-10.0201,-10.0787,-10.1211,-10.1616,-10.2698,-10.3274,-10.3705,-10.4882,-10.5402,-10.5792,-10.9185,-11.0486,-11.0707,0.0,0.0,0.0,0.0,0.0,0.0,0.0,0.0,0.0,0.0,0.0,0.0,0.0,0.0,0.0,0.0,0.0,0.0,-2.516,-2.7093,-2.9272,-3.1758,-3.2519,-3.3677,-3.5168,-3.578,-3.6856,-3.8421,-3.8777,-4.0033,-4.19,-4.2562,-4.4065,-4.6441,-4.7824,-4.9097,-5.0357,-5.1037,-5.2064,-5.3223,-5.2303,-5.3092,-5.4648,-5.4305,-5.4049,-5.3928,-5.4675,-5.5668,-5.6999,-5.944,-6.365,-6.843,-7.1445,-7.3998,-7.6005,-7.6714,-7.8192,-7.9699,-8.0042,-8.1311,-8.2981,-8.4727,-8.5799,-8.6527,-8.6815,-8.7342,-8.747,-8.6468,-8.5229,-8.4218,-8.3978,-8.5356,-8.6873,-8.7907,-9.0146,-9.2229,-9.3724,-9.4044,-9.4563,-9.5842,-9.6828,-9.7472,-9.7619,-9.804,-9.8031,-9.7439,-9.6475,-9.6423,-9.7492,-9.729,-9.7492,-9.8188,-9.8225,-9.8091,-9.7892,-9.832,-9.8529,-9.8679,-9.9569,-9.9987,-10.0174,-10.0678,-10.1311,-10.1762,-10.1481,-10.2185,-10.3589,-10.3492,-10.3996,-10.4882,-10.5897,-10.6689,-10.7586,-11.0304,-11.1799,-11.2619,0.0,0.0,0.0,0.0,0.0,0.0,0.0,0.0,0.0,0.0,0.0,0.0,0.0,0.0,0.0,0.0,0.0,0.0,0.0,-2.4837,-2.6841,-2.9248,-2.9941,-3.104,-3.2523,-3.3195,-3.4527,-3.6682,-3.6936,-3.8233,-4.0402,-4.0605,-4.1757,-4.3715,-4.5102,-4.637,-4.7481,-4.8243,-4.9613,0.0,0.0,-5.0119,-5.1951,-5.0863,-5.047,-5.0558,-5.1549,-5.4583,-5.8687,-6.2597,-6.6634,-7.048,-7.3105,-7.5142,-7.6763,-7.7764,-7.9147,-8.0469,-8.1265,-8.2534,-8.3943,-8.5299,-8.6319,-8.6831,-8.6079,-8.6299,-8.6061,-8.4035,-8.2819,-8.2037,-8.1679,-8.3971,-8.6236,-8.7195,-9.0457,-9.3328,-9.4617,-9.5273,-9.6165,-9.77,-9.8476,-9.9127,-9.9749,-9.975,-9.967,-9.9508,-9.8287,-9.7807,-9.8269,-9.8286,-9.8404,-9.8692,-9.8802,-9.8802,-9.863,-9.8922,-9.9216,-9.9497,-10.0163,-10.0627,-10.088,-10.1208,-10.1828,-10.2595,-10.2306,-10.3114,-10.4689,-10.4698,-10.5399,-10.6617,-10.7397,-10.849,-10.9817,-11.159,-11.3123,-11.4489,0.0,0.0,0.0,0.0,0.0,0.0,0.0,0.0,0.0,-1.6546,-1.6914,-1.7224,0.0,0.0,0.0,0.0,0.0,0.0,0.0,0.0,-2.4681,-2.7059,-2.7846,-2.8667,-2.9735,-3.036,-3.2129,-3.4943,-3.4841,-3.6307,-3.9139,-3.8476,-3.9041,-4.0633,-4.2198,-4.335,-4.4198,-4.5531,-4.775,-4.9948,-4.6779,-4.7591,-5.0369,0.0,-4.653,-4.7607,-4.8764,-5.3986,-6.1129,-6.6181,-6.9814,-7.252,-7.3705,-7.5403,-7.7262,-7.896,-7.9439,-7.9995,-8.2484,-8.372,-8.4544,-8.5357,-8.6305,-8.6566,-8.4725,-8.4417,-8.3815,-8.1065,-8.0468,-8.0163,-7.9292,-8.2536,-8.5487,-8.5825,-9.0082,-9.3716,-9.4829,-9.5824,-9.7246,-9.9458,-9.9823,-10.0296,-10.1478,-10.1504,-10.1326,-10.1091,-9.9708,-9.8883,-9.8871,-9.9164,-9.9325,-9.9386,-9.9585,-9.9653,-9.9623,-9.9676,-9.9974,-10.0489,-10.062,-10.0804,-10.1289,-10.1481,-10.209,-10.3197,-10.3211,-10.4114,-10.5422,-10.6217,-10.7196,-10.8293,-10.9191,-11.0596,-11.2119,-11.3184,-11.4599,-11.6296,0.0,0.0,0.0,0.0,0.0,0.0,0.0,0.0,0.0,0.0,-1.6501,-1.6607,0.0,0.0,0.0,0.0,0.0,0.0,0.0,0.0,0.0,-2.6256,-2.66,-2.7039,-2.7669,-2.8439,-2.958,-3.1228,-3.1593,-3.2961,-3.5097,-3.5854,-3.6905,-3.8282,-3.9781,-4.0903,-4.1596,-4.2239,-4.2943,-4.3608,-4.36,-4.439,-4.5596,-4.5528,-4.659,0.0,-5.1253,-5.5454,-6.0422,-6.4667,-7.0459,-7.6144,-7.802,-8.0299,-8.2355,-8.2776,-8.2912,-8.321,-8.4533,-8.4985,-8.532,-8.6248,-8.7188,-8.7258,-8.4776,-8.4862,-8.434,-8.0281,-7.9502,-7.9057,-7.754,-8.0181,-8.3335,-8.5526,-8.9047,-9.252,-9.5509,-9.7221,-9.8588,-9.9736,-10.092,-10.1697,-10.199,-10.1881,-10.1793,-10.1683,-10.149,-10.1092,-10.0486,-10.0607,-10.0474,-10.0185,-9.986,-9.9706,-9.9653,-10.0087,-10.0395,-10.0489,-10.0889,-10.121,-10.1289,-10.2311,-10.3211,-10.4087,-10.4494,-10.559,-10.7215,-10.761,-10.8198,-10.9191,-11.0792,-11.2002,-11.3212,-11.5506,-11.6999,-11.8092,0.0,0.0,0.0,0.0,0.0,0.0,0.0,-1.6433,-1.7522,-1.858,-1.8715,-1.8714,-1.8698,-1.8881,-1.9141,0.0,0.0,0.0,0.0,0.0,0.0,-2.5533,-2.6093,-2.6724,-2.7335,-2.7704,-2.8673,-3.0322,0.0,-3.152,-3.3451,-3.3837,-3.4524,-3.5575,-3.7151,-3.8238,-3.897,-4.0228,-4.1022,-4.1578,-4.2085,-4.2722,-4.3512,-4.4526,-4.6259,0.0,-5.162,-5.5728,-6.0104,-6.3318,-7.0154,-7.7373,-7.8607,-8.0805,-8.2971,-8.3123,-8.3182,-8.348,-8.4893,-8.5294,-8.5526,-8.643,-8.7332,-8.7149,-8.3661,-8.3596,-8.2941,-7.8205,-7.7622,-7.7576,-7.6363,-7.931,-8.2616,-8.4879,-8.8857,-9.2592,-9.521,-9.7769,-9.9536,-9.9964,-10.1388,-10.2288,-10.2288,-10.2112,-10.201,-10.201,-10.1912,-10.1688,-10.1211,-10.1093,-10.1093,-10.1096,-10.0808,-10.0601,-10.0601,-10.0804,-10.0885,-10.0885,-10.1789,-10.2199,-10.2199,-10.3288,-10.4402,-10.5404,-10.5611,-10.6714,-10.8496,-10.8588,-10.9699,-11.1299,-11.1689,-11.3407,-11.5789,-11.6218,-11.7701,-11.9692,0.0,0.0,0.0,0.0,0.0,0.0,-1.631,-1.7296,-1.8399,-1.9975,-2.1245,-2.1508,-2.0079,-1.9949,-2.0,0.0,0.0,0.0,0.0,0.0,0.0,0.0,0.0,0.0,-2.7237,0.0,0.0,-2.991,-2.9778,0.0,0.0,0.0,0.0,0.0,-3.4771,-3.5791,-3.6529,-3.8432,-3.9742,0.0,0.0,-4.192,-4.2902,0.0,0.0,0.0,0.0,-5.5212,-5.9183,-6.225,-6.8838,-7.5855,-7.6878,-7.9608,-8.2381,-8.2324,-8.2586,-8.3233,-8.5081,-8.5719,-8.5989,-8.6684,-8.7437,-8.6876,-8.2677,-8.2312,-8.1497,-7.6652,-7.6205,-7.6514,-7.5871,-7.883,-8.1917,-8.3748,-8.8045,-9.1965,-9.4099,-9.7226,-9.9513,-9.999,-10.1387,-10.2304,-10.2499,-10.2279,-10.2085,-10.2085,-10.1981,-10.1793,-10.1511,-10.14,-10.1475,-10.1716,-10.1585,-10.1514,-10.1514,-10.1478,-10.1516,-10.167,-10.2585,-10.3201,-10.3395,-10.4502,-10.5515,-10.6319,-10.6817,-10.7794,-10.9308,-10.9894,-11.1299,-11.3095,-11.3212,-11.5203,-11.8092,-11.7389,-11.8716,-12.0707,0.0,0.0,0.0,0.0,0.0,0.0,-1.6514,-1.8479,-1.9853,-2.0515,-2.2695,-2.3515,-2.1894,-2.1988,-2.1758,0.0,0.0,0.0,0.0,0.0,0.0,0.0,0.0,0.0,0.0,0.0,0.0,-2.8671,-2.8617,0.0,0.0,0.0,0.0,0.0,0.0,-3.3909,-3.4632,-3.5962,0.0,0.0,0.0,0.0,0.0,0.0,0.0,0.0,0.0,-5.3964,-5.6466,-6.1633,-6.6135,-7.0016,-7.2788,-7.7872,-8.2646,-8.1689,-8.2449,-8.4015,-8.5971,-8.7005,-8.7578,-8.7655,-8.781,-8.6889,-8.2984,-8.2216,-8.1258,-7.7306,-7.6594,-7.6671,-7.6591,-7.822,-8.0108,-8.185,-8.5239,-8.8818,-9.2078,-9.4918,-9.7511,-9.981,-10.0803,-10.1604,-10.2421,-10.2279,-10.2085,-10.2085,-10.1981,-10.1889,-10.1896,-10.1819,-10.1819,-10.1928,-10.1793,-10.1688,-10.1688,-10.1796,-10.2184,-10.291,-10.3196,-10.3794,-10.4611,-10.5709,-10.6186,-10.6397,-10.8206,-10.9104,-10.9503,-11.1807,-11.29,-11.3407,-11.6413,-11.7897,-11.8599,-12.0707,-12.1215,-12.0893,0.0,0.0,0.0,0.0,0.0,0.0,-1.7581,-1.8557,-1.9725,-2.203,-2.3083,-2.373,-2.3859,-2.3699,-2.2938,-2.1111,0.0,0.0,0.0,0.0,0.0,0.0,0.0,0.0,0.0,0.0,-2.7139,-2.8372,-2.8837,0.0,0.0,0.0,0.0,0.0,0.0,-3.4424,-3.5208,-3.6632,0.0,0.0,0.0,0.0,0.0,0.0,0.0,0.0,0.0,0.0,-5.655,-5.9171,-6.3585,-6.8062,-6.8539,-7.3079,-7.8561,-7.9996,-8.16,-8.3472,-8.5769,-8.7073,-8.7801,-8.7801,-8.7078,-8.5781,-8.3423,-8.1809,-8.0161,-7.7827,-7.7001,-7.671,-7.6708,-7.8124,-7.9692,-8.0974,-8.4072,-8.7205,-8.9686,-9.2687,-9.5631,-9.8292,-9.9788,-10.1104,-10.2509,-10.2504,-10.2283,-10.2094,-10.2109,-10.2099,-10.2022,-10.1894,-10.1889,-10.1889,-10.1894,-10.1913,-10.1913,-10.2007,-10.2412,-10.3305,-10.4092,-10.49,-10.5702,-10.6806,-10.7593,-10.8195,-10.8978,-10.9894,-11.0909,-11.2509,-11.3993,-11.5593,-11.6882,-11.8795,-12.059,-12.0512,-12.09,-12.1211,0.0,0.0,0.0,0.0,0.0,-1.4513,-1.7768,-1.8412,-1.9569,-2.2266,-2.2862,-2.3349,-2.4544,-2.4314,-2.3481,-2.1864,-2.1445,0.0,0.0,0.0,0.0,0.0,0.0,0.0,0.0,0.0,-2.7545,-2.8786,-2.9571,-3.0624,0.0,0.0,-3.2948,-3.3187,0.0,0.0,0.0,0.0,0.0,0.0,0.0,0.0,0.0,0.0,0.0,0.0,0.0,0.0,0.0,0.0,0.0,-6.5578,-6.5952,-6.9286,-7.3848,-7.7576,-8.0484,-8.2914,-8.5334,-8.7019,-8.8129,-8.8174,-8.6729,-8.4957,-8.3409,-8.1141,-7.8961,-7.7473,-7.6792,-7.6514,-7.6516,-7.803,-7.952,-8.017,-8.296,-8.576,-8.7798,-9.0611,-9.3515,-9.6437,-9.8351,-10.0105,-10.1781,-10.2302,-10.241,-10.2187,-10.2303,-10.2285,-10.2205,-10.2124,-10.1995,-10.1995,-10.2109,-10.2101,-10.2101,-10.2516,-10.3091,-10.3887,-10.4996,-10.6002,-10.6812,-10.7911,-10.8706,-10.9285,-10.9792,-11.0995,-11.2713,-11.3814,-11.561,-11.7819,-11.8296,-11.9818,-12.1605,-12.059,-12.0512,-12.0721,0.0,0.0,0.0,0.0,0.0,0.0,-1.65,-1.8221,-1.9623,-2.0603,-2.1914,-2.2852,-2.3453,-2.3609,-2.3486,-2.3135,-2.1973,0.0,0.0,0.0,0.0,0.0,0.0,0.0,0.0,0.0,-2.8715,-2.9986,-3.0782,-3.1901,-3.3422,-3.3492,-3.3725,-3.3932,0.0,0.0,0.0,0.0,0.0,0.0,0.0,0.0,-4.5454,0.0,0.0,0.0,0.0,0.0,0.0,0.0,0.0,0.0,0.0,-6.7442,-6.9207,-7.4606,-7.9034,-8.2631,-8.4553,-8.6949,-8.8823,-8.8954,-8.7114,-8.4793,-8.2671,-8.0233,-7.7824,-7.5838,-7.5716,-7.6032,-7.6108,-7.787,-7.929,-7.929,-8.1515,-8.4154,-8.6763,-8.8618,-9.1018,-9.4492,-9.6484,-9.824,-10.0102,-10.16,-10.249,-10.2387,-10.2387,-10.2412,-10.2406,-10.2406,-10.239,-10.239,-10.2406,-10.2406,-10.2406,-10.3396,-10.4311,-10.5209,-10.6195,-10.7105,-10.8003,-10.888,-10.9304,-10.9397,-11.1101,-11.2813,-11.4492,-11.6188,-11.8013,-11.9614,-12.1396,-12.1506,-12.0903,-12.18,-12.0785,-11.9104,0.0,0.0,0.0,0.0,0.0,0.0,-1.5939,-1.723,-1.8379,-1.9579,-1.9956,-2.0851,-2.2874,-2.265,-2.2618,-2.335,-2.233,0.0,0.0,0.0,0.0,0.0,0.0,0.0,0.0,-2.8574,-2.9858,-3.0925,-3.2723,-3.4312,-3.5714,-3.6014,-3.6187,-3.6141,-3.5489,-3.5619,0.0,0.0,0.0,0.0,0.0,-4.4158,-4.6242,0.0,0.0,0.0,0.0,0.0,0.0,0.0,0.0,0.0,0.0,0.0,0.0,-7.0745,-7.55,-7.9966,-8.1065,-8.3714,-8.5882,-8.4887,-8.3164,-8.167,-8.1468,-7.8988,-7.6648,-7.6373,-7.6056,-7.5841,-7.6057,-7.7744,-7.9135,-7.9271,-8.0996,-8.3032,-8.5049,-8.739,-9.0384,-9.4473,-9.8593,-10.1304,-10.1894,-10.2382,-10.2689,-10.2509,-10.2582,-10.2608,-10.2499,-10.2693,-10.2585,-10.2406,-10.2503,-10.2782,-10.3407,-10.392,-10.4798,-10.6204,-10.6483,-10.7499,-10.8902,-10.9209,-10.9987,-11.1116,-11.2205,-11.3689,-11.5407,-11.7208,-11.8883,-12.0596,-12.169,-12.1918,-12.1591,-12.1318,-12.0197,-11.8694,0.0,0.0,0.0,0.0,0.0,0.0,-1.5058,-1.6397,-1.7662,-1.8599,-1.8555,-1.9299,-2.1644,-2.1337,-2.1362,-2.2601,-2.2109,0.0,0.0,0.0,0.0,0.0,0.0,0.0,-2.7896,-2.9352,-3.0934,-3.2641,-3.4384,-3.6332,-3.8251,-3.8641,-3.8851,-3.8728,-3.7834,-3.7609,0.0,0.0,0.0,0.0,-4.3007,-4.4399,-4.5865,0.0,0.0,0.0,0.0,0.0,0.0,0.0,0.0,0.0,0.0,0.0,0.0,0.0,-7.178,-7.5845,-7.8143,-8.1102,-8.3303,-8.2719,-8.1087,-7.9729,-8.0217,-7.7703,-7.5372,-7.5702,-7.5618,-7.5616,-7.6139,-7.7743,-7.9128,-7.9582,-8.1155,-8.3095,-8.5182,-8.7503,-9.069,-9.5416,-9.9446,-10.2008,-10.2281,-10.2587,-10.28,-10.2694,-10.2812,-10.2695,-10.2218,-10.2694,-10.2686,-10.209,-10.281,-10.3295,-10.3491,-10.4607,-10.5508,-10.6289,-10.7187,-10.8203,-10.9296,-10.9997,-11.1206,-11.2884,-11.3701,-11.542,0.0,-11.8782,-12.0497,-12.2286,-12.2212,-12.209,-12.2002,-12.0791,-11.9509,-11.8217,0.0,0.0,0.0,0.0,0.0,0.0,0.0,-1.5792,-1.7305,-1.7706,-1.7721,-1.8288,-1.983,-1.9729,-2.0062,-2.1427,0.0,0.0,0.0,0.0,0.0,0.0,0.0,0.0,-2.8976,-3.0206,-3.2139,-3.4776,-3.6055,-3.8096,-4.0838,-4.1313,-4.1508,-4.1368,-4.0054,-3.9212,0.0,0.0,0.0,0.0,-4.4045,-4.4802,0.0,0.0,0.0,0.0,0.0,0.0,0.0,0.0,0.0,0.0,0.0,0.0,0.0,0.0,0.0,0.0,0.0,-7.8681,-8.0935,-8.1858,-8.0413,-7.8854,-7.8879,-7.6563,0.0,-7.4385,-7.485,-7.5512,-7.6349,-7.7852,-7.9292,-8.0167,-8.1889,-8.4145,-8.6894,-8.9051,-9.2191,-9.7277,-9.9406,-10.0798,-10.15,-10.232,-10.2796,-10.281,-10.2788,-10.2488,-10.1712,-10.2382,-10.25,-10.1719,-10.3281,-10.3789,-10.3008,-10.539,-10.6289,-10.5703,-10.8086,-10.9414,-10.9492,-11.1286,-11.3006,-11.4609,-11.5583,-11.7886,-12.0894,-12.1015,-12.2419,-12.4282,-12.2805,-12.1985,-12.1583,-12.0099,-11.8703,-11.7597,0.0,0.0,0.0,0.0,0.0,0.0,0.0,0.0,0.0,0.0,-1.6857,-1.7356,-1.9112,-1.9228,-1.9894,0.0,0.0,0.0,0.0,0.0,0.0,0.0,0.0,0.0,-2.9578,-3.1913,-3.396,-3.572,-3.8293,-4.0618,-4.2528,-4.3586,-4.3211,-4.1564,-4.1092,-4.0197,0.0,0.0,0.0,0.0,-4.1969,-4.305,0.0,0.0,0.0,0.0,-5.1395,-5.3245,0.0,0.0,0.0,0.0,0.0,0.0,0.0,0.0,-6.5633,-6.719,-7.0,0.0,-7.7953,-7.699,-7.7404,-7.7842,0.0,-7.66,-7.6037,-7.6037,-7.6278,-7.671,-7.7227,-7.8317,-7.9584,-8.0948,-8.2693,-8.507,-8.8439,-9.335,-9.755,-10.0202,-10.1514,-10.2304,-10.2382,-10.2616,-10.2789,-10.2796,-10.2191,-10.208,-10.2514,-10.21,-10.2107,-10.2615,-10.3593,-10.4101,-10.3906,-10.5117,-10.6289,-10.7383,-10.8711,-11.0,-11.1289,-11.3085,-11.4492,-11.5586,-11.7812,-11.9492,-12.1015,-12.2304,-12.2499,-12.1795,-12.2109,-12.1013,-11.9094,-11.8782,-11.8207,-11.7714,0.0,0.0,0.0,0.0,0.0,0.0,0.0,0.0,0.0,0.0,-1.6696,-1.6921,-1.7712,-1.8515,0.0,0.0,0.0,0.0,0.0,0.0,0.0,0.0,0.0,-2.9415,-3.0884,-3.3038,-3.5198,-3.754,-3.9719,-4.1977,-4.4372,-4.4638,-4.4265,-4.3373,-4.2476,-4.1503,0.0,0.0,0.0,-4.2017,-4.3033,0.0,0.0,0.0,0.0,0.0,-5.1162,-5.2943,0.0,-5.7431,-5.8972,-5.9757,0.0,0.0,0.0,0.0,-6.3932,-6.5045,-6.7293,-7.1411,-7.5031,-7.5021,-7.5994,-7.703,-7.7153,-7.66,-7.615,-7.6525,-7.6827,-7.7332,-7.8438,-7.9896,-8.1402,-8.2699,-8.5429,-8.8505,-9.1669,-9.5825,-9.9085,-10.0487,-10.1891,-10.2792,-10.2714,-10.2811,-10.2789,-10.2789,-10.2107,-10.1801,-10.2191,-10.1781,-10.1791,-10.2301,-10.3083,-10.3789,-10.4219,-10.5781,-10.7109,-10.8008,-10.9687,-11.1406,-11.3086,-11.4492,-11.6211,-11.8203,-11.9609,-12.1093,-12.2695,-12.2383,-12.2187,-12.1992,-12.0898,-11.9804,-11.8903,-11.881,-11.8508,-11.8324,0.0,0.0,0.0,0.0,0.0,0.0,0.0,0.0,0.0,0.0,0.0,0.0,0.0,0.0,0.0,0.0,0.0,0.0,0.0,0.0,0.0,0.0,-2.8217,-3.0025,-3.2441,-3.3908,-3.6218,-3.9446,-4.0771,-4.2996,-4.5875,-4.5466,-4.5413,-4.5454,-4.3745,-4.2804,-4.2414,-4.3727,-4.3956,-4.3525,-4.488,0.0,0.0,0.0,0.0,0.0,0.0,0.0,0.0,-5.7295,-5.8874,-5.9661,-6.1084,0.0,0.0,0.0,0.0,0.0,-6.6375,-6.973,-7.2884,-7.4331,-7.5445,-7.6531,-7.7641,-7.66,-7.5662,-7.66,-7.6968,-7.7772,-7.9816,-8.157,-8.3218,-8.4736,-8.8777,-9.2634,-9.5408,-9.76,-9.9189,-9.9931,-10.1588,-10.2608,-10.2694,-10.2587,-10.2509,-10.2704,-10.1883,-10.1508,-10.1703,-10.1689,-10.1703,-10.1791,-10.2613,-10.3591,-10.4609,-10.6719,-10.8008,-10.8398,-11.0781,-11.289,-11.4687,-11.5703,-11.789,-12.0898,-12.1211,-12.2617,-12.4609,-12.2109,-12.1797,-12.2617,-11.9414,-11.8593,-11.9218,-11.8989,-11.9081,-11.9319,0.0,0.0,0.0,0.0,0.0,0.0,0.0,0.0,0.0,0.0,0.0,0.0,0.0,0.0,0.0,0.0,0.0,0.0,0.0,0.0,0.0,-2.9593,-3.0233,-3.1516,-3.3944,-3.5542,-3.7603,-3.9943,-4.2553,-4.4796,-4.6435,-4.8181,-4.7854,-4.5781,-4.3998,-4.2812,-4.231,-4.2744,-4.2848,-4.2879,-4.4202,0.0,0.0,0.0,0.0,0.0,0.0,0.0,0.0,-5.5302,-5.7259,-5.8841,-5.9663,0.0,0.0,0.0,0.0,0.0,-6.7034,-7.0452,-7.3216,-7.3259,-7.4844,-7.663,-7.7641,-7.66,-7.5849,-7.7389,-7.7738,-7.8643,-8.1483,-8.1653,-8.2596,-8.6197,-9.0581,-9.4666,-9.8029,-10.0112,-10.1321,-10.1503,-10.1915,-10.2178,-10.2109,-10.1479,-10.1388,-10.2205,-10.0893,-10.0813,-10.2295,-10.1913,-10.1884,-10.2587,-10.3507,-10.4683,-10.6287,-10.6718,-10.8008,-11.0195,-11.1406,-11.3203,-11.5586,-11.7187,-11.8984,-12.1015,-12.25,-12.3711,-12.4687,-12.2812,-12.1289,-12.0,-11.8008,-11.7304,-11.7383,-11.7381,-11.8491,-12.0078,0.0,0.0,0.0,0.0,0.0,0.0,0.0,0.0,0.0,0.0,0.0,0.0,0.0,0.0,0.0,0.0,0.0,0.0,0.0,0.0,-2.742,-3.1389,-3.2183,-3.3465,-3.5567,-3.7621,-3.9664,-4.1905,-4.4349,-4.6334,-4.7858,-4.7967,-4.6916,-4.4865,-4.3487,-4.2948,-4.307,-4.3404,-4.3698,-4.4092,0.0,0.0,0.0,0.0,0.0,0.0,0.0,0.0,0.0,0.0,-5.7255,-5.8805,-6.0357,0.0,0.0,0.0,0.0,0.0,-6.6138,-6.9557,-7.2767,-7.4042,-7.6903,-7.9775,-8.1492,-8.0956,-8.043,-8.1632,-8.1895,-8.2699,-8.5271,-8.616,-8.8091,-9.3013,-9.4366,-9.5867,-9.8827,-9.9782,-10.0298,-10.0788,-10.1603,-10.1919,-10.14,-10.1798,-10.1899,-10.1394,-10.1172,-10.1525,-10.2406,-10.1789,-10.2021,-10.3519,-10.4398,-10.5892,-10.8082,-10.8593,-10.9609,-11.1289,-11.2695,-11.4609,-11.7109,-11.8398,-12.0195,-12.2304,-12.3203,-12.4218,-12.5195,-12.1601,-12.0195,-12.0,-11.7304,-11.6289,-11.6484,-11.8187,-11.9698,-12.0794,0.0,0.0,0.0,0.0,0.0,0.0,0.0,0.0,0.0,0.0,0.0,0.0,0.0,0.0,0.0,0.0,0.0,0.0,0.0,-2.6889,-2.8571,-3.2218,-3.3557,-3.5356,-3.782,-3.9844,-4.2061,-4.437,-4.6204,-4.7832,-4.9218,-4.7691,-4.6102,-4.4578,-4.3448,-4.3285,-4.3719,-4.4015,-4.4519,-4.5244,0.0,0.0,0.0,0.0,0.0,0.0,0.0,0.0,0.0,0.0,0.0,0.0,0.0,0.0,0.0,-6.4004,-6.3828,-6.3969,-6.6321,-6.9495,-7.2686,-7.5393,-7.8603,-8.1863,-8.4663,-8.4523,-8.4073,-8.5086,-8.5666,-8.6553,-8.8431,-9.0408,-9.3193,-9.754,-9.6936,-9.6706,-9.9075,-9.9121,-9.9135,-9.9669,-10.0788,-10.1313,-10.0689,-10.1775,-10.2085,-10.1026,-10.1427,-10.1876,-10.2304,-10.1699,-10.228,-10.4186,-10.5185,-10.6888,-10.9603,-11.0507,-11.1289,-11.2187,-11.3789,-11.5781,-11.8281,-11.9218,-12.1015,-12.3515,-12.3515,-12.4297,-12.539,-12.0781,-11.9687,-12.0586,-11.75,-11.6601,-11.7186,-11.9705,-12.0994,-12.1402,0.0,0.0,0.0,0.0,0.0,0.0,0.0,0.0,0.0,0.0,0.0,0.0,0.0,0.0,0.0,0.0,0.0,0.0,0.0,-2.7821,-2.8936,-3.1556,-3.3769,-3.6892,-4.0978,-4.2499,-4.4448,-4.6986,-4.8303,-4.9218,-4.9793,-4.889,-4.7534,-4.5797,-4.4872,-4.4188,-4.3748,-4.369,-4.4317,-4.5304,-4.5987,0.0,0.0,0.0,0.0,0.0,0.0,0.0,0.0,0.0,0.0,0.0,0.0,0.0,-6.5847,-6.5759,-6.6181,-6.7199,-6.9516,-7.1752,-7.4041,-7.684,-7.8333,-8.0126,-8.4309,-8.4073,-8.3359,-8.4974,-8.6727,-8.8305,-8.9173,-9.1735,-9.3906,-9.4637,-9.5904,-9.7394,-9.9152,-9.9529,-9.9393,-9.8703,-9.9557,-10.0211,-10.021,-10.0325,-10.0596,-10.1212,-10.08,-10.0875,-10.168,-10.1919,-10.2887,-10.4892,-10.5793,-10.7593,-11.0491,-11.1399,-11.2185,-11.3086,-11.4101,-11.5781,-11.8281,-11.9218,-12.1015,-12.3515,-12.3515,-12.3984,-12.4687,-12.1914,-12.0781,-12.0703,-11.8789,-11.9101,-12.0585,-12.1513,-12.1781,-12.1681,0.0,0.0,0.0,0.0,0.0,0.0,0.0,0.0,0.0,0.0,0.0,0.0,0.0,0.0,0.0,0.0,0.0,0.0,0.0,-2.8994,-3.0338,-3.3171,-3.4849,-3.7679,-4.2066,-4.3888,-4.6152,-4.893,-5.008,-5.0211,-4.9348,-4.7925,-4.6488,-4.5142,-4.3596,-4.3231,-4.377,-4.3539,-4.4195,-4.5245,-4.5726,-4.68,0.0,0.0,0.0,0.0,0.0,0.0,0.0,0.0,-5.6211,-5.8428,-6.0306,-6.3259,-6.5931,-6.59,-6.6426,-6.762,-7.0499,-7.2513,-7.4588,-7.7697,-7.9936,-8.2372,-8.6121,-8.7004,-8.7433,-8.9056,-9.04,-9.1619,-9.2759,-9.4925,-9.6578,-9.6706,-9.7241,-9.8082,-9.9228,-9.9606,-9.9581,-9.9274,-10.0209,-10.0404,-9.9404,-10.0712,-10.1289,-10.0596,-10.1325,-10.2006,-10.2508,-10.3095,-10.4415,-10.6498,-10.7908,-10.9522,-11.1301,-11.2295,-11.3081,-11.3983,-11.4804,-11.6601,-11.9101,-12.0,-12.1484,-12.3515,-12.3515,-12.3984,-12.4609,-12.2617,-12.1992,-12.2304,-12.0586,-12.0703,-12.1718,-12.1208,-12.141,-12.1791,0.0,0.0,0.0,0.0,0.0,0.0,0.0,0.0,0.0,0.0,0.0,0.0,0.0,0.0,0.0,0.0,0.0,0.0,-2.9497,-2.9973,-3.1189,-3.3464,-3.5263,-3.809,-4.1938,-4.456,-4.7224,-4.9897,-5.123,-5.0812,-4.8773,-4.7721,-4.6674,-4.5475,-4.401,-4.3877,-4.4656,-4.4084,-4.4366,-4.5279,-4.5677,-4.6637,0.0,0.0,0.0,0.0,0.0,0.0,0.0,0.0,-5.6268,-5.8675,-6.0892,-6.3864,-6.67,-6.7197,-6.8217,-6.9691,-7.1985,-7.3807,-7.5829,-7.9155,-8.1507,-8.3975,-8.7412,-8.9055,-9.0367,-9.1944,-9.3058,-9.4173,-9.5496,-9.6896,-9.7896,-9.8074,-9.8541,-9.8923,-9.8999,-9.9644,-9.9811,-9.9006,-10.0094,-10.0596,-9.9673,-10.1212,-10.1904,-10.1289,-10.2404,-10.3175,-10.3585,-10.4392,-10.5913,-10.8182,-10.9407,-11.0706,-11.2188,-11.3108,-11.4016,-11.48,-11.5703,-11.7304,-11.9609,-12.0781,-12.2109,-12.3515,-12.3515,-12.3789,-12.4297,-12.3086,-12.3086,-12.3789,-12.2617,-12.2695,-12.3281,-12.2286,-12.2308,-12.2809,0.0,0.0,0.0,0.0,0.0,0.0,0.0,0.0,0.0,0.0,0.0,0.0,0.0,0.0,0.0,0.0,0.0,0.0,-2.9973,-3.0747,-3.1314,-3.1776,-3.498,-3.7993,-4.0841,-4.4457,-4.7503,-4.9897,-5.1622,-5.0995,-4.8172,-4.8726,-4.8459,-4.7314,-4.6785,-4.6482,-4.6401,-4.5207,-4.4908,-4.5307,-4.5705,-4.6667,-4.8133,0.0,0.0,0.0,0.0,0.0,0.0,0.0,-5.6477,-5.8823,-6.2582,-6.5834,-6.8492,-7.0027,-7.2149,-7.4053,-7.4482,-7.5979,-7.8224,-8.1497,-8.287,-8.4416,-8.7987,-8.975,-9.1124,-9.2764,-9.4248,-9.5555,-9.6676,-9.7121,-9.7451,-9.799,-9.9496,-9.9992,-9.8349,-9.9753,-10.0118,-9.7511,-9.8941,-10.0404,-10.1212,-10.1289,-10.202,-10.3789,-10.3905,-10.4289,-10.5097,-10.5982,-10.7407,-10.9591,-10.9811,-11.0907,-11.3086,-11.4001,-11.4791,-11.5698,-11.6601,-11.789,-11.9687,-12.1406,-12.2695,-12.3515,-12.3515,-12.3515,-12.3515,-12.3515,-12.3984,-12.4804,-12.4804,-12.5312,-12.5898,-12.5117,-12.4804,-12.4687,0.0,0.0,0.0,0.0,0.0,0.0,0.0,0.0,0.0,0.0,0.0,0.0,0.0,0.0,0.0,0.0,0.0,0.0,-3.0287,-3.136,-3.2083,-3.2426,-3.4558,-3.6522,-3.8171,-4.2405,-4.6331,-4.9897,-5.042,-4.961,-4.7571,-4.7748,-4.75,-4.6754,-4.7028,-4.7052,-4.6998,-4.5831,-4.5901,-4.6833,-4.7377,-4.8064,-4.9012,0.0,0.0,0.0,0.0,0.0,0.0,0.0,0.0,0.0,-6.1408,-6.5412,-6.9217,-7.0213,-7.2149,-7.4221,-7.5468,-7.7682,-7.9928,-8.146,-8.4801,-8.7896,-8.845,-8.9823,-9.1752,-9.4594,-9.5042,-9.5324,-9.6646,-9.6455,-9.6333,-9.712,-9.7662,-9.8006,-9.8082,-9.9217,-9.9811,-9.9044,-10.0094,-10.0789,-10.0481,-10.1481,-10.2712,-10.3789,-10.4405,-10.5405,-10.6905,-10.7713,-10.8913,-11.0601,-11.1184,-11.2289,-11.4001,-11.4308,-11.5099,-11.6588,-11.7499,-11.8789,-12.0508,-12.1015,-12.2109,-12.3515,-12.3515,-12.3515,-12.3515,-12.4218,-12.4883,-12.5586,-12.5,-12.4883,-12.5117,-12.4218,-12.4609,-12.5586,0.0,0.0,0.0,0.0,0.0,0.0,0.0,0.0,0.0,0.0,-2.0872,-2.1834,0.0,0.0,0.0,0.0,0.0,0.0,-3.0391,-3.1593,-3.2448,-3.2663,-3.4336,-3.6137,-3.7975,-4.1662,-4.4536,-4.6824,-4.8376,-4.8564,-4.7336,-4.8364,-4.8699,-4.8592,-4.9486,-4.9549,-4.9033,-4.7839,-4.7486,-4.7757,-4.8256,-4.9108,-5.0117,0.0,0.0,0.0,0.0,0.0,0.0,0.0,0.0,0.0,-6.1312,-6.4966,-6.8775,-7.0815,-7.3885,-7.6861,-7.8256,-8.1094,-8.3839,-8.5239,-8.7565,-8.9818,-9.0665,-9.1412,-9.2689,-9.5437,-9.5787,-9.6096,-9.7608,-9.7341,-9.7218,-9.8235,-9.8388,-9.8426,-9.8579,-9.9835,-10.0425,-9.9773,-10.1016,-10.1789,-10.1597,-10.2789,-10.4097,-10.529,-10.6213,-10.7213,-10.8598,-10.9483,-11.0418,-11.1495,-11.2,-11.3009,-11.4383,-11.4687,-11.5602,-11.7013,-11.7886,-11.8984,-12.039,-12.1093,-12.2187,-12.3515,-12.3515,-12.3515,-12.3593,-12.4414,-12.5117,-12.5508,-12.5312,-12.5508,-12.5703,-12.5195,-12.5898,-12.6992,0.0,0.0,0.0,0.0,0.0,0.0,0.0,0.0,0.0,-2.1133,-2.196,-2.2498,0.0,0.0,0.0,-2.6481,-2.8668,-3.0224,-3.0454,-3.1614,-3.2469,-3.2814,-3.4357,-3.656,-3.9428,-4.1377,-4.2254,-4.2103,-4.5959,-4.7626,-4.721,-4.964,-5.123,-5.1964,-5.316,-5.2995,-5.1747,-5.0471,-4.9331,-4.8464,-4.9008,-5.0112,-5.1541,-5.2562,0.0,0.0,0.0,0.0,0.0,0.0,0.0,0.0,-6.2063,-6.4818,-6.7718,-7.1616,-7.6376,-8.0527,-8.1782,-8.5049,-8.8613,-9.0692,-9.0589,-9.085,-9.3797,-9.3908,-9.3924,-9.5718,-9.655,-9.7453,-9.9088,-9.9079,-9.9172,-10.029,-10.0489,-10.0183,-9.9496,-10.1023,-10.1614,-10.0003,-10.1592,-10.3097,-10.3789,-10.4789,-10.5982,-10.7713,-10.8598,-10.9406,-11.0291,-11.1098,-11.1692,-11.2285,-11.2388,-11.3087,-11.45,-11.5383,-11.63,-11.7091,-11.7883,-11.8788,-11.9687,-12.1289,-12.2617,-12.3515,-12.3515,-12.3515,-12.3593,-12.4414,-12.4687,-12.4804,-12.5508,-12.6289,-12.7187,-12.7109,-12.7695,-12.8593,0.0,0.0,0.0,0.0,0.0,0.0,0.0,0.0,-2.1149,-2.1493,-2.2119,-2.2593,-2.2863,-2.5023,0.0,-2.6481,-2.888,-3.0538,-3.1211,-3.2105,-3.2922,-3.3508,-3.4644,-3.6445,-3.9193,-3.9383,-4.0223,-4.1846,-4.3622,-4.5221,-4.6603,-4.8961,-5.0935,-5.2429,-5.3781,-5.3375,-5.1719,-5.0037,-4.944,-4.9826,-5.1783,-5.2632,-5.3029,-5.552,-5.5809,0.0,0.0,0.0,0.0,0.0,0.0,0.0,-6.277,-6.5579,-6.8348,-7.1757,-7.5521,-7.8922,-8.0501,-8.4263,-8.8041,-8.8898,-9.125,-9.3619,-9.4772,-9.5344,-9.596,-9.6831,-9.7128,-9.7665,-9.9135,-9.88,-9.8609,-9.9534,-9.9649,-9.961,-9.9419,-10.1023,-10.1805,-10.0808,-10.3014,-10.4405,-10.3905,-10.5905,-10.7598,-10.8598,-10.9406,-11.0291,-11.1214,-11.1406,-11.1692,-11.2285,-11.301,-11.4002,-11.5398,-11.6294,-11.7208,-11.799,-11.82,-11.8788,-11.9609,-12.0703,-12.1992,-12.3515,-12.3515,-12.3515,-12.3515,-12.3711,-12.3789,-12.3789,-12.3984,-12.5,-12.6211,-12.5586,-12.6718,-12.8398,0.0,0.0,0.0,0.0,0.0,0.0,0.0,0.0,-2.223,-2.2245,-2.2514,-2.2815,-2.299,-2.5186,0.0,0.0,-2.9273,-3.1127,-3.1677,-3.2491,-3.3312,-3.4119,-3.5059,-3.6148,-3.7215,-3.7803,-3.8512,-3.9725,-4.0739,-4.3113,-4.6773,-4.8876,-5.1288,-5.3894,-5.4943,-5.4351,-5.2615,-5.1665,-5.1122,-5.102,-5.3133,-5.4128,-5.4495,-5.6412,-5.659,-5.5852,-5.5335,0.0,0.0,0.0,0.0,0.0,0.0,0.0,-6.8737,-7.236,-7.612,-7.9817,-8.2323,-8.5857,-8.9031,-9.0081,-9.2535,-9.4846,-9.5127,-9.6245,-9.7345,-9.7756,-9.7863,-9.84,-10.028,-10.0222,-10.0222,-10.11,-10.1177,-10.1177,-10.1177,-10.2822,-10.3914,-10.3416,-10.5819,-10.7213,-10.6405,-10.829,-10.9483,-10.9483,-11.0291,-11.1021,-11.1522,-11.1522,-11.1886,-11.2708,-11.3307,-11.4406,-11.609,-11.6686,-11.7388,-11.8302,-11.8313,-11.8786,-11.9609,-12.0508,-12.1601,-12.289,-12.289,-12.3086,-12.3515,-12.3515,-12.3515,-12.3515,-12.3515,-12.4297,-12.539,-12.5,-12.5898,-12.7187,0.0,0.0,0.0,0.0,0.0,0.0,0.0,0.0,0.0,-2.3054,-2.3022,-2.3022,-2.3135,-2.5296,-2.6844,0.0,0.0,0.0,-3.2146,-3.3095,-3.392,-3.4622,-3.5408,-3.5758,-3.5583,-3.6675,-3.7374,-3.7636,-3.8481,-4.166,-4.696,-4.8911,-5.1765,-5.5515,-5.6077,-5.5355,-5.3727,-5.3429,-5.2723,-5.1972,-5.389,-5.5049,-5.5899,-5.6847,-5.7259,-5.7275,-5.6888,-5.6789,-5.7338,-5.9774,0.0,0.0,0.0,0.0,-6.9442,-7.2992,-7.7037,-8.1201,-8.4373,-8.7716,-9.0661,-9.213,-9.4068,-9.5638,-9.5638,-9.7003,-9.848,-9.9022,-9.9092,-9.9644,-10.1502,-10.2018,-10.24,-10.3087,-10.3202,-10.3278,-10.3584,-10.512,-10.6292,-10.6407,-10.8893,-11.0291,-10.9406,-11.0906,-11.1598,-11.0906,-11.1522,-11.1906,-11.1906,-11.1906,-11.2423,-11.3304,-11.3707,-11.482,-11.6512,-11.6884,-11.7515,-11.8302,-11.8306,-11.8784,-11.9609,-12.0312,-12.1211,-12.2187,-12.2187,-12.2695,-12.3515,-12.3515,-12.3515,-12.3515,-12.3515,-12.3984,-12.4804,-12.4609,-12.5195,-12.6015,0.0,0.0,0.0,0.0,0.0,0.0,0.0,0.0,0.0,0.0,-2.3022,-2.3247,-2.3697,-2.4982,-2.6409,-2.8077,-2.9823,-3.1527,-3.3116,0.0,0.0,-3.5102,-3.5233,-3.5867,-3.7068,-3.6894,-3.7396,-3.8641,-3.8953,-4.1456,-4.6073,-4.8502,-5.1918,-5.5972,-5.6266,-5.5573,-5.427,-5.2723,-5.1964,-5.2062,-5.4315,-5.5816,-5.679,-5.8491,-5.9274,-5.9441,-5.9034,-5.9254,-6.0106,-6.2727,-6.4088,0.0,0.0,0.0,-7.1159,-7.337,-7.7037,-8.0871,-8.2761,-8.7263,-9.173,-9.3044,-9.5371,-9.7365,-9.7365,-9.8283,-9.9651,-10.1408,-10.1415,-10.1294,-10.1817,-10.2514,-10.3087,-10.3202,-10.3202,-10.3699,-10.5189,-10.6422,-10.7404,-10.8209,-11.0699,-11.2022,-11.1214,-11.2714,-11.3599,-11.3483,-11.3599,-11.3714,-11.3714,-11.3714,-11.3811,-11.4193,-11.4999,-11.5813,-11.6512,-11.732,-11.7895,-11.8302,-11.8318,-11.8788,-11.9609,-11.9687,-12.0703,-12.2187,-12.2187,-12.2695,-12.3515,-12.3515,-12.3515,-12.3515,-12.3515,-12.3984,-12.4687,-12.3984,-12.4687,-12.5781,0.0,0.0,0.0,0.0,0.0,0.0,0.0,0.0,0.0,0.0,0.0,-2.4057,-2.4499,-2.6074,-2.7586,-2.8978,-3.0669,-3.2353,-3.3942,-3.4292,-3.4622,-3.4818,-3.5343,-3.5932,-3.6566,-3.6915,-3.7658,-3.8838,-3.9365,-4.2028,-4.6745,-4.9125,-5.2097,-5.5525,-5.6036,-5.6007,-5.5437,-5.4297,-5.3836,-5.4106,-5.6908,-5.823,-5.8889,-6.1414,-6.2456,-6.2504,-6.1838,-6.2098,-6.2964,-6.5286,-6.6699,-6.7714,-6.9946,0.0,0.0,0.0,-7.6911,-8.0282,-8.3906,-8.8101,-9.1675,-9.2973,-9.5118,-9.7163,-9.7793,-9.914,-10.0671,-10.2159,-10.2817,-10.3171,-10.3317,-10.3584,-10.4195,-10.5112,-10.5303,-10.5734,-10.7006,-10.8921,-11.0326,-11.0679,-11.3203,-11.4484,-11.3714,-11.4291,-11.4484,-11.3984,-11.3984,-11.3984,-11.3984,-11.3984,-11.4301,-11.4894,-11.5396,-11.612,-11.6991,-11.7488,-11.821,-11.9005,-11.8982,-11.9492,-12.0312,-11.9804,-12.0586,-12.2187,-12.2187,-12.2695,-12.3515,-12.3515,-12.3515,-12.3515,-12.3515,-12.3711,-12.3984,-12.3593,-12.3984,-12.4492,0.0,0.0,0.0,0.0,0.0,0.0,0.0,0.0,0.0,0.0,0.0,-2.4796,-2.5194,0.0,0.0,0.0,-3.1441,-3.2971,-3.4379,-3.4534,-3.4534,-3.4534,-3.5321,-3.5845,-3.5976,-3.6894,-3.7855,-3.8838,-3.969,-4.2418,-4.697,-4.9569,-5.2203,-5.4935,-5.6256,-5.6658,-5.6495,-5.5898,-5.5959,-5.6596,-5.9285,-6.0939,-6.2086,-6.4685,-6.5981,-6.6354,-6.5555,-6.5543,-6.6107,-6.8205,-6.9257,-7.0113,-7.2326,-7.4124,0.0,0.0,0.0,-8.02,-8.5311,-8.8688,-9.1237,-9.307,-9.5406,-9.7538,-9.8534,-10.0141,-10.1779,-10.3094,-10.3884,-10.4501,-10.4692,-10.4692,-10.5189,-10.6679,-10.6908,-10.7378,-10.8825,-11.0807,-11.2282,-11.3112,-11.4824,-11.5792,-11.5599,-11.5407,-11.5099,-11.4714,-11.4599,-11.4599,-11.4599,-11.4599,-11.4907,-11.5599,-11.5822,-11.6392,-11.7288,-11.7602,-11.8405,-11.9591,-11.9607,-12.0195,-12.1211,-12.0586,-12.1093,-12.25,-12.2304,-12.2695,-12.3515,-12.3515,-12.3515,-12.3515,-12.3515,-12.3515,-12.3515,-12.3515,-12.3515,-12.3515,0.0,0.0,0.0,0.0,0.0,0.0,0.0,0.0,0.0,0.0,0.0,-2.5194,-2.5792,-2.7254,-2.8993,-3.089,-3.1981,-3.3104,-3.4379,-3.4534,-3.4534,-3.4534,-3.4993,0.0,-3.5954,-3.6894,-3.7855,-3.8838,-4.0084,-4.2385,-4.5642,-4.9177,-5.2361,-5.4877,-5.7037,-5.7662,-5.7092,-5.6495,-5.7284,-5.9104,-6.0451,-6.312,-6.6398,-6.7972,-6.9609,-7.1048,-7.055,-6.9967,-6.9727,-7.1945,-7.2379,-7.239,-7.4757,-7.6147,-7.7062,0.0,0.0,0.0,-8.5752,-8.8382,-9.0552,-9.3856,-9.7093,-9.9706,-10.0285,-10.1578,-10.3108,-10.4706,-10.4685,-10.4692,-10.5495,-10.5609,-10.5915,-10.6794,-10.6908,-10.7799,-11.0433,-11.0989,-11.2091,-11.4687,-11.4471,-11.4714,-11.6292,-11.5676,-11.5599,-11.6292,-11.6407,-11.6407,-11.6407,-11.6407,-11.6407,-11.6407,-11.6529,-11.6589,-11.7011,-11.7481,-11.8391,-11.9591,-11.9602,-12.0506,-12.2109,-12.2109,-12.2617,-12.3398,-12.2617,-12.2695,-12.3515,-12.3515,-12.3515,-12.3515,-12.3515,-12.3515,-12.3515,-12.3515,-12.3515,-12.3515,0.0,0.0,0.0,0.0,0.0,0.0,0.0,0.0,0.0,0.0,0.0,0.0,0.0,-2.8183,-2.9505,-3.1371,-3.2889,-3.4004,-3.4513,-3.4797,-3.4971,-3.4971,-3.5736,-3.6238,-3.6435,-3.7374,-3.8182,-3.8838,-4.0841,-4.3134,-4.5642,-5.0331,-5.3233,-5.4928,-5.7117,-5.8395,-5.8856,-5.7852,-5.8467,-6.0518,-6.3163,-6.5504,-6.7864,-7.1383,-7.3464,-7.4335,-7.4123,-7.3949,-7.3918,-7.5185,-7.5496,-7.5639,-7.674,-7.8049,-7.9042,-7.8981,-8.0518,-8.2745,-8.4744,-8.7217,-8.9935,-9.2528,-9.5715,-9.8517,-10.0037,-10.2032,-10.3883,-10.518,-10.5407,-10.5303,-10.5609,-10.6106,-10.6717,-10.7596,-10.8207,-10.906,-11.0798,-11.1459,-11.2291,-11.3395,-11.4286,-11.4907,-11.4907,-11.5599,-11.5715,-11.4984,-11.5407,-11.5676,-11.5676,-11.5676,-11.5984,-11.6484,-11.6484,-11.671,-11.7306,-11.8209,-11.9194,-12.0411,-12.0388,-12.1288,-12.3008,-12.25,-12.2695,-12.3515,-12.3203,-12.3203,-12.3515,-12.3515,-12.3515,-12.3515,-12.3515,-12.3515,-12.3515,-12.3515,-12.3515,-12.3515,0.0,0.0,0.0,0.0,0.0,0.0,0.0,0.0,-2.4643,-2.5694,0.0,0.0,0.0,0.0,-3.0619,-3.2316,-3.3827,-3.4753,-3.4753,-3.519,-3.5539,-3.5692,-3.6479,-3.7003,-3.7178,-3.8095,-3.875,-3.9078,-4.1429,-4.3571,-4.5388,-5.063,-5.3618,-5.4928,-5.7518,-5.9236,-6.0158,-5.9751,-6.1026,-6.3436,-6.6211,-6.8517,-7.0849,-7.4803,-7.6776,-7.7246,-7.7274,-7.7362,-7.7538,-7.8177,-7.8584,-7.8874,-7.9042,-7.9768,-8.0386,-8.0244,-8.1532,-8.3156,-8.4133,-8.6383,-8.902,-9.1764,-9.4827,-9.776,-10.008,-10.2393,-10.4372,-10.5472,-10.5724,-10.5724,-10.5724,-10.6603,-10.7481,-10.8093,-10.8895,-10.9798,-11.0884,-11.1583,-11.2099,-11.2594,-11.3483,-11.3984,-11.3984,-11.4714,-11.4907,-11.4099,-11.4484,-11.4984,-11.5291,-11.5291,-11.5676,-11.6484,-11.6484,-11.6789,-11.74,-11.8423,-11.9615,-12.0919,-12.1208,-12.2109,-12.3515,-12.289,-12.3008,-12.3515,-12.3515,-12.3515,-12.3515,-12.3515,-12.3515,-12.3515,-12.3515,-12.3515,-12.3515,-12.3515,-12.3515,-12.3515,0.0,0.0,0.0,0.0,0.0,0.0,-2.4893,-2.5308,-2.5777,-2.6508,0.0,0.0,0.0,0.0,0.0,-3.3526,-3.4662,-3.5255,-3.5255,-3.5714,-3.6216,-3.6719,-3.7298,-3.7758,-3.8117,-3.9182,-3.9686,-3.9708,-4.1949,-4.3602,-4.4902,-5.0131,-5.3417,-5.5091,-5.8399,-6.0267,-6.0864,-6.2004,-6.4471,-6.787,-6.9312,-7.2103,-7.5802,-7.8268,-7.9468,-7.9757,-8.0142,-8.0238,-8.0238,-8.0681,-8.1294,-8.1909,-8.1767,-8.1318,-8.0961,-8.0961,-8.1603,-8.2611,0.0,0.0,0.0,-9.165,-9.4705,-9.7576,-10.0569,-10.278,-10.4477,-10.5498,-10.5724,-10.5724,-10.58,-10.7099,-10.8207,-10.8207,-10.8895,-10.9798,-11.0884,-11.1085,-11.1485,-11.2478,-11.2022,-11.2214,-11.3791,-11.3214,-11.3099,-11.3907,-11.3907,-11.4291,-11.5215,-11.5291,-11.5676,-11.6484,-11.6484,-11.6789,-11.7373,-11.8295,-11.9396,-12.0919,-12.1789,-12.2694,-12.3515,-12.3515,-12.3515,-12.3515,-12.3515,-12.3515,-12.3515,-12.3515,-12.3515,-12.3515,-12.3515,-12.3515,-12.3515,-12.3515,-12.3398,-12.3398,0.0,0.0,0.0,0.0,0.0,-2.437,-2.5341,-2.5575,-2.6201,0.0,0.0,0.0,-2.965,-3.1377,-3.2747,-3.3659,-3.4893,-3.5798,-3.6304,-3.7192,-3.7918,-3.8408,-3.9386,-3.9969,-4.0105,-4.074,-4.1239,-4.1602,-4.3507,-4.4921,-4.6107,-5.1264,-5.4055,-5.5143,-5.9227,-6.1217,-6.1379,-6.1298,-6.289,-6.5553,-6.9614,-7.262,-7.5138,-8.0212,-8.2629,-8.3337,-8.3739,-8.3556,-8.3281,-8.3639,-8.3498,-8.3232,-8.3731,-8.3311,-8.2471,-8.1909,-8.2771,-8.3825,-8.3753,0.0,0.0,0.0,0.0,0.0,-9.7532,-10.0569,-10.3466,-10.5011,-10.5306,-10.5777,-10.7202,-10.7902,-10.841,-10.9121,-10.9924,-11.0586,-11.0961,-11.1216,-11.1384,-11.1786,-11.2099,-11.2291,-11.2214,-11.3099,-11.3214,-11.2291,-11.2714,-11.3407,-11.4291,-11.5484,-11.6292,-11.6484,-11.6484,-11.6707,-11.7075,-11.8204,-11.9299,-12.0599,-12.1704,-12.2695,-12.3515,-12.3515,-12.3515,-12.3515,-12.3515,-12.3515,-12.3515,-12.3515,-12.3515,-12.3515,-12.3515,-12.3086,-12.2617,-12.2617,-12.2187,-12.1601,0.0,0.0,-2.2482,-2.4558,-2.5407,-2.6003,-2.6985,-2.7407,-2.8182,0.0,0.0,0.0,-3.1396,-3.2916,-3.4037,-3.4759,-3.5663,-3.6745,-3.7956,-3.8685,-3.9431,-4.0173,-4.0838,-4.1214,-4.142,-4.1926,-4.2339,-4.2742,-4.4641,-4.6059,-4.7208,-5.1657,-5.4402,-5.5689,-5.9583,-6.1678,-6.2356,-6.2275,-6.3994,-6.6959,-7.1708,-7.4809,-7.6951,-8.1969,-8.43,-8.495,-8.5506,-8.5673,-8.5587,-8.5656,-8.531,-8.5023,-8.5652,-8.5342,-8.4578,-8.4156,-8.458,-8.5144,-8.4884,-8.6352,-8.8136,-8.8945,0.0,0.0,-9.718,-9.9984,-10.2824,-10.5011,-10.5396,-10.5867,-10.7393,-10.7978,-10.8525,-10.9437,-11.0405,-11.1037,-11.117,-11.13,-11.1314,-11.1522,-11.1906,-11.2022,-11.1522,-11.2406,-11.2599,-11.1598,-11.1906,-11.2714,-11.3907,-11.5599,-11.6484,-11.6484,-11.6484,-11.6701,-11.7014,-11.7986,-11.9014,-11.9782,-12.131,-12.2294,-12.2802,-12.3319,-12.3515,-12.3515,-12.3515,-12.3515,-12.3515,-12.3515,-12.3515,-12.3515,-12.3086,-12.2617,-12.2187,-12.1797,-12.1289,-12.0898,0.0,0.0,-2.407,-2.6025,-2.7295,-2.8341,-2.9367,-3.0075,-3.0763,0.0,-3.1726,-3.2239,-3.3431,-3.4684,-3.5684,-3.6316,-3.6971,-3.8018,-3.9877,-4.0208,-4.0785,-4.1913,-4.2131,-4.2339,-4.2708,-4.3263,-4.3517,-4.347,-4.5615,-4.717,-4.8279,-5.1772,-5.4541,-5.6686,-5.9505,-6.1814,-6.3469,-6.412,-6.6647,-7.0642,-7.4688,-7.7644,-8.0296,-8.3881,-8.5347,-8.5673,-8.6484,-8.7222,-8.7601,-8.6927,-8.6914,-8.719,-8.7477,-8.7392,-8.7153,-8.6825,-8.6592,-8.6505,-8.6795,-8.7228,-8.796,-8.9886,-9.1632,0.0,-9.7806,-10.0113,-10.2107,-10.4797,-10.5331,-10.5674,-10.6603,-10.7405,-10.8219,-10.9131,-11.007,-11.0901,-11.1307,-11.1269,-11.139,-11.1522,-11.1522,-11.1522,-11.1522,-11.1522,-11.1522,-11.1522,-11.1714,-11.2406,-11.3907,-11.5599,-11.6484,-11.6484,-11.6484,-11.6624,-11.6902,-11.7884,-11.8481,-11.8897,-12.0796,-12.1713,-12.1809,-12.2802,-12.3281,-12.3203,-12.3281,-12.3398,-12.3281,-12.3281,-12.3281,-12.3281,-12.25,-12.2109,-12.1797,-12.1015,-12.0703,-12.0586,-2.1825,-2.3359,-2.5098,-2.7246,-2.8147,-2.9244,-3.0962,-3.1283,-3.1783,-3.3112,-3.3908,-3.4642,-3.5522,-3.5833,-3.6286,-3.6874,-3.7887,-3.9213,-4.0731,-4.1786,-4.2972,-4.4255,-4.5219,-4.5548,-4.5238,-4.6144,-4.6431,-4.6001,-4.7303,-4.8204,-4.9068,-5.2826,-5.5323,-5.6737,-6.0007,-6.2193,-6.3496,-6.4554,-6.8277,-7.3686,-7.5977,-7.8794,-8.201,-8.6415,-8.8944,-9.0144,-8.9877,-8.9782,-8.9671,-8.8423,-8.9211,-9.0467,-8.8863,-8.9536,-9.043,-8.7539,-8.7367,-8.7887,-8.708,-8.7228,-8.7672,-8.8432,-9.0364,0.0,-9.4293,-9.7117,-10.0076,-10.2507,-10.3132,-10.3833,-10.5598,-10.6106,-10.6308,-10.6605,-10.8001,-10.9597,-11.1115,-11.1396,-11.1478,-11.1522,-11.1522,-11.1522,-11.1522,-11.1522,-11.1522,-11.1522,-11.2714,-11.3714,-11.3984,-11.5599,-11.6484,-11.6484,-11.6484,-11.649,-11.6577,-11.7785,-11.8431,-11.8491,-11.9902,-12.0693,-12.0912,-12.1787,-12.1895,-12.1406,-12.2109,-12.25,-12.2383,-12.1718,-12.1797,-12.2383,-12.2304,-12.1289,-12.0117,-11.9883,-11.9414,-11.8789,-2.2632,-2.4605,-2.6759,-2.8395,-2.9936,-3.1375,-3.2843,-3.339,-3.3961,-3.521,-3.6017,-3.696,-3.7972,-3.8614,-3.9766,-4.1555,-4.2167,-4.3098,-4.4841,-4.5114,-4.5497,-4.618,-4.6837,-4.6968,-4.6704,-4.7497,-4.7642,-4.7112,-4.8435,-4.9728,-5.122,-5.3385,-5.6634,-6.0676,-6.1291,-6.3401,-6.6258,-6.644,-6.9727,-7.5042,-7.7064,-8.0513,-8.4789,-8.7936,-9.0207,-9.152,-9.1172,-9.0825,-9.0367,-9.0042,-9.0547,-9.1355,-9.1421,-9.2336,-9.2945,-9.073,-9.0351,-9.0281,-8.9502,-8.9135,-8.9223,-9.0348,-9.1523,0.0,0.0,-9.7196,-9.9581,-10.1598,-10.2509,-10.3514,-10.5369,-10.5724,-10.6002,-10.7026,-10.8269,-10.9405,-10.9911,-11.0512,-11.0906,-11.0906,-11.1214,-11.1291,-11.0906,-11.1214,-11.1522,-11.1522,-11.3099,-11.3984,-11.3984,-11.5599,-11.6484,-11.6484,-11.6484,-11.6484,-11.6484,-11.7214,-11.7594,-11.7594,-11.8903,-11.9609,-11.9686,-12.0704,-12.1,-12.0802,-12.1192,-12.1516,-12.1484,-12.1093,-12.0898,-12.0898,-12.0898,-12.039,-11.9492,-11.9101,-11.8711,-11.8281,-2.3833,-2.6145,-2.8444,-2.9749,-3.1652,-3.35,-3.4662,-3.541,-3.6256,-3.7081,-3.8309,-3.9355,-4.0356,-4.1993,-4.3746,-4.6236,-4.655,-4.7306,-4.9166,-4.8427,-4.8096,-4.8724,-4.8339,-4.8171,-4.8267,-4.8676,-4.8603,-4.7954,-4.9541,-5.1215,-5.2869,-5.3938,-5.7598,-6.3406,-6.2774,-6.4889,-6.8792,-6.8542,-7.1586,-7.6709,-7.8301,-8.2177,-8.7011,-8.8961,-9.0667,-9.1804,-9.2089,-9.1804,-9.146,-9.2079,-9.2218,-9.2601,-9.4223,-9.5245,-9.5535,-9.4233,-9.3531,-9.2955,-9.226,-9.1354,-9.103,-9.2796,-9.3117,-9.3579,0.0,0.0,0.0,-10.0894,-10.1962,-10.3116,-10.4501,-10.4921,-10.5428,-10.671,-10.8001,-10.8516,-10.7519,-10.858,-10.9594,-11.0094,-11.1021,-11.1214,-11.0291,-11.0791,-11.1214,-11.1214,-11.2791,-11.3791,-11.3984,-11.5407,-11.6292,-11.6484,-11.6484,-11.6484,-11.649,-11.6704,-11.6786,-11.6903,-11.791,-11.8393,-11.8515,-11.951,-11.9994,-12.0092,-12.0209,-12.0381,-12.0583,-12.0388,-11.9999,-11.9609,-11.9609,-11.9492,-11.9297,-11.8593,-11.8281,-11.8281,-2.5495,-2.7659,-2.9596,-3.109,-3.3003,-3.468,-3.5758,-3.6751,-3.7521,-3.8328,-4.0877,-4.251,-4.2288,-4.4952,-4.6796,-4.6637,-4.8024,-4.9338,-5.0676,-5.0421,-5.1012,-5.2928,-5.1321,-5.0551,-5.1032,-5.1105,-5.0624,-4.9589,-5.1225,-5.1898,-5.175,-5.4845,-5.7203,-5.9253,-6.3849,-6.6377,-6.7365,-6.9714,-7.4249,-8.0106,-8.0254,-8.2819,-8.6713,-8.9743,-9.1512,-9.2658,-9.389,-9.4301,-9.4282,-9.4433,-9.5337,-9.6445,-9.6317,-9.7763,-9.8864,-9.557,-9.5075,-9.5206,-9.3968,-9.2603,-9.1853,-9.3627,-9.3551,-9.3389,-9.4906,0.0,-9.8084,-9.9027,0.0,-10.0708,-10.1092,0.0,0.0,-10.1597,-10.3611,-10.4699,-10.3065,-10.5119,-10.7466,-10.9771,-11.0897,-11.1214,-11.0291,-11.0291,-11.0291,-11.0291,-11.1906,-11.3214,-11.3984,-11.4907,-11.5792,-11.6484,-11.6484,-11.6567,-11.6697,-11.6823,-11.6903,-11.702,-11.7207,-11.7523,-11.7711,-11.8476,-11.8609,-11.8106,-11.8807,-11.9289,-11.9397,-11.8616,-11.881,-11.9609,-11.9609,-11.9101,-11.8398,-11.8281,-11.8281,-11.8316,-2.6244,-2.8276,-3.0309,-3.1943,-3.3678,-3.5193,-3.6751,-3.8401,-3.9667,-3.9997,-4.1546,-4.3611,-4.5624,-4.7856,-4.9955,-5.1878,-5.3125,-5.3867,-5.4023,-5.361,-5.3905,-5.476,-5.3317,-5.262,-5.2836,-5.2259,-5.1586,-5.0816,-5.1802,-5.2864,-5.4044,-5.5649,-5.9072,-6.3738,-6.5966,-6.8484,-7.1157,-7.1806,-7.5552,-8.0912,-8.0428,-8.3308,-8.8156,-9.0831,-9.27,-9.3953,-9.4933,-9.5028,-9.5001,-9.6785,-9.7459,-9.7731,-9.9362,-10.0454,-10.055,-9.7673,-9.7041,-9.6966,-9.5259,-9.435,-9.4146,-9.5466,-9.5225,-9.4891,-9.5804,-9.6803,-9.78,-9.8252,0.0,0.0,0.0,0.0,0.0,0.0,-10.3488,-10.4239,-10.3021,-10.4764,-10.6626,-10.7783,-10.8287,-10.8598,-10.8713,-10.8713,-10.9213,-11.0098,-11.1291,-11.2599,-11.3907,-11.4791,-11.5676,-11.6484,-11.6484,-11.6529,-11.6611,-11.6704,-11.6826,-11.6904,-11.7096,-11.7201,-11.7329,-11.7716,-11.7705,-11.7614,-11.8003,-11.8209,-11.8378,-11.8112,-11.8311,-11.8688,-11.8788,-11.8593,-11.8281,-11.8281,-11.828,-11.8316,-2.7964,-2.9733,-3.1475,-3.3124,-3.4612,-3.6072,-3.7668,-3.9612,-4.0932,-4.1042,-4.2303,-4.4607,-4.8392,-5.0312,-5.2736,-5.6132,-5.6816,-5.7089,-5.6897,-5.6438,-5.6608,-5.709,-5.5566,-5.4904,-5.5337,-5.3894,-5.2884,-5.2355,-5.2884,-5.4059,-5.5903,-5.675,-6.0198,-6.5929,-6.7221,-6.9988,-7.376,-7.3997,-7.7212,-8.1991,-8.169,-8.4904,-9.0076,-9.1879,-9.3479,-9.4743,-9.5249,-9.5217,-9.5468,-9.8472,-9.9116,-9.9121,-10.2075,-10.293,-10.2273,-10.0166,-9.9534,-9.9183,-9.7511,-9.6924,-9.679,-9.7171,-9.667,-9.6054,-9.6219,-9.7154,-9.7941,-9.8001,-9.9531,0.0,0.0,0.0,-10.2285,-10.2476,0.0,-10.3428,-10.221,-10.3613,-10.52,-10.6169,-10.6595,-10.7021,-10.7598,-10.7713,-10.829,-10.9713,-11.0714,-11.1906,-11.3599,-11.4484,-11.5291,-11.6099,-11.6407,-11.649,-11.6573,-11.6704,-11.6826,-11.6904,-11.7096,-11.7207,-11.7207,-11.7207,-11.7308,-11.7375,-11.7375,-11.7492,-11.7683,-11.7787,-11.7884,-11.7983,-11.8189,-11.8318,-11.8281,-11.8281,-11.8319,-11.8313,-3.1254,-3.2648,-3.3607,-3.4774,-3.5981,-3.7319,-3.8933,-3.9923,-4.062,-4.1005,-4.3803,-4.6678,-4.9514,-5.2144,-5.4829,-5.7201,-5.7387,-5.7718,-5.8119,-5.8066,-5.9038,-6.1568,-5.8617,-5.7646,-5.9185,-5.6636,-5.5025,-5.4496,-5.5025,-5.5637,-5.6477,-5.807,-6.0016,-6.2126,-6.6957,-7.0445,-7.3093,-7.6186,-8.0221,-8.4521,-8.5133,-8.8253,-9.2531,-9.2594,-9.3479,-9.4712,-9.4712,-9.5122,-9.6104,-9.8637,-10.0118,-10.1275,-10.3773,-10.4822,-10.4801,-10.3221,-10.2799,-10.2487,-10.1362,-10.0386,-9.9384,-9.8411,-9.7404,-9.6376,-9.5616,-9.7142,-9.8525,-9.8091,-10.0392,-10.2274,-10.1977,-10.2591,-10.2591,-10.0986,-10.1406,0.0,0.0,-10.008,-10.2385,-10.5815,-10.7091,-10.7713,-10.7713,-10.7713,-10.8021,-10.8906,-10.9713,-11.0983,-11.2714,-11.3599,-11.4407,-11.5291,-11.6099,-11.6616,-11.6825,-11.6786,-11.6905,-11.7207,-11.7207,-11.7207,-11.7207,-11.7207,-11.7207,-11.7169,-11.7169,-11.7329,-11.7504,-11.7504,-11.7703,-11.8014,-11.8014,-11.8102,-11.8281,-11.8281,-11.8318,-11.8302,-3.3037,-3.5192,-3.603,-3.4862,-3.5394,-3.6751,-3.8896,-4.1414,-4.3216,-4.4109,-4.6387,-4.9576,-5.3602,-5.5107,-5.702,-5.9731,-6.0,-5.9815,-5.9658,-5.9678,-6.0263,-6.1695,-6.0095,-5.9353,-5.9907,-5.7983,-5.6564,-5.5674,-5.5866,-5.6731,-5.8146,-5.9152,-6.1119,-6.4223,-6.7639,-7.1372,-7.4988,-7.6991,-8.1209,-8.6729,-8.8786,-9.0716,-9.2626,-9.2626,-9.3479,-9.4712,-9.4712,-9.5122,-9.6113,-9.9232,-10.0616,-10.1346,-10.3988,-10.5005,-10.4906,-10.3396,-10.2905,-10.2768,-10.2315,-10.224,-10.2223,-10.1533,-10.0665,-9.9696,-9.8788,-9.9026,-9.9316,-9.8799,-10.0711,-10.2395,-10.1936,-10.2601,-10.2782,-10.1597,-10.1215,-10.062,0.0,-9.9936,-10.1325,-10.3478,-10.4595,-10.4982,-10.4405,-10.5905,-10.7213,-10.8021,-10.9406,-11.0906,-11.2599,-11.3483,-11.4407,-11.5291,-11.6188,-11.6697,-11.6701,-11.6903,-11.702,-11.7097,-11.721,-11.7207,-11.7207,-11.7207,-11.7207,-11.7207,-11.7207,-11.7201,-11.7297,-11.7394,-11.7581,-11.7683,-11.7923,-11.7992,-11.8102,-11.8281,-11.8313,-11.8297,-3.4865,-3.6569,-3.7191,-3.5907,-3.6476,-3.7741,-3.9593,-4.2499,-4.4972,-4.584,-4.8413,-5.1872,-5.613,-5.7087,-5.8571,-6.1695,-6.1646,-6.1258,-6.073,-6.1256,-6.1806,-6.272,-6.1979,-6.1662,-6.1855,-6.0123,-5.8704,-5.7646,-5.7909,-5.8656,-5.9917,-6.0934,-6.3073,-6.5884,-6.7873,-7.1681,-7.6937,-7.7986,-8.208,-8.815,-9.0315,-9.1773,-9.2626,-9.2879,-9.3669,-9.4712,-9.4964,-9.5621,-9.6976,-10.0136,-10.1786,-10.315,-10.5403,-10.6553,-10.6591,-10.5292,-10.5011,-10.4877,-10.4402,-10.4543,-10.4607,-10.3615,-10.2955,-10.2132,-10.0887,-10.1001,-10.1111,-10.0593,-10.2127,-10.3597,-10.369,-10.368,-10.3401,0.0,0.0,0.0,0.0,-9.9479,-10.0212,-10.1481,-10.2481,-10.3212,-10.3905,-10.4905,-10.6405,-10.8406,-10.929,-11.0483,-11.2214,-11.3407,-11.4291,-11.4791,-11.6,-11.6701,-11.6663,-11.6904,-11.6982,-11.7097,-11.721,-11.7207,-11.7207,-11.7207,-11.7207,-11.7207,-11.7207,-11.7207,-11.7169,-11.729,-11.7404,-11.7492,-11.7826,-11.7906,-11.7999,-11.8203,-11.831,-11.8292,-3.6701,-3.7246,-3.7264,-3.8053,-3.9116,-4.0162,-4.1155,-4.3633,-4.5609,-4.6501,-5.003,-5.3698,-5.7486,-5.8291,-5.9905,-6.3195,-6.2712,-6.1972,-6.1511,-6.2687,-6.3778,-6.4319,-6.4268,-6.4476,-6.4957,-6.2961,-6.1374,-6.0243,-6.0965,-6.1416,-6.1659,-6.341,-6.5216,-6.7105,-6.762,-7.1821,-7.8627,-7.9278,-8.3021,-8.8676,-9.0066,-9.1457,-9.2752,-9.3448,-9.4174,-9.487,-9.5502,-9.6652,-9.8393,-10.134,-10.3765,-10.5904,-10.8015,-10.9224,-10.961,-10.8908,-10.8698,-10.8462,-10.762,-10.7205,-10.6624,-10.4826,-10.4189,-10.3584,-10.2026,-10.2895,-10.3799,-10.3316,-10.4519,-10.6019,-10.6936,-10.5812,-10.4381,0.0,0.0,0.0,-9.8734,-9.8672,-9.9096,-10.0096,-10.0904,0.0,0.0,0.0,-10.5597,-10.9598,-10.929,0.0,0.0,-11.3022,-11.3984,-11.3984,-11.5807,-11.6663,-11.6786,-11.6905,-11.7097,-11.7207,-11.7207,-11.7207,-11.7207,-11.7207,-11.7207,-11.7207,-11.7207,-11.7207,-11.7207,-11.7207,-11.7297,-11.7478,-11.7584,-11.7807,-11.8013,-11.8203,-11.8302,-11.8311,-3.7221,-3.8688,-3.9795,-4.0602,-4.051,-4.1009,-4.3291,-4.5621,-4.8003,-5.0806,-5.4087,-5.7289,-6.0045,-6.1419,-6.2777,-6.434,-6.3963,-6.3735,-6.3993,-6.432,-6.5001,-6.5917,-6.589,-6.5775,-6.551,-6.4211,-6.2817,-6.1374,-6.1727,-6.237,-6.3376,-6.3959,-6.5822,-6.8299,-6.8174,-7.2027,-7.8597,-7.9424,-8.3755,-9.0098,-9.152,-9.2594,-9.3479,-9.468,-9.5597,-9.626,-9.645,-9.7109,-9.8323,-10.1636,-10.3149,-10.4369,-10.7423,-10.8602,-10.8908,-10.8803,-10.8698,-10.8787,-10.9444,-10.9483,-10.9265,-10.8519,-10.8196,-10.7712,-10.6119,-10.659,-10.7031,-10.583,-10.6963,-10.7633,-10.5581,-10.5514,-10.5109,-10.3586,-10.1877,-10.0404,-9.95,-9.8439,-9.8827,-10.1597,-10.1597,0.0,0.0,0.0,0.0,0.0,0.0,0.0,-11.1406,-11.2522,-11.3291,-11.3984,-11.5815,-11.6784,-11.6786,-11.702,-11.721,-11.7207,-11.7207,-11.7207,-11.7207,-11.7207,-11.7207,-11.7207,-11.7207,-11.7207,-11.7207,-11.7207,-11.7201,-11.7302,-11.7516,-11.7677,-11.799,-11.8196,-11.8319,-11.8296,-3.8583,-4.0359,-4.1464,-4.2087,-4.3093,-4.4049,-4.5068,-4.7245,-4.978,-5.2848,-5.6615,-5.9613,-6.1671,-6.3617,-6.5246,-6.628,-6.6009,-6.6012,-6.606,-6.6298,-6.6607,-6.6964,-6.7009,-6.7073,-6.6761,-6.6183,-6.4981,-6.3153,-6.4381,-6.4905,-6.476,-6.6081,-6.7733,-6.952,-6.9494,-7.2528,-7.7971,-8.1382,-8.5978,-9.1077,-9.2183,-9.3195,0.0,-9.528,-9.6134,-9.6861,-9.7461,-9.8367,-9.9817,-10.2842,-10.443,-10.5676,-10.8555,-10.9559,-10.9681,-10.9681,-10.9681,-10.9843,-11.0691,-11.091,-11.0944,-11.0748,-11.0719,-11.0393,-10.9197,-10.898,-10.8822,-10.814,-10.8433,-10.8187,-10.7004,-10.6398,-10.55,-10.3604,-10.1927,-10.0672,-10.0224,-9.9201,-9.9095,-10.071,-10.0788,-10.0404,0.0,0.0,0.0,0.0,0.0,0.0,-11.0406,-11.1522,-11.2714,-11.3984,-11.5079,-11.6013,-11.6786,-11.6595,-11.6823,-11.7207,-11.7207,-11.7207,-11.7207,-11.7207,-11.7207,-11.7207,-11.7207,-11.7207,-11.7207,-11.7207,-11.7207,-11.7201,-11.7478,-11.7793,-11.8118,-11.818,-11.8296,-11.8287,-4.0395,-4.1922,-4.2601,-4.2894,-4.5735,-4.7741,-4.7223,-4.9072,-5.135,-5.4124,-5.8063,-6.1258,-6.2636,-6.5,-6.6886,-6.8035,-6.818,-6.8035,-6.7626,-6.8131,-6.8252,-6.7819,-6.8204,-6.8396,-6.8324,-6.8297,-6.7212,-6.5186,-6.7769,-6.8057,-6.6269,-6.8626,-7.0063,-7.0687,-7.0896,-7.3268,-7.763,-8.3929,-8.8556,-9.1646,-9.2436,-9.3511,-9.4775,-9.5533,-9.6229,-9.6955,-9.8375,-9.9777,-10.1627,-10.4367,-10.6461,-10.8049,-11.0313,-11.098,-11.098,-11.098,-11.098,-11.1039,-11.1509,-11.1731,-11.1768,-11.2157,-11.2312,-11.2203,-11.1407,-11.0791,-11.0308,-11.0355,-10.9511,-10.8838,-10.9274,-10.7611,-10.5502,-10.3724,-10.2219,-10.1292,-10.1206,-10.0722,-10.0128,-9.9396,-10.0209,0.0,0.0,0.0,0.0,0.0,0.0,0.0,0.0,-11.0214,-11.1906,-11.3907,-11.419,-11.5201,-11.6784,-11.621,-11.6285,-11.7171,-11.7207,-11.7207,-11.7207,-11.7207,-11.7207,-11.7207,-11.7207,-11.7207,-11.7207,-11.7207,-11.7207,-11.7196,-11.7605,-11.7809,-11.8081,-11.8214,-11.8287,-11.8287,-4.1185,-4.2986,-4.3683,-4.3426,-4.6253,-4.911,-5.059,-5.258,-5.4795,-5.7192,-5.9639,-6.1624,-6.3233,-6.5301,-6.6915,-6.8107,-6.8516,-6.8901,-6.9262,-6.9767,-7.0224,-7.056,-7.0248,-6.9863,-6.943,-6.9218,-6.8634,-6.7373,-6.8571,-6.918,-6.876,-6.9321,-7.028,-7.1284,-7.1089,-7.426,-8.0407,-8.4759,-8.8556,-9.1678,-9.2942,-9.3953,-9.4838,-9.6102,-9.6671,-9.7046,-9.8419,-9.9546,-10.0848,-10.4193,-10.5987,-10.7328,-11.0157,-11.098,-11.098,-11.098,-11.098,-11.1144,-11.2185,-11.2516,-11.2554,-11.2988,-11.3616,-11.3906,-11.3109,-11.329,-11.3426,-11.2244,-11.2023,-11.1356,-10.8982,-10.7279,-10.5619,-10.3903,-10.3765,-10.3814,-10.3293,-10.2931,-10.2769,-10.2876,0.0,-10.3975,0.0,0.0,0.0,0.0,0.0,0.0,0.0,0.0,-11.0098,-11.3907,-11.489,-11.582,-11.6701,-11.6904,-11.698,-11.702,-11.7094,-11.7207,-11.7207,-11.7207,-11.7207,-11.7207,-11.7207,-11.7207,-11.7207,-11.7207,-11.7204,-11.7297,-11.7605,-11.7806,-11.7913,-11.8185,-11.8287,-11.8287,-4.2542,-4.3701,-4.4526,-4.4966,-4.8228,-5.1359,-5.2832,-5.5679,-5.7975,-5.8977,-6.0708,-6.2525,-6.4128,-6.6289,-6.8251,-6.9671,-6.9983,-7.0464,-7.1258,-7.1546,-7.1811,-7.2051,-7.157,-7.1041,-7.0512,-7.1241,-7.0639,-6.8701,-7.0539,-7.1069,-6.9855,-7.0368,-7.0931,-7.1635,-7.3617,-7.6863,-8.1059,-8.5365,-8.89,-9.1709,-9.3068,-9.4238,-9.528,-9.5944,-9.6229,-9.6444,-9.7901,-9.9185,-10.0895,-10.4226,-10.6257,-10.7659,-11.0192,-11.098,-11.098,-11.098,-11.098,-11.1215,-11.2063,-11.251,-11.2805,-11.333,-11.3993,-11.4413,-11.4014,-11.3616,-11.3073,-11.2436,-11.1891,-11.1101,-10.9489,-10.7877,-10.6658,-10.6286,-10.5395,-10.4707,-10.4903,-10.4363,-10.4011,-10.3702,0.0,0.0,0.0,0.0,0.0,0.0,0.0,0.0,0.0,0.0,-10.9406,-11.3214,-11.35,-11.4391,-11.6087,-11.5901,-11.6206,-11.7096,-11.7171,-11.7207,-11.7207,-11.7207,-11.7207,-11.7207,-11.7207,-11.7207,-11.7207,-11.7207,-11.7278,-11.7399,-11.7585,-11.7794,-11.7905,-11.8185,-11.8287,-11.8287,-4.3995,-4.4581,-4.5388,-4.6434,-5.0009,-5.3084,-5.4154,-5.7817,-6.0441,-6.0048,-6.1874,-6.3638,-6.5161,-6.7546,-6.9644,-7.1306,-7.1522,-7.2003,-7.2917,-7.3086,-7.3158,-7.3158,-7.2677,-7.2349,-7.2193,-7.3181,-7.2776,-7.0714,-7.2878,-7.2812,-7.0804,-7.1365,-7.2096,-7.2986,-7.6223,-7.9413,-8.2347,-8.6188,-8.94,-9.2089,-9.3163,-9.4427,-9.5691,-9.5691,-9.5843,-9.6208,-9.7498,-9.9014,-10.0951,-10.4236,-10.6472,-10.8229,-11.0243,-11.098,-11.098,-11.098,-11.098,-11.1062,-11.1643,-11.2216,-11.2768,-11.3447,-11.4077,-11.4521,-11.4304,-11.329,-11.2312,-11.1914,-11.1068,-11.0353,-10.9996,-10.8948,-10.802,-10.8316,-10.6733,-10.5514,-10.5978,-10.5812,-10.5216,0.0,0.0,0.0,-10.3161,0.0,0.0,0.0,0.0,0.0,-10.7982,-10.7713,-10.9098,-11.2603,-11.2187,-11.3003,-11.5281,-11.4974,-11.5511,-11.69,-11.6898,-11.7014,-11.7207,-11.7207,-11.7207,-11.7207,-11.7207,-11.7207,-11.7207,-11.7207,-11.7313,-11.7384,-11.7603,-11.7806,-11.7999,-11.8185,-11.8404,-11.8599,-4.559,-4.6012,-4.647,-4.6965,-5.0707,-5.371,-5.3851,-5.788,-6.1031,-6.0987,-6.2724,-6.4699,-6.6309,-6.7837,-6.9784,-7.1883,-7.2388,-7.2917,-7.3543,-7.4024,-7.4288,-7.4288,-7.3783,-7.3842,-7.4863,-7.4708,-7.4794,-7.4984,-7.4835,-7.3992,-7.2178,-7.2315,-7.3919,-7.6901,-7.7391,-8.1108,-8.7032,-8.7501,-8.9931,-9.3416,-9.3542,-9.4427,-9.5691,-9.5691,-9.6144,-9.689,-9.7657,-9.8978,-10.0844,-10.3647,-10.6235,-10.8485,-11.0378,-11.098,-11.098,-11.098,-11.098,-11.1062,-11.1643,-11.2216,-11.2768,-11.3447,-11.4077,-11.4304,-11.3616,-11.329,-11.2819,-11.1298,-11.0669,-11.0353,-10.9996,-10.9913,-10.9338,-10.7941,-10.738,-10.6949,-10.6378,-10.7337,-10.7502,-10.6063,0.0,0.0,-10.4774,-10.2589,0.0,0.0,-10.2904,-10.2789,-10.529,-10.6097,-10.8485,-11.2688,-11.2887,-11.3391,-11.4394,-11.5281,-11.5818,-11.5784,-11.6011,-11.6395,-11.7207,-11.7207,-11.7207,-11.7207,-11.7207,-11.7207,-11.7207,-11.7207,-11.7313,-11.7384,-11.7603,-11.7806,-11.7999,-11.8185,-11.8795,-11.9419,-4.6837,-4.691,-4.7204,-4.8341,-5.1463,-5.4053,-5.4662,-5.8683,-6.1664,-6.197,-6.4191,-6.6116,-6.732,-6.9209,-7.1098,-7.2893,-7.3206,-7.3687,-7.4529,-7.5082,-7.5106,-7.4456,-7.424,-7.4507,-7.5211,-7.5558,-7.6013,-7.6558,-7.6257,-7.5544,-7.4486,-7.4773,-7.6448,-7.9472,-8.1547,-8.3909,-8.6507,-8.9503,-9.1523,-9.3068,-9.3922,-9.4838,-9.5691,-9.5691,-9.5843,-9.6263,-9.756,-9.8698,-10.0463,-10.4014,-10.595,-10.7071,-10.9524,-11.0313,-11.0383,-11.0874,-11.098,-11.0945,-11.1332,-11.195,-11.2839,-11.302,-11.3438,-11.3725,-11.3399,-11.2602,-11.1696,-11.1008,-11.0596,-11.0408,-11.0514,-11.0216,-10.99,-10.979,-10.8871,-10.834,-10.8517,-10.8963,-10.8882,-10.7846,0.0,-10.8703,0.0,-10.5103,-10.4095,-10.3597,-10.1712,-10.2404,-10.6405,-10.6521,-10.7867,-11.1221,-11.2386,-11.3198,-11.3507,-11.5087,-11.5895,-11.5781,-11.6398,-11.6898,-11.7207,-11.7207,-11.7207,-11.7207,-11.7207,-11.7207,-11.7207,-11.7201,-11.7302,-11.7422,-11.7602,-11.7793,-11.8109,-11.871,-11.9184,-11.9614,-4.7882,-4.7736,-4.7919,-4.9423,-5.2097,-5.4521,-5.5608,-5.9507,-6.2652,-6.3359,-6.5762,-6.7434,-6.8146,-7.0271,-7.2076,-7.3518,-7.3783,-7.4192,-7.4937,-7.5491,-7.537,-7.448,-7.4432,-7.5004,-7.6032,-7.6632,-7.7427,-7.8536,-7.8216,-7.7547,-7.6928,-7.7148,-7.9026,-8.2531,-8.4871,-8.67,-8.8167,-9.1407,-9.3037,-9.3321,-9.4301,-9.5091,-9.5691,-9.5691,-9.5843,-9.6294,-9.7818,-9.8971,-10.0331,-10.4319,-10.5569,-10.6121,-10.9195,-11.0207,-11.0313,-11.0804,-11.098,-11.0945,-11.1215,-11.1808,-11.2373,-11.259,-11.2794,-11.2892,-11.2602,-11.1696,-11.0863,-11.0707,-11.0545,-11.0517,-11.0827,-11.0567,-11.0487,-11.0817,-10.99,-10.9276,-10.9606,-10.9814,-10.9709,-10.9007,-10.9798,-10.9921,-10.8689,-10.7166,-10.5787,-10.452,-10.2904,-10.3405,-10.679,-10.679,-10.8101,-11.0875,-11.2078,-11.2812,-11.3082,-11.4505,-11.5312,-11.5505,-11.6085,-11.6704,-11.7207,-11.7207,-11.7207,-11.7207,-11.7207,-11.7207,-11.7207,-11.7313,-11.7297,-11.7392,-11.7614,-11.7787,-11.8101,-11.9097,-11.9595,-12.0083,-4.8744,-4.8561,-4.8671,-4.99,-5.3266,-5.589,-5.6131,-6.0247,-6.3843,-6.5353,-6.7485,-6.8743,-6.8743,-7.0815,-7.2484,-7.3543,-7.412,-7.4432,-7.4432,-7.4937,-7.4985,-7.4456,-7.4432,-7.556,-7.8171,-7.7609,-7.8588,-8.1269,-8.0948,-8.0267,-7.9224,-7.8821,-8.1609,-8.6607,-8.6607,-8.9237,-9.3542,-9.3574,-9.4016,-9.468,-9.468,-9.5091,-9.5691,-9.5691,-9.6144,-9.7102,-9.8512,-9.9675,-10.0737,-10.4392,-10.5569,-10.6224,-10.9789,-11.098,-11.098,-11.098,-11.098,-11.1062,-11.1573,-11.1719,-11.1696,-11.2334,-11.2309,-11.1914,-11.1117,-11.09,-11.0743,-11.0174,-11.0275,-11.0517,-11.0827,-11.097,-11.0891,-11.0083,-10.9973,-10.9679,-10.8909,-10.9407,-10.975,-10.9693,-10.9006,-10.9214,-11.0874,-10.8069,-10.6895,-10.8713,-10.729,-10.602,-10.5213,-10.679,-10.9296,-11.2928,-11.2195,-11.2309,-11.33,-11.3378,-11.3803,-11.4616,-11.4616,-11.5505,-11.7207,-11.7207,-11.7207,-11.7207,-11.7207,-11.7207,-11.7207,-11.7313,-11.7297,-11.7392,-11.7614,-11.7787,-11.8101,-11.9097,-11.9986,-12.0903,-4.9991,-5.0028,-5.0156,-5.0817,-5.3101,-5.5277,-5.6448,-5.9699,-6.2955,-6.5398,-6.7827,-6.9479,-7.033,-7.1743,-7.3013,-7.4096,-7.4336,-7.4432,-7.4432,-7.4937,-7.4649,-7.3374,-7.3687,-7.502,-7.7609,-7.7625,-7.8989,-8.1894,-8.1579,-8.1801,-8.2369,-8.3094,-8.5361,-8.8843,-9.0244,-9.1885,-9.3637,-9.4143,-9.449,-9.4743,-9.5186,-9.5502,-9.5691,-9.5691,-9.6144,-9.7038,-9.7964,-9.8926,-10.0046,-10.3681,-10.5159,-10.6087,-10.8602,-10.9786,-11.0313,-11.0804,-11.0594,-11.0395,-11.1467,-11.1328,-11.0946,-11.2118,-11.1804,-11.1189,-11.1008,-11.0501,-10.9958,-10.9873,-11.0109,-11.0388,-11.0481,-11.0917,-11.1111,-11.0891,-11.0817,-11.0707,-11.0487,-11.0637,-11.0812,-11.072,-11.0532,-11.0826,-11.1892,-10.9628,-10.8287,-10.8906,-10.679,-10.5905,-10.679,-10.7905,-10.9335,-11.1113,-11.2117,-11.2503,-11.2305,-11.3575,-11.4113,-11.3803,-11.4886,-11.6085,-11.7207,-11.7207,-11.7207,-11.7207,-11.7207,-11.7207,-11.7207,-11.7302,-11.7406,-11.7392,-11.7621,-11.778,-11.8218,-11.9607,-12.039,-12.0981,-5.0596,-5.0725,-5.089,-5.144,-5.3326,-5.5337,-5.717,-5.9861,-6.2968,-6.6099,-6.8284,-7.0149,-7.1595,-7.2414,-7.3086,-7.3759,-7.4024,-7.4048,-7.3831,-7.4336,-7.4096,-7.2869,-7.3745,-7.5158,-7.7522,-7.8104,-7.9666,-8.2192,-8.2683,-8.3884,-8.542,-8.6686,-8.8234,-9.0222,-9.2191,-9.3403,-9.4048,-9.4775,-9.5059,-9.5091,-9.5502,-9.5691,-9.5691,-9.5691,-9.6144,-9.7038,-9.8028,-9.8991,-10.0112,-10.3356,-10.4904,-10.6018,-10.7651,-10.8746,-10.9505,-10.9997,-10.9786,-10.9737,-11.0923,-11.0549,-11.0302,-11.1498,-11.1037,-11.0393,-11.0393,-11.0103,-10.9704,-10.9704,-11.0087,-11.0425,-11.0425,-11.0791,-11.1221,-11.1221,-11.1221,-11.1221,-11.1221,-11.1221,-11.1288,-11.1503,-11.1408,-11.1588,-11.2404,-11.0901,-11.0021,-11.0291,-10.8906,-10.8406,-10.9521,-10.8906,-10.9486,-11.1689,-11.231,-11.2504,-11.2384,-11.3227,-11.361,-11.3378,-11.4809,-11.5699,-11.6201,-11.6588,-11.6511,-11.6201,-11.6588,-11.6511,-11.6201,-11.6405,-11.6508,-11.65,-11.6685,-11.7,-11.7611,-11.898,-11.9917,-12.0512,-5.0688,-5.0798,-5.1092,-5.1843,-5.3566,-5.565,-5.7952,-6.0439,-6.3564,-6.7554,-6.8858,-7.031,-7.2594,-7.2821,-7.2821,-7.2821,-7.3326,-7.3422,-7.2893,-7.335,-7.3398,-7.2821,-7.4387,-7.5954,-7.7522,-7.9067,-8.0614,-8.2296,-8.4225,-8.601,-8.7784,-8.9289,-9.0265,-9.0859,-9.2995,-9.4243,-9.4806,-9.5439,-9.5691,-9.5691,-9.5691,-9.5691,-9.5691,-9.5691,-9.6263,-9.7102,-9.848,-9.961,-10.0737,-10.3128,-10.4658,-10.5755,-10.6717,-10.782,-10.8592,-10.8698,-10.8698,-10.8858,-11.0051,-10.9804,-10.9372,-11.0568,-11.0284,-10.9704,-10.9704,-10.9704,-10.9704,-10.9704,-11.0087,-11.0425,-11.0425,-11.0791,-11.1221,-11.1221,-11.1221,-11.1221,-11.1221,-11.1221,-11.1457,-11.2099,-11.1653,-11.1674,-11.232,-11.1883,-11.1906,-11.2599,-11.2599,-11.2599,-11.2599,-10.9598,-10.9794,-11.3885,-11.2619,-11.2195,-11.308,-11.2415,-11.2488,-11.33,-11.4113,-11.4499,-11.4616,-11.5389,-11.5389,-11.4616,-11.5505,-11.5312,-11.4577,-11.4817,-11.4918,-11.491,-11.5093,-11.5707,-11.6624,-11.7711,-11.861,-11.9491,-5.1147,-5.1678,-5.2155,-5.2357,-5.3137,-5.4711,-5.778,-5.9707,-6.2694,-6.7508,-6.9357,-7.0918,-7.257,-7.2821,-7.2821,-7.2821,-7.3326,-7.3591,-7.3446,-7.3567,-7.3398,-7.2821,-7.4387,-7.5954,-7.7522,-7.9067,-8.1123,-8.364,-8.4404,-8.525,-8.6477,-8.8859,-9.0335,-9.1019,-9.3934,-9.5293,-9.547,-9.5628,-9.5691,-9.5691,-9.5691,-9.5691,-9.5691,-9.5691,-9.6561,-9.7738,-9.8189,-9.9113,-10.0436,-10.1922,-10.3342,-10.483,-10.5144,-10.6529,-10.789,-10.8487,-10.8276,-10.8267,-10.9873,-10.9375,-10.8657,-11.046,-11.0284,-10.9704,-10.9704,-10.9704,-10.9704,-10.9704,-11.0087,-11.0425,-11.0425,-11.0791,-11.1221,-11.1221,-11.1221,-11.1221,-11.1221,-11.1221,-11.1509,-11.2204,-11.2277,-11.261,-11.3269,-11.281,-11.2214,-11.1791,-11.1214,-11.1098,-11.1714,-11.0406,-11.0371,-11.219,-11.1925,-11.1886,-11.2191,-11.2105,-11.2488,-11.33,-11.3494,-11.3997,-11.4616,-11.4809,-11.4809,-11.4616,-11.4809,-11.4809,-11.4577,-11.4817,-11.4918,-11.5026,-11.5792,-11.6291,-11.6702,-11.8285,-11.9117,-11.9491,-5.1612,-5.2229,-5.2577,-5.276,-5.2962,-5.396,-5.6737,-5.897,-6.2126,-6.6414,-6.9013,-7.1004,-7.2546,-7.2821,-7.2821,-7.2821,-7.3086,-7.3254,-7.3254,-7.3254,-7.3134,-7.2821,-7.4987,-7.6545,-7.7522,-7.9857,-8.2024,-8.4129,-8.4385,-8.5134,-8.6042,-8.9035,-9.0495,-9.1019,-9.4243,-9.5691,-9.5691,-9.5691,-9.5691,-9.5691,-9.5691,-9.5691,-9.5691,-9.6144,-9.7006,-9.7995,-9.8458,-9.9306,-10.0444,-10.0919,-10.2344,-10.402,-10.4105,-10.5362,-10.7012,-10.7504,-10.7293,-10.7274,-10.8876,-10.8697,-10.8439,-10.9954,-10.9994,-10.9704,-10.9704,-10.9704,-10.9704,-10.9704,-11.0087,-11.0425,-11.0425,-11.0791,-11.1221,-11.1221,-11.1221,-11.1221,-11.1221,-11.1221,-11.146,-11.238,-11.2253,-11.2411,-11.3194,-11.2717,-11.2222,-11.2137,-11.1598,-11.1522,-11.2022,-11.1598,-11.1603,-11.2107,-11.1885,-11.1809,-11.1885,-11.1993,-11.2295,-11.2797,-11.2797,-11.2991,-11.3494,-11.3803,-11.3803,-11.3494,-11.3803,-11.3799,-11.3485,-11.3693,-11.3707,-11.3892,-11.4782,-11.552,-11.5988,-11.7493,-11.8397,-11.8782,-5.2018,-5.2577,-5.2724,-5.3054,-5.3109,-5.3761,-5.5471,-5.8485,-6.181,-6.5018,-6.8466,-7.1089,-7.2629,-7.2773,-7.2821,-7.2821,-7.2821,-7.2821,-7.2821,-7.2821,-7.2821,-7.2821,-7.5757,-7.7522,-7.7522,-8.0722,-8.2959,-8.4024,-8.4388,-8.5161,-8.6204,-8.9155,-9.0746,-9.1186,-9.4272,-9.5533,-9.5533,-9.566,-9.5691,-9.5691,-9.5691,-9.5691,-9.5843,-9.6561,-9.73,-9.8139,-9.8884,-9.9618,-10.0308,-10.0308,-10.1551,-10.3063,-10.3348,-10.4573,-10.6083,-10.6345,-10.631,-10.65,-10.7702,-10.8088,-10.8538,-10.951,-10.9704,-10.9704,-10.9704,-10.9704,-10.9704,-10.9704,-11.0087,-11.0425,-11.0425,-11.0791,-11.1221,-11.1221,-11.1221,-11.1221,-11.1221,-11.1221,-11.146,-11.238,-11.1952,-11.1929,-11.2604,-11.2061,-11.2013,-11.2478,-11.2522,-11.2522,-11.2522,-11.2522,-11.2483,-11.2483,-11.2076,-11.1771,-11.1809,-11.2031,-11.2101,-11.2101,-11.2101,-11.2101,-11.2101,-11.2797,-11.272,-11.2101,-11.2797,-11.2827,-11.2196,-11.229,-11.2418,-11.2708,-11.3605,-11.4486,-11.5393,-11.6506,-11.7302,-11.7999,-5.2504,-5.2797,-5.3035,-5.3109,-5.3109,-5.3761,-5.5471,-5.8816,-6.2133,-6.4489,-6.8544,-7.1394,-7.2124,-7.2557,-7.2821,-7.2821,-7.2821,-7.2821,-7.2821,-7.2821,-7.2821,-7.2821,-7.5757,-7.7522,-7.7522,-8.1568,-8.3735,-8.362,-8.4585,-8.57,-8.6794,-8.8465,-9.0091,-9.1578,-9.3888,-9.487,-9.487,-9.5439,-9.5691,-9.5691,-9.5691,-9.5691,-9.5843,-9.6561,-9.73,-9.8139,-9.8884,-9.9618,-10.0308,-10.0308,-10.1086,-10.2204,-10.3029,-10.4055,-10.5202,-10.6118,-10.631,-10.65,-10.7702,-10.8741,-10.951,-10.9741,-10.9704,-10.9704,-10.9704,-10.9704,-10.9704,-10.9704,-11.0087,-11.0425,-11.0425,-11.0791,-11.1221,-11.1221,-11.1221,-11.1221,-11.1221,-11.1221,-11.1272,-11.1594,-11.1605,-11.1718,-11.1866,-11.1804,-11.1822,-11.1709,-11.1714,-11.1714,-11.1714,-11.1714,-11.1718,-11.1802,-11.1769,-11.1885,-11.2105,-11.2067,-11.2101,-11.2101,-11.2101,-11.2101,-11.2101,-11.2217,-11.2217,-11.2101,-11.2217,-11.229,-11.2196,-11.229,-11.2806,-11.3601,-11.4499,-11.5419,-11.6326,-11.7293,-11.7807,-11.7992,-5.2617,-5.2999,-5.3109,-5.3109,-5.3109,-5.3327,-5.4177,-5.8334,-6.1798,-6.3098,-6.7746,-7.1041,-7.157,-7.1835,-7.1979,-7.1979,-7.2244,-7.2292,-7.2003,-7.2508,-7.3203,-7.3986,-7.6071,-7.7868,-7.9815,-8.2008,-8.3213,-8.3677,-8.4206,-8.5164,-8.6437,-8.8564,-9.0309,-9.1916,-9.4259,-9.5217,-9.5249,-9.5565,-9.5691,-9.5691,-9.5691,-9.5691,-9.5843,-9.6561,-9.73,-9.8139,-9.8884,-9.9618,-10.0308,-10.0308,-10.0952,-10.1944,-10.2937,-10.3967,-10.4931,-10.5934,-10.6723,-10.7345,-10.795,-10.8806,-10.9704,-10.9704,-10.9704,-10.9704,-10.9704,-10.9704,-10.9704,-10.9704,-11.0087,-11.0425,-11.0425,-11.0791,-11.1221,-11.1221,-11.1221,-11.1221,-11.1221,-11.1221,-11.125,-11.1041,-11.0724,-11.0498,-11.0704,-11.0598,-11.071,-11.0874,-11.1314,-11.1522,-11.1522,-11.1522,-11.1606,-11.1692,-11.1809,-11.1882,-11.2101,-11.2101,-11.2101,-11.2101,-11.2101,-11.2101,-11.2101,-11.2101,-11.2101,-11.2101,-11.2097,-11.2196,-11.2298,-11.2815,-11.329,-11.3889,-11.5302,-11.6001,-11.6494,-11.7488,-11.791,-11.7992,-5.2673,-5.3109,-5.3109,-5.3109,-5.3109,-5.3109,-5.3109,-5.7891,-6.1548,-6.191,-6.7044,-7.0633,-7.1041,-7.121,-7.1282,-7.1282,-7.1643,-7.1715,-7.1306,-7.2003,-7.3243,-7.4814,-7.6149,-7.8484,-8.1771,-8.2207,-8.2764,-8.3787,-8.3997,-8.4947,-8.6709,-8.8783,-9.0618,-9.2252,-9.4448,-9.547,-9.547,-9.5628,-9.5691,-9.5691,-9.5691,-9.5691,-9.5843,-9.671,-9.7592,-9.8139,-9.9166,-9.9757,-10.0308,-10.0308,-10.0818,-10.1716,-10.2937,-10.381,-10.4693,-10.5899,-10.7054,-10.7984,-10.8264,-10.8907,-10.9704,-10.9704,-10.9704,-10.9704,-10.9704,-10.9704,-10.9668,-10.9801,-11.0145,-11.0388,-11.0517,-11.0917,-11.1221,-11.1221,-11.1221,-11.1221,-11.1221,-11.1221,-11.1103,-11.0867,-10.999,-10.9586,-10.9993,-10.9583,-10.9617,-11.041,-11.1008,-11.1275,-11.1522,-11.1522,-11.1568,-11.1809,-11.1884,-11.1993,-11.2101,-11.2101,-11.2101,-11.2101,-11.2101,-11.2101,-11.2101,-11.2101,-11.2101,-11.2101,-11.2202,-11.2383,-11.2708,-11.3417,-11.4006,-11.4486,-11.5885,-11.6506,-11.6805,-11.7503,-11.792,-11.7983,-5.3109,-5.3109,-5.3109,-5.3109,-5.3109,-5.3109,-5.3109,-5.7891,-6.1442,-6.1463,-6.6837,-7.0488,-7.0536,-7.0969,-7.1282,-7.1282,-7.1306,-7.1306,-7.1282,-7.133,-7.2148,-7.35,-7.6504,-7.9376,-8.2213,-8.233,-8.2881,-8.399,-8.4126,-8.5642,-8.8638,-8.8886,-9.0652,-9.3489,-9.4427,-9.4775,-9.4806,-9.5439,-9.5691,-9.5691,-9.5691,-9.5691,-9.5843,-9.7414,-9.7995,-9.8139,-9.9724,-10.0341,-10.0308,-10.0308,-10.0275,-10.065,-10.2683,-10.3348,-10.381,-10.5668,-10.7054,-10.8088,-10.8676,-10.9313,-10.9704,-10.9704,-10.9704,-10.9704,-10.9704,-10.9704,-10.9837,-10.9992,-11.0202,-11.0517,-11.0663,-11.1007,-11.1221,-11.1221,-11.1221,-11.1221,-11.1221,-11.1221,-11.1397,-11.1837,-11.0396,-10.9772,-11.078,-10.9524,-10.9208,-11.0396,-11.0513,-11.0788,-11.1478,-11.1522,-11.1568,-11.1809,-11.1996,-11.2101,-11.2101,-11.2101,-11.2101,-11.2101,-11.2101,-11.2101,-11.2101,-11.2101,-11.2101,-11.2101,-11.2202,-11.2724,-11.3483,-11.3611,-11.4705,-11.6196,-11.6312,-11.6895,-11.7594,-11.7699,-11.78,-11.8014,-5.3109,-5.3109,-5.3109,-5.3109,-5.3109,-5.3109,-5.3109,-5.7891,-6.1421,-6.1421,-6.6339,-6.9983,-6.9983,-7.0176,-7.0296,-7.0296,-7.0584,-7.0633,-7.032,-7.1541,-7.2856,-7.4369,-7.7376,-7.9864,-8.1769,-8.174,-8.2682,-8.4707,-8.5475,-8.7074,-8.9432,-9.0676,-9.2442,-9.4301,-9.4996,-9.5312,-9.5344,-9.5565,-9.5691,-9.5691,-9.5691,-9.5691,-9.5843,-9.6858,-9.7592,-9.8139,-9.9166,-9.9896,-10.0308,-10.0308,-10.0308,-10.0514,-10.191,-10.2811,-10.3776,-10.6577,-10.7738,-10.8228,-10.9142,-10.9438,-10.9704,-10.9704,-10.9704,-10.9704,-10.9704,-10.9704,-10.9801,-10.9956,-11.0275,-11.0517,-11.0827,-11.097,-11.1221,-11.1221,-11.1221,-11.1221,-11.1221,-11.1272,-11.1312,-11.1135,-11.0146,-10.9581,-10.9678,-10.8991,-10.8822,-10.9332,-11.0128,-11.0601,-11.0913,-11.1363,-11.1732,-11.1885,-11.1993,-11.2101,-11.2101,-11.2101,-11.2101,-11.2101,-11.2101,-11.2101,-11.2101,-11.2101,-11.2101,-11.2101,-11.2809,-11.3298,-11.3707,-11.491,-11.578,-11.6506,-11.7011,-11.74,-11.7711,-11.7711,-11.7775,-11.791,-5.3146,-5.3109,-5.3109,-5.3109,-5.3109,-5.3109,-5.3109,-5.7891,-6.1421,-6.1421,-6.6179,-6.9695,-6.9695,-6.9695,-6.9695,-6.9695,-7.0031,-7.0079,-6.9719,-7.1921,-7.3812,-7.529,-7.7892,-7.9905,-8.1403,-8.1572,-8.2739,-8.5084,-8.6526,-8.8215,-9.0131,-9.2039,-9.365,-9.5028,-9.547,-9.5691,-9.5691,-9.5691,-9.5691,-9.5691,-9.5691,-9.5691,-9.5843,-9.6858,-9.7592,-9.8139,-9.9166,-9.9896,-10.0308,-10.0308,-10.0308,-10.0547,-10.1847,-10.3223,-10.4743,-10.7345,-10.8019,-10.8157,-10.9376,-10.9704,-10.9704,-10.9704,-10.9704,-10.9704,-10.9704,-10.9837,-10.9897,-11.0145,-11.0369,-11.0609,-11.0917,-11.1133,-11.1221,-11.1221,-11.1221,-11.1221,-11.1221,-11.1176,-11.0993,-11.0618,-10.9784,-10.921,-10.8925,-10.852,-10.8424,-10.8592,-10.9596,-11.0396,-11.0826,-11.141,-11.1809,-11.1923,-11.2302,-11.2488,-11.2488,-11.2217,-11.2101,-11.2101,-11.2411,-11.2488,-11.2488,-11.2797,-11.2914,-11.2914,-11.3622,-11.4073,-11.4522,-11.5803,-11.6479,-11.6895,-11.7516,-11.7711,-11.7711,-11.7711,-11.7691,-11.7794,-5.3219,-5.3109,-5.3109,-5.3109,-5.3109,-5.3109,-5.3109,-5.7891,-6.1421,-6.1421,-6.6179,-6.9695,-6.9695,-6.9695,-6.9695,-6.9695,-6.9695,-6.9695,-6.9695,-7.2501,-7.4933,-7.64,-7.787,-7.9466,-8.1403,-8.1965,-8.3136,-8.5084,-8.7163,-8.9065,-9.1019,-9.2286,-9.39,-9.5691,-9.5691,-9.5691,-9.5691,-9.5691,-9.5691,-9.5691,-9.5691,-9.5691,-9.5843,-9.7414,-9.7995,-9.8139,-9.9724,-10.0308,-10.0308,-10.0308,-10.0308,-10.0716,-10.2717,-10.4728,-10.6535,-10.7702,-10.8019,-10.8264,-10.9376,-10.9704,-10.9704,-10.9704,-10.9704,-10.9704,-10.9704,-10.9897,-11.0218,-11.0369,-11.0572,-11.0917,-11.1258,-11.1221,-11.1221,-11.1221,-11.1221,-11.1221,-11.1221,-11.0698,-11.0403,-11.0618,-10.9378,-10.858,-10.8925,-10.8108,-10.7889,-10.8487,-10.9208,-11.009,-11.1401,-11.1691,-11.1809,-11.1809,-11.2807,-11.33,-11.33,-11.2488,-11.2101,-11.2101,-11.2914,-11.33,-11.33,-11.419,-11.4616,-11.4577,-11.4718,-11.5204,-11.6081,-11.6288,-11.689,-11.7711,-11.7711,-11.7711,-11.7711,-11.7711,-11.7691,-11.7794,-5.3219,-5.3109,-5.3109,-5.3109,-5.3109,-5.3109,-5.3109,-5.7891,-6.1421,-6.1421,-6.6179,-6.9695,-6.9695,-6.9695,-6.9695,-6.9695,-6.9695,-7.0615,-7.264,-7.4722,-7.64,-7.787,-7.8432,-7.9658,-8.1993,-8.2162,-8.3734,-8.6419,-8.8845,-9.0567,-9.1527,-9.3779,-9.5167,-9.5691,-9.5691,-9.5691,-9.5691,-9.5691,-9.5691,-9.5691,-9.5691,-9.5994,-9.6561,-9.756,-9.8282,-9.9025,-9.9896,-10.0308,-10.0308,-10.0308,-10.0308,-10.0716,-10.2717,-10.4021,-10.518,-10.7453,-10.8332,-10.8777,-10.9474,-10.9704,-10.9704,-10.9704,-10.9704,-10.9704,-10.9704,-10.9897,-11.0218,-11.0369,-11.0572,-11.0917,-11.1258,-11.1221,-11.1221,-11.1221,-11.1221,-11.1221,-11.1221,-11.1312,-11.1384,-11.1504,-11.0391,-10.9702,-10.9706,-10.8405,-10.7701,-10.7852,-10.8915,-11.0085,-11.1573,-11.231,-11.2696,-11.2805,-11.3691,-11.419,-11.419,-11.3997,-11.3919,-11.3919,-11.4113,-11.419,-11.419,-11.4499,-11.4616,-11.4577,-11.5299,-11.5824,-11.6197,-11.6909,-11.7394,-11.7711,-11.7711,-11.7711,-11.7711,-11.7711,-11.7686,-11.7707,-5.3219,-5.3109,-5.3109,-5.3109,-5.3109,-5.3327,-5.396,-5.8334,-6.1627,-6.2244,-6.6577,-6.9695,-6.9695,-6.9695,-6.9695,-6.9695,-7.0253,-7.1525,-7.3953,-7.5459,-7.7231,-7.8936,-7.8963,-7.9987,-8.2246,-8.2752,-8.459,-8.7791,-9.0128,-9.1758,-9.2667,-9.471,-9.5691,-9.5691,-9.5691,-9.5691,-9.5691,-9.5691,-9.5691,-9.5691,-9.5691,-9.6144,-9.7006,-9.7705,-9.8458,-9.9339,-10.0,-10.0308,-10.0308,-10.0308,-10.058,-10.122,-10.2811,-10.4021,-10.5145,-10.7453,-10.8435,-10.8979,-10.9644,-10.9704,-10.9704,-10.9704,-10.9704,-10.9704,-10.9704,-10.9992,-11.0312,-11.0425,-11.07,-11.1007,-11.1221,-11.1221,-11.1221,-11.1221,-11.1221,-11.1221,-11.1221,-11.1324,-11.1394,-11.1394,-11.0619,-11.0114,-11.0114,-10.9223,-10.8782,-10.929,-11.0127,-11.119,-11.2693,-11.3197,-11.3584,-11.3771,-11.458,-11.5118,-11.5118,-11.5505,-11.5312,-11.4616,-11.4886,-11.5118,-11.5118,-11.5505,-11.5583,-11.5699,-11.6233,-11.6495,-11.6701,-11.719,-11.7627,-11.7711,-11.7711,-11.7711,-11.7711,-11.7711,-11.7711,-11.7699,-5.3219,-5.3109,-5.3109,-5.3109,-5.3327,-5.3978,-5.5471,-5.8965,-6.2244,-6.3695,-6.7219,-6.9695,-6.9695,-6.9695,-6.9719,-6.9767,-7.1265,-7.298,-7.4268,-7.5983,-7.7524,-7.956,-7.9614,-8.0509,-8.2443,-8.3567,-8.5708,-8.8991,-9.0877,-9.2507,-9.3808,-9.505,-9.5691,-9.5691,-9.5691,-9.5691,-9.5691,-9.5691,-9.5691,-9.5691,-9.5691,-9.6294,-9.7006,-9.7705,-9.86,-9.9339,-10.0067,-10.0308,-10.0308,-10.0308,-10.0919,-10.1847,-10.2971,-10.4384,-10.5873,-10.7524,-10.8471,-10.9115,-10.9607,-10.9704,-10.9704,-10.9704,-10.9704,-10.9704,-10.9668,-11.0087,-11.0388,-11.0388,-11.0754,-11.1221,-11.1221,-11.1221,-11.1221,-11.1221,-11.1221,-11.1184,-11.1184,-11.0919,-11.0692,-11.0692,-11.0434,-11.0226,-11.0226,-11.0114,-11.0572,-11.1778,-11.2039,-11.2583,-11.4032,-11.4275,-11.4472,-11.4586,-11.5508,-11.6008,-11.6008,-11.682,-11.6395,-11.4809,-11.5583,-11.6008,-11.6008,-11.682,-11.7207,-11.7207,-11.7207,-11.7313,-11.7399,-11.7399,-11.7491,-11.7711,-11.7711,-11.7711,-11.7711,-11.7711,-11.7711,-11.7699,-5.3219,-5.3109,-5.3109,-5.3109,-5.4177,-5.5256,-5.5686,-6.0011,-6.3491,-6.392,-6.7219,-6.9695,-6.9695,-6.9695,-6.9863,-7.0272,-7.3118,-7.5636,-7.7189,-7.8693,-7.9713,-8.0211,-8.0672,-8.1798,-8.3735,-8.4016,-8.5908,-8.9674,-9.1118,-9.2507,-9.3808,-9.505,-9.5691,-9.5691,-9.5691,-9.5691,-9.5691,-9.5691,-9.5691,-9.5691,-9.5691,-9.6561,-9.7705,-9.7995,-9.8884,-10.0034,-10.0138,-10.0308,-10.0308,-10.0308,-10.0411,-10.0919,-10.2649,-10.4229,-10.5504,-10.7346,-10.8741,-10.9644,-10.9704,-10.9704,-10.9704,-10.9704,-10.9704,-10.9837,-11.0028,-11.0239,-11.0554,-11.0736,-11.1007,-11.1221,-11.1221,-11.1221,-11.1221,-11.1221,-11.1221,-11.1309,-11.141,-11.152,-11.1699,-11.179,-11.1404,-11.1006,-11.1006,-11.0523,-11.0386,-11.1171,-11.1689,-11.2395,-11.3395,-11.469,-11.5399,-11.5586,-11.6511,-11.6898,-11.6898,-11.7091,-11.7014,-11.6588,-11.682,-11.6898,-11.6898,-11.7091,-11.7207,-11.7207,-11.7207,-11.7201,-11.7302,-11.7406,-11.75,-11.7588,-11.7683,-11.7711,-11.7711,-11.7711,-11.7711,-11.7699,-5.3164,-5.3109,-5.3109,-5.3109,-5.4609,-5.5959,-5.6992,-6.0574,-6.3623,-6.5312,-6.7614,-6.9467,-7.0079,-7.0296,-7.093,-7.1981,-7.4314,-7.6564,-7.8115,-7.9645,-8.0537,-8.0835,-8.1134,-8.232,-8.4578,-8.5231,-8.7263,-9.0879,-9.1505,-9.2796,-9.4742,-9.5387,-9.5691,-9.5691,-9.5691,-9.5691,-9.5691,-9.5691,-9.5691,-9.5691,-9.5691,-9.6561,-9.7995,-9.7995,-9.8993,-10.0308,-10.0308,-10.0308,-10.0308,-10.0308,-10.0308,-10.0683,-10.3029,-10.4246,-10.5539,-10.7737,-10.9043,-10.9704,-10.9704,-10.9704,-10.9704,-10.9704,-10.9704,-10.9837,-10.9992,-11.0312,-11.0517,-11.0663,-11.1007,-11.1221,-11.1221,-11.1221,-11.1221,-11.1221,-11.1221,-11.1309,-11.1533,-11.1668,-11.1995,-11.2206,-11.196,-11.1897,-11.1897,-11.1526,-11.1465,-11.2089,-11.2797,-11.3593,-11.441,-11.5572,-11.6287,-11.6511,-11.7014,-11.7207,-11.7207,-11.7207,-11.7207,-11.7207,-11.7207,-11.7207,-11.7207,-11.7207,-11.7207,-11.7207,-11.7207,-11.7201,-11.7269,-11.7406,-11.7422,-11.7482,-11.7606,-11.7711,-11.7711,-11.7711,-11.7711,-11.7699,-5.3109,-5.3109,-5.3127,-5.3637,-5.5136,-5.6992,-5.9101,-6.1369,-6.3975,-6.6915,-6.8396,-6.9419,-7.0609,-7.1264,-7.237,-7.4085,-7.5679,-7.7252,-7.8804,-7.9967,-8.0944,-8.1432,-8.1459,-8.2594,-8.5056,-8.6362,-8.8553,-9.1831,-9.1993,-9.3431,-9.5691,-9.5691,-9.5691,-9.5691,-9.5691,-9.5691,-9.5691,-9.5691,-9.5691,-9.5691,-9.5843,-9.671,-9.7995,-9.8139,-9.9025,-10.0308,-10.0308,-10.0308,-10.0308,-10.0308,-10.0411,-10.0919,-10.346,-10.4723,-10.5698,-10.8192,-10.9313,-10.9704,-10.9704,-10.9704,-10.9704,-10.9704,-10.9704,-10.9801,-11.0123,-11.0275,-11.0517,-11.0791,-11.097,-11.1221,-11.1221,-11.1221,-11.1221,-11.1221,-11.1221,-11.1309,-11.1497,-11.1826,-11.1958,-11.2169,-11.2449,-11.2529,-11.2529,-11.2529,-11.2654,-11.326,-11.4128,-11.479,-11.5613,-11.6375,-11.6866,-11.7207,-11.7207,-11.7207,-11.7207,-11.7207,-11.7207,-11.7207,-11.7207,-11.7207,-11.7207,-11.7207,-11.7207,-11.7207,-11.7207,-11.7201,-11.7269,-11.7406,-11.7422,-11.7482,-11.7606,-11.7711,-11.7711,-11.7711,-11.7711,-11.7699,-5.3109,-5.3109,-5.3655,-5.5516,-5.7286,-5.9121,-6.1319,-6.4086,-6.6369,-6.769,-6.8909,-6.994,-7.1162,-7.2788,-7.4659,-7.6189,-7.8163,-7.9998,-8.155,-8.1762,-8.1975,-8.2056,-8.2083,-8.3006,-8.5056,-8.6362,-8.8553,-9.1831,-9.2986,-9.4277,-9.5691,-9.5691,-9.5691,-9.5691,-9.5691,-9.5691,-9.5691,-9.5691,-9.5691,-9.5843,-9.6444,-9.73,-9.8139,-9.8742,-9.9618,-10.0308,-10.0308,-10.0308,-10.0308,-10.0308,-10.0952,-10.191,-10.355,-10.5262,-10.6587,-10.8399,-10.9313,-10.9704,-10.9704,-10.9704,-10.9704,-10.9704,-10.9704,-10.9765,-11.0275,-11.0425,-11.0481,-11.097,-11.1221,-11.1221,-11.1221,-11.1221,-11.1221,-11.1221,-11.1221,-11.1434,-11.1826,-11.1911,-11.2004,-11.2412,-11.2529,-11.2529,-11.2529,-11.2529,-11.2455,-11.2613,-11.3753,-11.4725,-11.5022,-11.6193,-11.6866,-11.7207,-11.7207,-11.7207,-11.7207,-11.7207,-11.7207,-11.7207,-11.7207,-11.7207,-11.7207,-11.7207,-11.7207,-11.7207,-11.7207,-11.7201,-11.7269,-11.7406,-11.7422,-11.7482,-11.7606,-11.7711,-11.7711,-11.7711,-11.7711,-11.7711,-5.3696,-5.4277,-5.5033,-5.6552,-5.8814,-6.0816,-6.2419,-6.4222,-6.6062,-6.8193,-6.8832,-6.9852,-7.1514,-7.3525,-7.5799,-7.8319,-7.9318,-8.0614,-8.2192,-8.2192,-8.2192,-8.2192,-8.2192,-8.3088,-8.5056,-8.7004,-8.9369,-9.1831,-9.3145,-9.4651,-9.6292,-9.5881,-9.5913,-9.6292,-9.5849,-9.5691,-9.5691,-9.5691,-9.5691,-9.5843,-9.6593,-9.73,-9.8139,-9.8884,-9.9618,-10.0308,-10.0308,-10.0308,-10.0308,-10.0308,-10.0952,-10.2136,-10.397,-10.5539,-10.6877,-10.8806,-10.9474,-10.9704,-10.9704,-10.9704,-10.9704,-10.9704,-10.9704,-10.9765,-11.0332,-11.0425,-11.0645,-11.1133,-11.1221,-11.1221,-11.1221,-11.1221,-11.1221,-11.1221,-11.1272,-11.1533,-11.1753,-11.1958,-11.2206,-11.2449,-11.2529,-11.2529,-11.2529,-11.2529,-11.2529,-11.2529,-11.3406,-11.4211,-11.4887,-11.5828,-11.6505,-11.7207,-11.7207,-11.7207,-11.7207,-11.7207,-11.7207,-11.7207,-11.7207,-11.7207,-11.7207,-11.7207,-11.7207,-11.7207,-11.7207,-11.7201,-11.7269,-11.7406,-11.7422,-11.7482,-11.7606,-11.7711,-11.7711,-11.7711,-11.7711,-11.7711]},{"header":{"parameterUnit":"m.s-1","parameterCategory":1,"la1":30.6,"la2":28.766,"lo1":-90.7593,"lo2":-88.6598,"dx":0.0162,"dy":0.0183,"nx":116,"ny":114,"refTime":"2022-11-12T06:00:00:Z","depth":0,"parameterNumber":3,"parameterNumberName":"V-component_of_WINDS"},"data":[0.0,0.0,0.0,0.0,0.0,0.0,0.0,0.0,0.0,0.0,0.0,0.0,0.0,0.0,0.0,0.0,0.0,0.0,0.0,0.0,0.0,0.0,0.0,0.0,0.0,0.0,0.0,0.0,0.0,0.0,0.0,0.0,0.0,0.0,0.0,0.0,0.0,0.0,0.0,0.0,0.0,0.0,0.0,0.0,0.0,0.0,0.0,0.0,0.0,0.0,0.0,0.0,0.0,0.0,0.0,0.0,0.0,0.0,0.0,0.0,0.0,0.0,0.0,0.0,0.0,0.0,0.0,0.0,0.0,0.0,0.0,0.0,0.0,0.0,0.0,0.0,0.0,0.0,0.0,0.0,0.0,0.0,0.0,0.0,0.0,0.0,0.0,0.0,0.0,0.0,0.0,0.0,0.0,0.0,0.0,0.0,0.0,0.0,0.0,0.0,0.0,0.0,0.0,0.0,0.0,0.0,0.0,0.0,0.0,0.0,0.0,0.0,0.0,0.0,0.0,0.0,0.0,0.0,0.0,0.0,0.0,0.0,0.0,0.0,0.0,0.0,0.0,0.0,0.0,0.0,0.0,0.0,0.0,0.0,0.0,0.0,0.0,0.0,0.0,0.0,0.0,0.0,0.0,0.0,0.0,0.0,0.0,0.0,0.0,0.0,0.0,0.0,0.0,0.0,0.0,0.0,0.0,0.0,0.0,0.0,0.0,0.0,0.0,0.0,0.0,0.0,0.0,0.0,0.0,0.0,0.0,0.0,0.0,0.0,0.0,0.0,0.0,0.0,0.0,0.0,0.0,0.0,0.0,0.0,0.0,0.0,0.0,0.0,0.0,0.0,0.0,0.0,0.0,0.0,0.0,0.0,0.0,0.0,0.0,0.0,0.0,0.0,0.0,0.0,0.0,0.0,0.0,0.0,0.0,0.0,0.0,0.0,0.0,0.0,0.0,0.0,0.0,0.0,0.0,0.0,0.0,0.0,0.0,0.0,0.0,0.0,0.0,0.0,0.0,0.0,0.0,0.0,0.0,0.0,0.0,0.0,0.0,0.0,0.0,0.0,0.0,0.0,0.0,0.0,0.0,0.0,0.0,0.0,0.0,0.0,0.0,0.0,0.0,0.0,0.0,0.0,0.0,0.0,0.0,0.0,0.0,0.0,0.0,0.0,0.0,0.0,0.0,0.0,0.0,0.0,0.0,0.0,0.0,0.0,0.0,0.0,0.0,0.0,0.0,0.0,0.0,0.0,0.0,0.0,0.0,0.0,0.0,0.0,0.0,0.0,0.0,0.0,0.0,0.0,0.0,0.0,0.0,0.0,0.0,0.0,0.0,0.0,0.0,0.0,0.0,0.0,0.0,0.0,0.0,0.0,0.0,0.0,0.0,0.0,0.0,0.0,0.0,0.0,0.0,0.0,0.0,0.0,0.0,0.0,0.0,0.0,0.0,0.0,0.0,0.0,0.0,0.0,0.0,0.0,0.0,0.0,0.0,0.0,0.0,0.0,0.0,0.0,0.0,0.0,0.0,0.0,0.0,0.0,0.0,0.0,0.0,0.0,0.0,0.0,0.0,0.0,0.0,0.0,0.0,0.0,0.0,0.0,0.0,0.0,0.0,0.0,0.0,0.0,0.0,0.0,0.0,0.0,0.0,0.0,0.0,0.0,0.0,0.0,0.0,0.0,0.0,0.0,0.0,0.0,0.0,0.0,0.0,0.0,0.0,0.0,0.0,0.0,0.0,0.0,0.0,0.0,0.0,0.0,0.0,0.0,0.0,0.0,0.0,0.0,0.0,0.0,0.0,0.0,0.0,0.0,0.0,0.0,0.0,0.0,0.0,0.0,0.0,0.0,0.0,0.0,0.0,0.0,0.0,0.0,0.0,0.0,0.0,0.0,0.0,0.0,0.0,0.0,0.0,0.0,0.0,0.0,0.0,0.0,0.0,0.0,0.0,0.0,0.0,0.0,0.0,0.0,0.0,0.0,0.0,0.0,0.0,0.0,0.0,0.0,0.0,0.0,0.0,0.0,0.0,0.0,0.0,0.0,0.0,0.0,0.0,0.0,0.0,0.0,0.0,0.0,0.0,0.0,0.0,0.0,0.0,0.0,0.0,0.0,0.0,0.0,0.0,0.0,0.0,0.0,0.0,0.0,0.0,0.0,0.0,0.0,0.0,0.0,0.0,0.0,0.0,0.0,0.0,0.0,0.0,0.0,0.0,0.0,0.0,0.0,0.0,0.0,0.0,0.0,0.0,0.0,0.0,0.0,0.0,0.0,0.0,0.0,0.0,0.0,0.0,0.0,0.0,0.0,0.0,0.0,0.0,0.0,0.0,0.0,0.0,0.0,0.0,0.0,0.0,0.0,0.0,0.0,0.0,0.0,0.0,0.0,0.0,0.0,0.0,0.0,0.0,0.0,0.0,0.0,0.0,0.0,0.0,0.0,0.0,0.0,0.0,0.0,0.0,0.0,0.0,0.0,0.0,0.0,0.0,0.0,0.0,0.0,0.0,0.0,0.0,0.0,0.0,0.0,0.0,0.0,0.0,0.0,0.0,0.0,0.0,0.0,0.0,0.0,0.0,0.0,0.0,0.0,0.0,0.0,0.0,0.0,0.0,0.0,0.0,0.0,0.0,0.0,0.0,0.0,0.0,0.0,0.0,0.0,0.0,0.0,0.0,0.0,0.0,0.0,0.0,0.0,0.0,0.0,0.0,0.0,0.0,0.0,0.0,0.0,0.0,0.0,0.0,0.0,0.0,0.0,0.0,0.0,0.0,0.0,0.0,0.0,0.0,0.0,0.0,0.0,0.0,0.0,0.0,0.0,0.0,0.0,0.0,0.0,0.0,0.0,0.0,0.0,0.0,0.0,0.0,0.0,0.0,0.0,0.0,0.0,0.0,0.0,0.0,0.0,0.0,0.0,0.0,0.0,0.0,0.0,0.0,0.0,0.0,0.0,0.0,0.0,0.0,0.0,0.0,0.0,0.0,0.0,0.0,0.0,0.0,0.0,0.0,0.0,0.0,0.0,0.0,0.0,0.0,0.0,0.0,0.0,0.0,0.0,0.0,0.0,0.0,0.0,0.0,0.0,0.0,0.0,0.0,0.0,0.0,0.0,0.0,0.0,0.0,0.0,0.0,0.0,0.0,0.0,0.0,0.0,0.0,0.0,0.0,0.0,0.0,0.0,0.0,0.0,0.0,0.0,0.0,0.0,0.0,0.0,0.0,0.0,0.0,0.0,0.0,0.0,0.0,0.0,0.0,0.0,0.0,0.0,0.0,0.0,0.0,0.0,0.0,0.0,0.0,0.0,0.0,0.0,0.0,0.0,0.0,0.0,0.0,0.0,0.0,0.0,0.0,0.0,0.0,0.0,0.0,0.0,0.0,0.0,0.0,0.0,0.0,0.0,0.0,0.0,0.0,0.0,0.0,0.0,0.0,0.0,0.0,0.0,0.0,0.0,0.0,0.0,0.0,0.0,0.0,0.0,0.0,0.0,0.0,0.0,0.0,0.0,0.0,0.0,0.0,0.0,0.0,0.0,0.0,0.0,0.0,0.0,0.0,0.0,0.0,0.0,0.0,0.0,0.0,0.0,0.0,0.0,0.0,0.0,0.0,0.0,0.0,0.0,0.0,0.0,0.0,0.0,0.0,0.0,0.0,0.0,0.0,0.0,0.0,0.0,0.0,0.0,0.0,0.0,0.0,0.0,0.0,0.0,0.0,0.0,0.0,0.0,0.0,0.0,0.0,0.0,0.0,0.0,0.0,0.0,0.0,0.0,0.0,0.0,0.0,0.0,0.0,0.0,0.0,0.0,0.0,0.0,0.0,0.0,0.0,0.0,0.0,0.0,0.0,0.0,0.0,0.0,0.0,0.0,0.0,0.0,0.0,0.0,0.0,0.0,0.0,0.0,0.0,0.0,0.0,0.0,0.0,0.0,0.0,0.0,0.0,0.0,0.0,0.0,0.0,0.0,0.0,0.0,0.0,0.0,0.0,0.0,0.0,0.0,0.0,0.0,0.0,0.0,0.0,0.0,0.0,0.0,0.0,0.0,0.0,0.0,0.0,0.0,0.0,0.0,0.0,0.0,0.0,0.0,0.0,0.0,0.0,0.0,0.0,0.0,0.0,0.0,0.0,0.0,0.0,0.0,0.0,0.0,0.0,0.0,0.0,0.0,0.0,0.0,0.0,0.0,0.0,0.0,0.0,0.0,0.0,0.0,0.0,0.0,0.0,0.0,0.0,0.0,0.0,0.0,0.0,0.0,0.0,0.0,0.0,0.0,0.0,0.0,0.0,0.0,0.0,0.0,0.0,0.0,0.0,0.0,0.0,0.0,0.0,0.0,0.0,0.0,0.0,0.0,0.0,0.0,0.0,0.0,0.0,0.0,0.0,0.0,0.0,0.0,0.0,0.0,0.0,0.0,0.0,0.0,0.0,0.0,0.0,0.0,0.0,0.0,0.0,0.0,0.0,0.0,0.0,0.0,0.0,0.0,0.0,0.0,0.0,0.0,0.0,0.0,0.0,0.0,0.0,0.0,0.0,0.0,0.0,0.0,0.0,0.0,0.0,0.0,0.0,0.0,0.0,0.0,0.0,0.0,0.0,0.0,0.0,0.0,0.0,0.0,0.0,0.0,0.0,0.0,0.0,0.0,0.0,0.0,0.0,0.0,0.0,0.0,0.0,0.0,0.0,0.0,0.0,0.0,0.0,0.0,0.0,0.0,0.0,0.0,0.0,0.0,0.0,0.0,0.0,0.0,0.0,0.0,0.0,0.0,0.0,0.0,0.0,0.0,0.0,0.0,0.0,0.0,0.0,0.0,0.0,0.0,0.0,0.0,0.0,0.0,0.0,0.0,0.0,0.0,0.0,0.0,0.0,0.0,0.0,0.0,0.0,0.0,0.0,0.0,0.0,0.0,0.0,0.0,0.0,0.0,0.0,0.0,0.0,0.0,0.0,0.0,0.0,0.0,0.0,0.0,0.0,0.0,0.0,0.0,0.0,0.0,0.0,0.0,0.0,0.0,0.0,0.0,0.0,0.0,0.0,0.0,0.0,0.0,0.0,0.0,0.0,0.0,0.0,0.0,0.0,0.0,0.0,0.0,0.0,0.0,0.0,0.0,0.0,0.0,0.0,0.0,0.0,0.0,0.0,0.0,0.0,0.0,0.0,0.0,0.0,0.0,0.0,0.0,0.0,0.0,0.0,0.0,0.0,0.0,0.0,0.0,0.0,0.0,0.0,0.0,0.0,0.0,0.0,0.0,0.0,0.0,0.0,0.0,0.0,0.0,0.0,0.0,0.0,0.0,0.0,0.0,0.0,0.0,0.0,0.0,0.0,0.0,0.0,0.0,0.0,0.0,0.0,0.0,0.0,0.0,0.0,0.0,0.0,0.0,0.0,0.0,0.0,0.0,0.0,0.0,0.0,0.0,0.0,0.0,0.0,0.0,0.0,0.0,0.0,0.0,0.0,0.0,0.0,0.0,0.0,0.0,0.0,0.0,0.0,0.0,0.0,0.0,0.0,0.0,0.0,0.0,0.0,0.0,0.0,0.0,0.0,0.0,0.0,0.0,0.0,0.0,0.0,0.0,0.0,0.0,0.0,0.0,0.0,0.0,0.0,0.0,0.0,0.0,0.0,0.0,0.0,0.0,0.0,0.0,0.0,0.0,0.0,0.0,0.0,0.0,0.0,0.0,0.0,0.0,0.0,0.0,0.0,0.0,0.0,0.0,0.0,0.0,0.0,0.0,0.0,0.0,0.0,0.0,0.0,0.0,0.0,0.0,0.0,0.0,0.0,0.0,0.0,0.0,0.0,0.0,0.0,0.0,0.0,0.0,0.0,0.0,0.0,0.0,0.0,0.0,0.0,0.0,0.0,0.0,0.0,0.0,0.0,0.0,0.0,0.0,0.0,0.0,0.0,0.0,0.0,0.0,0.0,0.0,0.0,0.0,0.0,0.0,0.0,0.0,0.0,0.0,0.0,0.0,0.0,0.0,0.0,0.0,0.0,0.0,0.0,0.0,0.0,0.0,0.0,0.0,0.0,0.0,0.0,0.0,0.0,0.0,0.0,0.0,0.0,0.0,0.0,0.0,0.0,0.0,4.7348,4.5973,0.0,0.0,0.0,0.0,0.0,0.0,0.0,0.0,0.0,0.0,0.0,0.0,0.0,0.0,0.0,0.0,0.0,0.0,0.0,0.0,0.0,0.0,0.0,3.6936,3.7211,3.8074,3.8546,0.0,0.0,0.0,0.0,0.0,0.0,0.0,0.0,0.0,4.1888,4.3612,3.8835,3.5631,3.4164,3.8378,4.284,4.7272,0.0,0.0,0.0,0.0,0.0,0.0,0.0,0.0,0.0,0.0,0.0,0.0,0.0,0.0,0.0,0.0,0.0,0.0,0.0,0.0,0.0,0.0,0.0,0.0,0.0,0.0,0.0,0.0,0.0,0.0,0.0,0.0,0.0,0.0,0.0,0.0,0.0,0.0,0.0,0.0,0.0,0.0,0.0,0.0,0.0,0.0,0.0,0.0,0.0,0.0,0.0,0.0,0.0,0.0,0.0,0.0,0.0,0.0,0.0,0.0,0.0,0.0,0.0,0.0,0.0,0.0,0.0,0.0,0.0,0.0,4.8709,4.8151,0.0,0.0,0.0,0.0,0.0,0.0,0.0,0.0,0.0,0.0,0.0,0.0,0.0,0.0,0.0,0.0,0.0,0.0,0.0,0.0,0.0,3.6572,3.6606,3.777,3.9194,4.0749,4.0073,3.9635,3.984,3.9135,0.0,0.0,0.0,0.0,4.1457,4.2236,4.2578,4.2424,3.304,2.5243,1.9334,2.9372,3.8579,4.657,4.5181,0.0,0.0,0.0,0.0,0.0,0.0,0.0,0.0,0.0,0.0,0.0,0.0,0.0,0.0,0.0,0.0,0.0,0.0,0.0,0.0,0.0,0.0,0.0,0.0,0.0,0.0,0.0,0.0,0.0,0.0,0.0,0.0,0.0,0.0,0.0,0.0,0.0,0.0,0.0,0.0,0.0,0.0,0.0,0.0,0.0,0.0,0.0,0.0,0.0,0.0,0.0,0.0,0.0,0.0,0.0,0.0,0.0,0.0,0.0,0.0,0.0,0.0,0.0,4.5522,4.7026,4.8773,5.0208,5.0897,5.1071,5.006,5.0578,5.1689,4.9063,0.0,0.0,0.0,0.0,0.0,0.0,0.0,0.0,0.0,0.0,0.0,0.0,0.0,0.0,0.0,0.0,0.0,0.0,0.0,3.6797,3.0471,3.5469,3.9674,4.0713,3.992,4.0009,4.1557,4.1545,0.0,0.0,0.0,4.3161,4.3329,4.3456,3.9792,3.2155,2.5024,2.1958,2.2755,2.329,2.5228,2.8398,3.499,3.2519,2.4552,0.0,0.0,0.0,0.0,0.0,0.0,0.0,0.0,0.0,0.0,0.0,0.0,0.0,0.0,0.0,0.0,0.0,0.0,0.0,0.0,0.0,0.0,0.0,0.0,0.0,0.0,0.0,0.0,0.0,0.0,0.0,0.0,0.0,0.0,0.0,0.0,0.0,0.0,0.0,0.0,0.0,3.0456,2.8319,0.0,0.0,0.0,0.0,0.0,0.0,0.0,0.0,0.0,0.0,0.0,0.0,0.0,4.1958,4.2831,4.4223,4.5231,4.5906,4.7898,4.9272,5.0053,5.141,5.2739,5.3887,5.273,0.0,5.0835,4.9512,0.0,0.0,0.0,0.0,0.0,0.0,0.0,0.0,0.0,0.0,0.0,0.0,0.0,0.0,0.0,0.0,0.0,0.0,0.0,0.0,0.0,3.7641,4.3316,4.5564,4.4858,4.4259,4.4124,4.4111,0.0,0.0,3.8726,3.6416,3.6447,3.1419,2.397,1.4037,1.9043,1.5297,0.372,1.0791,1.1223,0.6449,1.6992,2.1048,2.0504,3.0134,0.0,0.0,0.0,0.0,0.0,0.0,0.0,0.0,0.0,0.0,0.0,0.0,0.0,0.0,0.0,0.0,0.0,0.0,0.0,0.0,0.0,0.0,0.0,0.0,0.0,0.0,0.0,0.0,0.0,0.0,0.0,0.0,0.0,0.0,0.0,0.0,0.0,0.0,0.0,2.5766,2.821,2.7427,2.871,2.9957,0.0,0.0,0.0,0.0,0.0,0.0,0.0,0.0,0.0,4.2061,4.2395,4.3134,4.4211,4.5115,4.5929,4.7173,4.8337,4.9753,5.1154,5.1686,5.266,5.3663,5.2095,5.1031,4.9993,4.8828,4.7499,4.591,0.0,0.0,0.0,0.0,3.8963,3.7645,0.0,0.0,0.0,0.0,0.0,0.0,0.0,0.0,0.0,0.0,0.0,0.0,2.7739,3.833,4.623,4.6833,4.8063,4.7428,4.428,4.3584,4.1553,3.7725,3.1666,2.8358,2.8384,1.8736,0.9767,0.1773,0.9531,0.48,-1.1261,-0.1527,-0.1285,-0.8697,0.0638,0.7877,1.3448,1.9413,1.9351,1.5685,0.0,0.0,0.0,0.0,0.0,0.0,0.0,0.0,0.0,0.0,0.0,0.0,0.0,0.0,0.0,0.0,0.0,0.0,0.0,0.0,0.0,0.0,0.0,0.0,0.0,0.0,0.0,0.0,0.0,0.0,0.0,0.0,0.0,0.0,0.0,0.0,0.0,2.5177,2.7038,2.8026,2.9143,3.0353,0.0,0.0,0.0,0.0,0.0,0.0,3.9388,4.1069,4.27,4.4023,4.4001,4.4546,4.5675,4.5806,4.6519,4.7848,4.8334,4.9586,5.1396,5.1442,5.193,5.2552,5.1337,4.9972,4.8956,4.7683,4.6519,4.5302,4.3348,4.1703,4.0344,3.9867,3.8427,3.6383,0.0,0.0,0.0,0.0,0.0,0.0,0.0,0.0,0.0,0.0,0.0,2.8347,1.4647,3.4718,4.6589,4.0101,4.6193,4.725,3.9931,3.7763,3.3156,2.4984,2.2804,2.1773,2.1747,1.0205,0.373,0.2773,-0.7009,-1.1392,-1.0443,-1.0928,-1.0792,-1.0293,-0.9644,-0.7826,-0.394,1.587,1.7161,0.6782,1.7029,0.0,0.0,0.0,0.0,0.0,0.0,0.0,0.0,0.0,0.0,0.0,0.0,0.0,0.0,0.0,0.0,0.0,0.0,0.0,0.0,0.0,0.0,0.0,0.0,0.0,0.0,0.0,0.0,0.0,0.0,0.0,0.0,0.0,0.0,0.0,0.0,0.0,0.0,2.8893,2.948,0.0,0.0,0.0,0.0,3.4636,3.5998,3.7676,4.0234,4.1934,4.3556,4.5129,4.6024,4.6526,4.6658,4.7138,4.74,4.7597,4.8186,4.9157,5.0209,5.0781,5.1231,5.1535,5.1217,4.9627,4.7025,4.5922,4.5686,4.5656,4.1861,4.0858,4.1095,3.7422,3.5261,3.4375,0.0,0.0,0.0,1.4507,1.228,1.1859,1.4567,1.2933,1.1626,1.225,2.5304,3.0758,2.0749,3.8911,4.9002,4.1928,4.9382,5.2897,4.913,4.2504,3.6689,3.209,2.0178,0.964,0.1122,-0.4351,-0.8055,-1.0128,-1.3344,-1.439,-1.3309,-1.3302,-1.2445,-1.1168,-1.0455,-0.9615,-0.8511,-0.1004,0.0,-0.3073,0.0787,0.5862,0.0,0.0,0.0,0.0,0.0,0.0,0.0,0.0,0.0,0.0,0.0,0.0,0.0,0.0,0.0,0.0,0.0,0.0,0.0,0.0,0.0,0.0,0.0,0.0,0.0,0.0,0.0,0.0,0.0,0.0,0.0,0.0,0.0,0.0,0.0,0.0,0.0,2.9274,3.0143,0.0,3.2065,3.2286,3.3294,3.584,3.6945,3.8476,4.0704,4.2604,4.4124,4.5401,4.5944,4.6723,4.7641,4.7553,4.7793,4.8405,4.8696,4.9496,5.0614,5.15,5.1711,5.1349,5.0832,4.9319,4.701,4.4346,4.2857,4.2329,4.1342,3.9696,3.7507,3.5194,3.3553,3.2322,0.0,0.0,0.0,0.686,0.6549,0.6928,0.7274,0.7592,0.8253,0.9488,2.0035,2.4802,1.7861,3.3988,4.2338,3.5012,4.3011,4.6655,4.2371,3.5601,2.9329,2.4119,1.0557,-0.1592,-1.1843,-1.3062,-1.4828,-1.7288,-1.6574,-1.6009,-1.5735,-1.5292,-1.4432,-1.3452,-1.2731,-1.2244,-1.1868,-1.1868,-1.0689,-0.8883,-0.8456,-0.4426,0.1397,0.0,0.0,0.0,0.0,0.0,0.0,0.0,0.0,0.0,0.0,0.0,0.0,0.0,0.0,0.0,0.0,0.0,0.0,0.0,0.0,0.0,0.0,0.0,0.0,0.0,0.0,0.0,0.0,0.0,0.0,0.0,0.0,0.0,0.0,2.7137,2.8825,2.9931,3.0833,3.1538,3.2017,3.2159,3.3197,3.5298,3.637,3.8006,4.0363,4.2166,4.373,4.5105,4.5658,4.6556,4.7993,4.7885,4.8122,4.8726,4.8898,4.92,4.9795,5.0594,5.0696,5.0112,4.9646,4.8234,4.5845,4.3453,4.1167,3.9318,3.9595,3.7821,3.4984,3.3368,3.168,2.9806,0.0,0.0,0.2831,0.3961,0.5429,0.6427,0.6318,0.7269,0.8855,1.1381,1.1938,1.0032,0.4787,1.9832,2.6952,1.8835,2.7091,2.8657,1.911,1.6448,1.0351,-0.0466,-0.6419,-1.1241,-1.5177,-1.5338,-1.6059,-1.7419,-1.7419,-1.7419,-1.7419,-1.7419,-1.7419,-1.7278,-1.7278,-1.6442,-1.5026,-1.5026,-1.3358,-1.037,-0.9429,-0.9189,-0.9086,0.0,0.0,0.0,0.0,0.0,0.0,0.0,0.0,0.0,0.0,0.0,0.0,0.0,0.0,0.0,0.0,0.0,0.0,0.0,0.0,0.0,0.0,0.0,0.0,0.0,0.0,0.0,0.0,0.0,0.0,0.0,0.0,0.0,2.4116,2.6512,2.8869,3.0679,3.1269,3.1462,3.1499,3.1791,3.2264,3.306,3.4311,3.6254,3.9077,4.0439,4.2168,4.418,4.5186,4.629,4.7643,4.8126,4.8191,4.8191,4.8651,4.8413,4.7621,4.8351,4.8339,4.7601,4.7915,4.6358,4.3426,4.3248,4.085,3.7067,3.6537,3.5666,3.4066,3.2287,2.9671,2.7033,-1.5807,-1.1982,-0.8388,-0.6309,-0.3553,-0.174,-0.1923,-0.0546,0.288,0.9557,1.2171,1.2952,1.1656,2.9049,3.4679,1.9488,3.3111,3.818,2.7956,1.9742,0.9214,-0.4419,-1.0877,-1.47,-1.5719,-1.7949,-1.9804,-2.1296,-2.1521,-2.1495,-2.1221,-2.0419,-1.9461,-1.8476,-1.7398,-1.6856,-1.6725,-1.6291,-1.5971,-1.5062,-1.1726,-0.9467,-0.8025,0.0,0.0,0.0,0.0,0.0,0.0,0.0,0.0,0.0,0.0,0.0,0.0,0.0,0.0,0.0,0.0,0.0,0.0,0.0,0.0,0.0,0.0,0.0,0.0,0.0,0.0,0.0,0.0,0.0,0.0,0.0,2.0252,2.2668,2.5528,2.7667,2.9731,3.1379,3.2078,3.2507,3.2184,3.2965,3.3836,3.4684,3.5865,3.705,3.8478,4.0143,4.1556,4.274,4.4363,4.5633,4.6613,4.7081,4.7135,4.7156,4.7581,4.7854,4.7929,4.879,4.8728,4.8077,4.7366,4.5884,4.3888,4.1118,3.8243,3.5832,3.5503,3.3988,3.1881,2.885,2.5906,2.3799,-2.3542,-1.95,-1.5427,-1.2942,-0.9588,-0.7044,-0.6432,-0.461,-0.1276,0.4785,0.6618,0.8065,0.9808,2.0352,2.3301,1.3549,2.2129,2.5432,1.9219,1.0334,0.0321,-1.1024,-1.5497,-1.8383,-2.0024,-2.1747,-2.3171,-2.415,-2.4257,-2.4172,-2.3899,-2.3092,-2.2082,-2.097,-2.0431,-1.9484,-1.825,-1.81,-1.759,-1.6406,-1.3761,-1.2052,-1.0868,-0.8676,-0.756,-0.6885,-0.5127,-0.3912,-0.2884,-0.1245,0.0,0.0,0.0,0.0,0.0,0.0,0.0,0.0,0.0,0.0,0.0,0.0,0.0,0.0,0.0,0.0,0.0,0.0,0.0,0.0,0.0,0.0,0.0,0.0,2.0114,2.211,2.5238,2.7506,2.9617,3.1106,3.2248,3.2809,3.2444,3.3355,3.4148,3.4571,3.5892,3.6846,3.7586,3.9085,4.0233,4.1203,4.2892,4.4205,4.555,4.6366,4.6776,4.6776,4.7209,4.7187,4.6902,4.7581,4.7257,4.6201,4.5389,4.3916,4.1868,3.9626,3.6922,3.4325,0.0,0.0,0.0,0.0,2.3222,2.1862,-2.7273,-2.3822,-2.0086,-1.7591,-1.3804,-1.0551,-0.885,-0.6605,-0.4102,-0.1428,-0.1467,-0.0468,0.3247,0.3867,0.4136,0.4628,0.396,0.2785,0.0754,-0.5894,-1.2306,-1.8025,-1.9832,-2.227,-2.5584,-2.6055,-2.6358,-2.6643,-2.6496,-2.6345,-2.6345,-2.565,-2.4946,-2.436,-2.466,-2.2983,-1.9924,-2.0178,-1.8898,-1.6683,-1.5818,-1.5763,-1.5575,-1.1014,-0.9376,-0.9319,-0.646,-0.4355,-0.2741,-0.232,0.0,0.0,0.0,0.0,0.0,0.0,0.0,0.0,0.0,0.0,0.0,0.0,0.0,0.0,0.0,0.0,0.0,0.0,0.0,0.0,0.0,0.0,0.0,0.0,2.016,2.1452,2.3867,2.653,2.8818,3.0101,3.1872,3.2775,3.2458,3.3075,3.3651,3.3651,3.4957,3.6149,3.6789,3.7771,0.0,0.0,0.0,4.2802,4.4429,4.5962,4.6553,4.6553,4.6972,4.663,4.537,4.5742,4.4955,4.3314,4.3173,4.1515,3.8549,3.8188,3.5834,3.2449,3.2138,2.9426,2.5491,2.2362,2.1127,2.084,-3.2065,-2.9434,-2.6578,-2.3295,-1.8246,-1.4599,-1.4419,-1.0049,-0.635,-0.5039,-0.3176,-0.0922,0.1353,0.8229,0.9745,0.2537,0.6743,0.4574,-0.7687,-1.4419,-1.8346,-1.9019,-2.3406,-2.5697,-2.5569,-2.8413,-2.9834,-2.9646,-3.0833,-3.1354,-3.1219,-2.8815,-2.7395,-2.6993,-2.4701,-2.3073,-2.2297,-2.2297,-2.2048,-2.1408,-1.9323,-1.7102,-1.4932,-1.3713,-1.2775,-1.191,-1.1114,-0.9941,-0.8525,-0.6721,-0.5517,-0.4447,-0.2218,-0.081,0.0,0.0,0.0,0.0,0.0,0.0,0.0,0.0,0.0,0.0,0.0,0.0,0.0,0.0,0.0,0.0,0.0,0.0,0.0,2.1105,2.1155,2.176,2.3206,2.5419,2.7513,2.9466,3.1224,3.2237,3.1994,3.3629,3.4731,3.4731,3.5572,3.6035,3.6163,3.7598,3.8678,3.9175,4.1353,4.265,4.3426,4.4764,4.5538,4.5538,4.5945,0.0,4.5773,4.5961,4.502,4.3348,4.2034,4.0218,3.8325,3.495,3.1486,2.8092,2.8091,2.5766,2.2381,2.1831,1.9738,1.7641,-3.5862,-3.379,-3.1378,-2.8529,-2.3343,-1.9213,-1.8301,-1.4702,-1.1558,-1.0175,-0.8866,-0.7127,-0.4676,-0.0313,0.1035,-0.2601,-0.1519,-0.4994,-1.537,-2.0572,-2.3789,-2.5061,-2.8015,-2.9628,-2.9378,-3.1881,-3.2771,-3.1726,-3.323,-3.365,-3.2881,-3.1278,-3.0122,-2.9665,-2.8581,-2.6847,-2.5063,-2.5201,-2.4372,-2.2867,-2.1298,-1.9952,-1.831,-1.5228,-1.381,-1.3436,-1.2022,-1.0731,-0.9457,-0.8094,-0.7039,-0.5818,-0.4417,-0.3167,-0.2076,0.0,0.0,0.0,0.0,0.0,0.0,0.0,0.0,0.0,0.0,0.0,0.0,0.0,0.0,1.8064,1.872,0.0,1.9854,2.1018,2.0969,2.1323,2.2309,2.3897,2.5706,2.784,2.9773,3.1179,3.1179,3.297,3.4232,3.4232,3.5586,3.6431,3.6606,3.7478,3.8375,3.8894,4.0747,4.1868,4.2244,4.3397,4.4257,4.4858,4.5038,4.4939,4.4335,4.4335,4.2981,4.0378,3.9579,3.7835,3.5267,3.1228,2.8409,2.6582,2.5535,2.3814,2.1741,2.0787,1.8907,1.6866,-3.8656,-3.7186,-3.5162,-3.3071,-2.8441,-2.4404,-2.2364,-1.9592,-1.7085,-1.5322,-1.5,-1.3926,-1.1286,-1.1318,-1.0932,-0.963,-1.2976,-1.7183,-2.2286,-2.5715,-2.8712,-3.1156,-3.2445,-3.3225,-3.3481,-3.5126,-3.5422,-3.4355,-3.55,-3.5559,-3.4604,-3.3918,-3.3177,-3.2375,-3.257,-3.0903,-2.7893,-2.7878,-2.6349,-2.3985,-2.2949,-2.2705,-2.2275,-1.6904,-1.5119,-1.5186,-1.3309,-1.1599,-1.0203,-0.9601,-0.8617,-0.7331,-0.6743,-0.5738,-0.4538,-0.3004,-0.212,0.0,0.0,0.0,0.0,0.0,0.0,0.0,0.0,1.2522,1.3755,1.6077,1.7566,1.8579,1.9363,2.0046,2.047,2.0894,2.0839,2.12,2.1911,2.284,2.4197,2.5512,2.8308,3.0051,3.0051,3.2002,3.3087,3.3087,3.4891,3.6121,3.6662,3.7254,3.7773,3.8767,4.0105,4.0991,4.1271,4.2426,4.34,4.3782,4.399,4.3418,4.2302,4.2302,4.051,3.7316,3.6561,3.4201,3.0869,2.7639,2.5693,2.4816,2.2883,2.1571,2.0443,1.9461,1.7826,1.5818,-3.9929,-3.9364,-3.8122,-3.6224,-3.3005,-3.0205,-2.8708,-2.4327,-2.0684,-1.9484,-1.8177,-1.6807,-1.5329,-1.5642,-1.6714,-1.8557,-2.2095,-2.5466,-2.829,-3.1169,-3.2774,-3.2371,-3.4879,-3.5725,-3.4881,-3.742,-3.8633,-3.8702,-3.8809,-3.9153,-3.9432,-3.7446,-3.6022,-3.4871,-3.3121,-3.1523,-3.0089,-2.8737,-2.8063,-2.7524,-2.4957,-2.3785,-2.3327,-2.0489,-1.9391,-1.9238,-1.8466,-1.7248,-1.5858,-1.4163,-1.314,-1.2381,-1.0566,-0.9126,-0.7625,-0.5112,-0.3658,-0.2275,0.127,0.3854,0.6019,0.7752,0.8655,0.9336,0.0,1.1282,1.2548,1.5496,1.6427,1.7513,1.9953,2.0403,2.0904,2.2099,2.2372,2.2372,2.2546,2.3456,2.3868,2.3075,2.6701,2.9257,2.9257,3.104,3.231,3.231,3.2818,3.37,3.5524,3.6125,3.7402,3.9148,4.0447,4.1238,4.1271,4.3209,4.3383,4.1607,4.2584,4.1984,4.033,4.033,3.9349,3.7128,3.3473,2.9539,2.5713,2.5288,2.2883,1.9573,1.936,1.7144,1.4719,1.7599,1.57,1.1563,-4.015,-3.9747,-3.8921,-3.7906,-3.5299,-3.2984,-3.1873,-2.8909,-2.6501,-2.5779,-2.4484,-2.3255,-2.2406,-2.1551,-2.2032,-2.4665,-2.6951,-2.9492,-3.2285,-3.5617,-3.7548,-3.7791,-3.9057,-3.9382,-3.8589,-4.0153,-4.0481,-3.9561,-3.9905,-3.9818,-3.9288,-3.773,-3.654,-3.5679,-3.4814,-3.3443,-3.1595,-3.13,-3.0174,-2.8734,-2.7833,-2.6794,-2.5412,-2.3789,-2.2834,-2.1738,-1.9338,-1.7877,0.0,-1.5842,-1.506,-1.4255,-1.2902,-1.1368,-0.9603,-0.7037,-0.534,-0.3224,0.1419,0.3788,0.5232,0.6629,0.7316,0.7999,0.8646,0.953,1.0956,1.3299,1.4123,1.4958,1.6934,1.7372,1.8038,2.0297,2.0645,2.0805,2.2063,2.298,2.3344,2.3,2.5175,2.7073,2.7486,2.909,3.0437,3.1208,3.239,3.3464,3.4173,3.4967,3.5565,3.6489,3.7177,3.7734,3.7734,3.8503,3.8791,3.8765,3.9158,3.895,3.8104,3.8104,3.6447,3.3681,3.0811,2.778,2.4636,2.1781,1.98,1.804,1.6709,1.4282,1.2061,1.473,1.3511,1.0963,-4.0294,-3.984,-3.9217,-3.8849,-3.6733,-3.4726,-3.357,-3.1743,-3.0367,-3.0058,-2.9261,-2.8625,-2.8428,-2.7133,-2.7112,-2.9199,-3.1034,-3.3084,-3.5502,-3.8512,-4.0594,-4.1372,-4.1828,-4.1739,-4.1323,-4.2073,-4.1913,-4.0734,-4.1223,-4.095,-3.9686,-3.8775,-3.7878,-3.704,-3.6539,-3.5275,-3.3596,-3.3114,-3.1836,-2.9984,-2.9732,-2.8818,-2.7493,-2.6399,-2.5187,-2.3668,-2.0138,-1.8487,-1.7809,-1.6802,-1.5886,-1.4993,-1.3923,-1.2172,-1.0041,-0.8119,-0.5833,-0.3058,0.1167,0.2842,0.3848,0.5019,0.5766,0.6133,0.6498,0.7424,0.8748,1.0916,1.1759,1.2627,1.4719,1.4993,1.5863,1.8448,1.9013,1.9777,2.1083,2.2163,2.2884,2.2793,2.382,2.4672,2.5593,2.7036,2.8533,2.9658,3.1112,3.2171,3.3201,3.3625,3.435,3.4913,3.5123,3.5235,3.5235,3.5421,3.572,3.6134,3.6536,3.6305,3.5828,3.5473,3.3551,3.0399,2.8231,2.593,2.3547,1.9588,1.7391,1.6501,1.4276,1.1834,0.985,1.1235,1.091,1.0139,-4.0637,-3.9984,-3.9314,-3.9028,-3.7516,-3.5747,-3.3935,-3.1929,-3.0567,-3.0522,-3.0824,-3.1307,-3.1872,-3.184,-3.189,-3.2217,-3.5125,-3.719,-3.7975,-3.9353,-4.0494,-4.1256,-4.1708,-4.2032,-4.193,-4.2476,-4.3022,-4.3462,-4.3488,-4.3233,-4.2687,-4.2138,-4.1087,-3.9711,-3.7912,-3.6993,-3.6336,-3.3728,-3.2266,-3.1729,-2.9833,-2.9086,-2.8991,-2.7832,-2.6555,-2.4897,-2.2086,-2.0947,-2.0359,-1.744,-1.5677,-1.4501,-1.3627,-1.1077,-0.8304,-0.7906,-0.4823,-0.1123,0.0,0.0827,0.1695,0.2629,0.3382,0.3775,0.3633,0.4551,0.6036,0.8563,0.9347,1.087,1.4364,1.5073,1.5609,1.7136,1.864,1.9725,1.9742,2.1262,2.2293,2.2104,2.2444,2.3197,2.3961,2.4914,2.6287,2.7752,2.7766,2.9123,3.2494,3.2559,3.3641,3.5647,3.5675,3.5675,3.5675,3.665,3.6244,3.4255,3.5252,3.5226,3.3915,3.2462,3.0644,2.8296,2.593,2.3547,2.1384,1.8722,1.6495,1.4276,1.1843,0.94,0.7412,0.7536,0.7623,0.7674,-4.066,-3.9159,-3.7802,-3.7939,-3.6189,-3.4492,-3.3598,-3.311,-3.2663,-3.2219,-3.1502,0.0,0.0,0.0,0.0,0.0,-3.4763,-3.6409,-3.8943,-4.0314,-4.191,-4.3906,-4.4209,-4.4555,-4.4925,-4.4662,-4.447,-4.4108,-4.339,-4.2567,-4.1776,-4.0841,-3.971,-3.8389,-3.7605,-3.7013,-3.6579,-3.4679,-3.3533,-3.3149,-3.1614,-3.0397,-2.941,-2.8818,-2.68,-2.4205,0.0,-2.1096,-2.0021,-1.8845,-1.7642,-1.6543,-1.5798,-1.3755,-1.1201,-0.8678,-0.5656,-0.2811,-0.1826,-0.0169,0.156,0.2149,0.3076,0.3636,0.3675,0.4442,0.5411,0.6424,0.6974,0.7931,1.0029,1.0239,1.1042,1.3366,1.4813,1.5852,1.713,1.9372,2.0834,2.0905,2.2139,2.3136,2.3413,2.4287,2.5387,2.6376,2.739,2.8519,2.9939,3.0754,3.1638,3.2633,3.2633,3.2633,3.2633,3.3033,3.2917,3.2287,3.1793,3.107,3.0752,2.91,2.7187,2.5476,2.4617,2.2219,1.8722,1.6495,1.4054,1.1621,0.9454,0.7911,0.7251,0.7371,0.7482,0.7567,-4.0697,-3.9204,-3.7763,-3.7578,-3.5967,0.0,0.0,0.0,0.0,0.0,0.0,0.0,0.0,0.0,0.0,0.0,0.0,-3.6107,-3.8586,-3.9956,-4.1692,-4.3885,-4.4074,-4.4352,-4.4993,-4.444,-4.4199,-4.4429,-4.3249,-4.2493,-4.2107,-4.1198,-4.0049,-3.8674,-3.8059,-3.7472,-3.6828,-3.5432,-3.4673,-3.4152,-3.2508,-3.1414,-3.0502,-2.927,-2.6771,0.0,-2.2322,-2.0697,-1.8993,-1.8672,-1.7658,-1.6539,-1.6613,-1.4869,-1.2146,-0.9204,-0.6665,-0.466,-0.3722,-0.2067,-0.0528,0.0,0.0731,0.1285,0.1298,0.1868,0.2634,0.3043,0.3981,0.5119,0.6734,0.734,0.8525,1.0731,1.2015,1.3313,1.5023,1.7224,1.8734,1.9452,2.0604,2.1572,2.2391,2.3035,2.4148,2.5471,2.6444,2.7558,2.8815,2.9617,3.0498,3.1276,3.1288,3.1288,3.1288,3.1288,3.0939,3.0233,2.9518,2.8715,2.7854,2.6107,2.4599,2.3529,2.2874,2.0466,1.6956,1.4547,1.2335,0.9888,0.7494,0.6614,0.6634,0.7013,0.7118,0.6942,-4.074,-3.9986,-3.9045,0.0,0.0,0.0,0.0,0.0,0.0,0.0,0.0,0.0,0.0,0.0,0.0,0.0,0.0,0.0,-3.7109,-3.8428,-3.9825,-4.131,-4.1448,-4.1813,-4.2408,-4.1947,-4.2537,-4.4174,-4.3097,-4.287,-4.3443,-4.29,-4.1776,-4.022,-3.9189,-3.8125,-3.711,-3.5929,-3.5191,-3.4645,-3.2552,-3.1837,-3.1697,-2.8959,-2.6211,-2.3548,-2.2285,-1.997,-1.7564,-1.7194,-1.576,-1.4525,-1.5777,-1.4104,-1.1213,-0.9356,-0.788,-0.6578,-0.6004,-0.5073,-0.4258,-0.3805,-0.3487,-0.3152,-0.3182,-0.2628,-0.2071,-0.114,0.076,0.2649,0.4687,0.6283,0.7698,0.8964,1.0523,1.2139,1.3262,1.4869,1.6433,1.7924,1.8203,1.9107,2.0737,2.128,2.2398,2.4736,2.4919,2.6313,2.9096,2.934,2.999,3.1581,3.1807,3.1807,3.1807,3.1593,3.0488,2.8307,2.8726,2.7639,2.5467,2.3738,2.2874,2.2673,2.0505,1.8074,1.564,1.3293,1.1082,0.8617,0.6415,0.5524,0.5544,0.6439,0.6274,0.5802,0.0,0.0,0.0,0.0,0.0,0.0,0.0,0.0,0.0,0.0,0.0,0.0,0.0,0.0,0.0,0.0,0.0,0.0,-3.6268,-3.7291,-3.8494,-3.9925,-4.0517,-4.1036,-4.1727,-4.2079,-4.2027,-4.1564,-4.1766,-4.1275,-4.0286,-4.0214,-3.9503,-3.8113,-3.7702,-3.7334,-3.6755,-3.4913,-3.365,-3.2615,-3.0809,-2.9429,-2.86,-2.7819,-2.578,-2.3309,-2.2647,-2.0537,-1.7972,-1.7466,-1.6609,-1.5641,-1.5023,-1.4216,-1.3231,-1.1807,-1.0294,-0.8904,-0.7883,-0.6399,-0.4894,-0.444,-0.4121,-0.3589,-0.3221,-0.2669,-0.229,-0.1698,-0.093,0.0367,0.2749,0.354,0.4553,0.6725,0.8085,0.9287,0.9644,1.259,1.4977,1.5394,1.7509,1.8947,1.9418,1.9501,1.9945,2.0489,2.3831,2.6062,2.7037,2.7897,2.8879,3.0488,3.05,3.0928,3.1807,3.0059,2.8952,2.8296,2.4825,2.3084,2.2437,2.0255,1.9464,2.0011,1.7438,1.5272,1.3408,1.0877,0.8413,0.6415,0.5782,0.5591,0.5638,0.6022,0.5859,0.5902,0.0,0.0,0.0,0.0,0.0,0.0,0.0,0.0,0.0,0.0,0.0,0.0,0.0,0.0,0.0,0.0,0.0,0.0,0.0,-3.5969,-3.6943,-3.8463,-3.867,-3.9198,-4.0163,-4.0269,-4.0426,-4.0561,-3.9957,-3.9592,-3.953,-3.8871,-3.8096,-3.7172,-3.685,-3.6392,-3.578,-3.4411,-3.3464,0.0,0.0,-2.8501,-2.7768,-2.6056,-2.3938,-2.1852,-2.1616,-1.9867,-1.7803,-1.7654,-1.6923,-1.5786,-1.4707,-1.4266,-1.3881,-1.2665,-1.1652,-1.0951,-0.9978,-0.8857,-0.7713,-0.7463,-0.6983,-0.6453,-0.6019,-0.5656,-0.5075,-0.422,-0.3435,-0.2327,-0.0356,0.1466,0.3011,0.4379,0.6127,0.755,0.807,1.0224,1.2021,1.2646,1.4717,1.6366,1.714,1.7813,1.8473,1.9117,2.1565,2.3481,2.5185,2.4961,2.5908,2.8533,2.7865,2.7865,2.8748,2.7434,2.6353,2.5269,2.2665,2.0701,1.9838,1.853,1.7497,1.6939,1.5518,1.3118,1.0311,0.893,0.6908,0.4655,0.4689,0.4737,0.4795,0.536,0.5186,0.5249,0.0,0.0,0.0,0.0,0.0,0.0,0.0,0.0,0.0,-3.4304,-3.3556,-3.2738,0.0,0.0,0.0,0.0,0.0,0.0,0.0,0.0,-3.5412,-3.6735,-3.629,-3.6692,-3.7889,-3.7491,-3.7953,-3.9496,-3.7691,-3.7597,-3.9139,-3.7811,-3.6887,-3.6426,-3.5881,-3.5104,-3.4222,-3.3691,-3.328,-3.2748,-2.9515,-2.8034,-2.7491,0.0,-2.1945,-2.0208,-2.0074,-1.8985,-1.7673,-1.7733,-1.6922,-1.5415,-1.4494,-1.4145,-1.3971,-1.2859,-1.2582,-1.2312,-1.1776,-1.1394,-1.113,-1.1237,-1.0597,-1.0054,-0.9653,-0.9245,-0.8624,-0.7449,-0.6156,-0.4903,-0.3635,-0.072,0.1865,0.2435,0.4524,0.6553,0.788,0.8173,0.8936,1.0015,1.1373,1.2982,1.4714,1.585,1.7184,1.8736,1.848,1.9669,2.3054,2.1757,2.2475,2.5703,2.4599,2.4155,2.4608,2.4391,2.3311,2.136,2.0929,1.9823,1.786,1.7666,1.6398,1.4274,1.3588,1.0943,0.7141,0.6962,0.5618,0.3782,0.3813,0.3862,0.3915,0.4694,0.4503,0.4061,0.0,0.0,0.0,0.0,0.0,0.0,0.0,0.0,0.0,0.0,-3.5794,-3.3491,0.0,0.0,0.0,0.0,0.0,0.0,0.0,0.0,0.0,-3.4063,-3.3894,-3.4145,-3.4941,-3.5276,-3.5096,-3.438,-3.4629,-3.4582,-3.4339,-3.4173,-3.3966,-3.372,-3.3233,-3.2536,-3.1774,-3.1113,-2.9929,-2.8455,-2.8179,-2.654,-2.4244,-2.3954,-2.2723,0.0,-2.006,-1.9637,-1.9196,-1.8086,-1.6916,-1.5838,-1.4813,-1.452,-1.4336,-1.3481,-1.3132,-1.2993,-1.2069,-1.1944,-1.1801,-1.1355,-1.1092,-1.0521,-1.0222,-0.9481,-0.8864,-0.8615,-0.8181,-0.709,-0.4912,-0.3851,-0.2,0.1866,0.311,0.4242,0.6679,0.7865,0.8842,0.9164,1.1053,1.2487,1.2975,1.4092,1.4986,1.5197,1.5168,1.669,2.0216,2.0012,2.067,2.221,2.3284,2.3937,2.4155,2.2647,2.1798,2.136,1.9383,1.8302,1.786,1.5747,1.4735,1.4397,1.0292,0.8078,0.7262,0.5169,0.4251,0.3813,0.3869,0.3911,0.3953,0.4286,0.4086,0.4124,0.0,0.0,0.0,0.0,0.0,0.0,0.0,-4.0673,-4.1279,-4.2226,-4.0364,-3.8158,-3.611,-3.4062,-3.3152,0.0,0.0,0.0,0.0,0.0,0.0,-3.373,-3.3398,-3.3447,-3.4059,-3.4364,-3.402,-3.3091,0.0,-3.2498,-3.1882,-3.1415,-3.136,-3.1474,-3.0898,-3.0553,-3.0446,-2.9496,-2.8724,-2.7913,-2.707,-2.6052,-2.4869,-2.3925,-2.2687,0.0,-2.0725,-2.0146,-1.9674,-1.9358,-1.798,-1.6446,-1.528,-1.4794,-1.4443,-1.3538,-1.3175,-1.3035,-1.2309,-1.1987,-1.202,-1.1763,-1.1497,-1.1087,-1.0643,-0.9894,-0.9084,-0.891,-0.8501,-0.7812,-0.6513,-0.5372,-0.3607,-0.0741,0.1357,0.3436,0.5198,0.6837,0.7834,0.7867,0.9539,1.0751,1.0751,1.2312,1.343,1.343,1.387,1.5424,1.8074,1.8508,1.8508,1.8053,1.9595,2.0239,2.0239,1.9823,1.961,1.961,1.7262,1.5958,1.5958,1.3598,1.1895,1.0614,0.8312,0.6527,0.5449,0.4266,0.3831,0.3887,0.39,0.396,0.4043,0.4058,0.411,0.418,0.0,0.0,0.0,0.0,0.0,0.0,-4.194,-4.281,-4.3876,-4.5666,-4.5046,-4.3139,-3.9835,-3.6551,-3.4641,0.0,0.0,0.0,0.0,0.0,0.0,0.0,0.0,0.0,-3.3485,0.0,0.0,-3.2356,-3.1517,0.0,0.0,0.0,0.0,0.0,-2.9176,-2.8983,-2.9187,-2.818,-2.7827,0.0,0.0,-2.5941,-2.5906,0.0,0.0,0.0,0.0,-2.0643,-2.009,-2.0527,-1.9414,-1.7861,-1.6516,-1.5655,-1.5082,-1.4516,-1.4376,-1.4302,-1.3666,-1.3385,-1.3427,-1.3536,-1.3263,-1.279,-1.1804,-1.1019,-1.0007,-0.9072,-0.8514,-0.8211,-0.7974,-0.655,-0.501,-0.3657,-0.0576,0.2207,0.3903,0.5521,0.6522,0.6992,0.8202,0.895,0.8967,1.1201,1.2534,1.2534,1.3652,1.4986,1.6305,1.6741,1.6526,1.4975,1.6089,1.6533,1.6533,1.6754,1.676,1.6786,1.4417,1.3358,1.3383,1.0984,0.8999,0.7201,0.6767,0.5413,0.3817,0.3838,0.3887,0.3949,0.3953,0.4023,0.4124,0.4099,0.4146,0.4215,0.0,0.0,0.0,0.0,0.0,0.0,-4.2741,-4.38,-4.5932,-5.0145,-4.812,-4.6151,-4.5646,-4.1354,-3.7686,0.0,0.0,0.0,0.0,0.0,0.0,0.0,0.0,0.0,0.0,0.0,0.0,-2.982,-2.9763,0.0,0.0,0.0,0.0,0.0,0.0,-2.7953,-2.7179,-2.6854,0.0,0.0,0.0,0.0,0.0,0.0,0.0,0.0,0.0,-2.085,-2.0971,-2.0772,-2.0694,-2.0408,-1.9334,-1.8157,-1.7378,-1.7923,-1.8467,-1.8626,-1.8078,-1.8097,-1.8216,-1.8232,-1.7865,-1.689,-1.4819,-1.3758,-1.2325,-0.9835,-0.8896,-0.8566,-0.8219,-0.8049,-0.7185,-0.4827,-0.3535,-0.1356,0.2411,0.3937,0.5324,0.6761,0.8155,0.8889,0.8961,1.1201,1.2534,1.2534,1.3652,1.432,1.4547,1.4536,1.4536,1.4325,1.4986,1.5424,1.5424,1.3854,1.2999,1.2864,1.1074,1.0223,1.0303,0.8552,0.7425,0.7207,0.4961,0.4048,0.3824,0.3904,0.3943,0.396,0.4065,0.4117,0.4142,0.4215,0.4233,0.4486,0.0,0.0,0.0,0.0,0.0,0.0,-4.4631,-4.508,-4.6751,-5.1587,-5.0652,-4.8924,-4.7335,-4.5044,-4.1594,-3.6751,0.0,0.0,0.0,0.0,0.0,0.0,0.0,0.0,0.0,0.0,-3.122,-3.0692,-3.0255,0.0,0.0,0.0,0.0,0.0,0.0,-2.8126,-2.7138,-2.6737,0.0,0.0,0.0,0.0,0.0,0.0,0.0,0.0,0.0,0.0,-2.2704,-2.1537,-2.0967,-2.0809,-2.1118,-2.0783,-1.9952,-1.9021,-1.9026,-1.9079,-1.9015,-1.8905,-1.8863,-1.8863,-1.8509,-1.7452,-1.5462,-1.4057,-1.2517,-1.0073,-0.9114,-0.8571,-0.8232,-0.8211,-0.7849,-0.6195,-0.4958,-0.3236,-0.0391,0.1213,0.2504,0.3647,0.4357,0.4635,0.47,0.6269,0.8274,1.073,1.0957,1.1407,1.2075,1.3415,1.432,1.432,1.3415,1.2965,1.2965,1.1172,1.0312,1.0402,0.8192,0.7335,0.7623,0.5597,0.4698,0.5197,0.4282,0.3838,0.3873,0.3929,0.3981,0.4037,0.4082,0.4148,0.4211,0.4208,0.5279,0.6883,0.0,0.0,0.0,0.0,0.0,-4.1852,-4.569,-4.615,-4.7536,-5.1825,-5.1651,-5.0358,-4.817,-4.6707,-4.37,-3.8255,-3.7144,0.0,0.0,0.0,0.0,0.0,0.0,0.0,0.0,0.0,-3.2109,-3.2111,-3.1711,-3.1299,0.0,0.0,-2.9666,-2.9104,0.0,0.0,0.0,0.0,0.0,0.0,0.0,0.0,0.0,0.0,0.0,0.0,0.0,0.0,0.0,0.0,0.0,-2.1783,-2.2388,-2.2512,-2.205,-2.0786,-2.0627,-2.1058,-2.0881,-2.0891,-2.0955,-2.0762,-2.0422,-1.9419,-1.7159,-1.5956,-1.4456,-1.1751,-1.0451,-0.9564,-0.9226,-0.8718,-0.8007,-0.7367,-0.6347,-0.487,-0.3066,-0.1582,-0.0204,0.1262,0.1287,0.1529,0.1777,0.2902,0.5143,0.8491,0.8501,0.8724,0.9616,1.1184,1.2298,1.2298,1.0957,1.0281,1.0281,0.8293,0.7435,0.7264,0.5043,0.4396,0.4664,0.3533,0.3084,0.3339,0.3354,0.3634,0.369,0.3477,0.3532,0.4114,0.3873,0.3922,0.4247,0.4211,0.6052,0.8442,0.0,0.0,0.0,0.0,0.0,0.0,-4.5333,-4.6855,-4.8568,-5.0995,-5.0701,-4.9856,-4.8624,-4.584,-4.3031,-4.0273,-3.8058,0.0,0.0,0.0,0.0,0.0,0.0,0.0,0.0,0.0,-3.3472,-3.3449,-3.3888,-3.3325,-3.1856,-3.1783,-3.0903,-2.9497,0.0,0.0,0.0,0.0,0.0,0.0,0.0,0.0,-2.7043,0.0,0.0,0.0,0.0,0.0,0.0,0.0,0.0,0.0,0.0,-2.3222,-2.3493,-2.3702,-2.473,-2.5658,-2.5247,-2.5549,-2.61,-2.5507,-2.498,-2.3714,-2.138,-2.019,-1.8864,-1.5774,-1.3521,-1.1872,-1.1374,-0.9734,-0.8334,-0.8334,-0.767,-0.6623,-0.5117,-0.4063,-0.2582,0.0,0.021,0.0643,0.1747,0.2882,0.4251,0.6262,0.6262,0.6488,0.7161,0.7161,0.7384,0.7384,0.7161,0.7161,0.7161,0.4966,0.3643,0.3674,0.1854,0.0935,0.0943,0.2376,0.2624,0.191,0.2667,0.2954,0.2998,0.2282,0.2833,0.4177,0.3444,0.3712,0.4222,0.4253,0.6066,0.859,0.0,0.0,0.0,0.0,0.0,0.0,-4.3791,-4.4307,-4.549,-4.846,-4.8179,-4.767,-4.7688,-4.593,-4.345,-4.024,-3.8483,0.0,0.0,0.0,0.0,0.0,0.0,0.0,0.0,-3.4053,-3.527,-3.6208,-3.6503,-3.6315,-3.5714,-3.4627,-3.3014,-3.1004,-3.0444,-2.9624,0.0,0.0,0.0,0.0,0.0,-2.854,-2.8755,0.0,0.0,0.0,0.0,0.0,0.0,0.0,0.0,0.0,0.0,0.0,0.0,-2.3328,-2.3986,-2.5021,-2.5171,-2.5594,-2.5848,-2.4944,-2.4437,-2.3418,-2.088,-1.9694,-1.8578,-1.5886,-1.4268,-1.3032,-1.1706,-1.0408,-0.9366,-0.8507,-0.8156,-0.7812,-0.6694,-0.5728,-0.4737,-0.3299,-0.2797,-0.221,-0.2001,-0.0447,0.112,0.2461,0.2686,0.3135,0.4027,0.2913,0.3806,0.7161,0.5596,0.4712,0.4741,0.2268,0.1143,0.1159,0.0465,0.0469,0.095,0.143,0.168,0.194,0.2203,0.2233,0.2266,0.2046,0.2335,0.2631,0.2655,0.2926,0.3449,0.3442,0.6825,1.1168,0.0,0.0,0.0,0.0,0.0,0.0,-4.282,-4.2995,-4.3715,-4.6033,-4.5924,-4.5744,-4.6153,-4.4483,-4.2382,-3.9948,-3.8294,0.0,0.0,0.0,0.0,0.0,0.0,0.0,-3.3245,-3.4981,-3.6866,-3.8901,-3.9207,-3.9132,-3.8755,-3.7642,-3.56,-3.2786,-3.2028,-3.1141,0.0,0.0,0.0,0.0,-2.9974,-2.9947,-2.9928,0.0,0.0,0.0,0.0,0.0,0.0,0.0,0.0,0.0,0.0,0.0,0.0,0.0,-2.4541,-2.4826,-2.4826,-2.5183,-2.5468,-2.4699,-2.4019,-2.3239,-2.1494,-2.0458,-1.9492,-1.8,-1.6246,-1.4698,-1.3597,-1.1792,-1.0066,-0.9243,-0.8888,-0.8367,-0.7452,-0.6887,-0.6143,-0.5001,-0.4125,-0.3562,-0.3572,-0.2462,-0.157,-0.0448,-0.0224,0.0224,0.1338,0.0448,0.1344,0.4457,0.2917,0.2254,0.2258,0.0685,0.0,0.0,0.0,0.0236,0.0477,0.072,0.097,0.1231,0.1488,0.1511,0.0,0.1296,0.1577,0.2135,0.1867,0.2131,0.2662,0.2636,0.6525,1.1643,0.0,0.0,0.0,0.0,0.0,0.0,0.0,-4.2805,-4.3101,-4.3824,-4.386,-4.388,-4.4021,-4.1831,-4.0019,-3.926,0.0,0.0,0.0,0.0,0.0,0.0,0.0,0.0,-3.4532,-3.5998,-3.8302,-4.1444,-4.1844,-4.1757,-4.1196,-4.0776,-3.8538,-3.4866,-3.3758,-3.2757,0.0,0.0,0.0,0.0,-3.1417,-3.1225,0.0,0.0,0.0,0.0,0.0,0.0,0.0,0.0,0.0,0.0,0.0,0.0,0.0,0.0,0.0,0.0,0.0,-2.4808,-2.5325,-2.4442,-2.382,-2.317,-2.2804,-2.1954,0.0,-2.133,-1.901,-1.6913,-1.6926,-1.3552,-1.0615,-1.0554,-0.9692,-0.8473,-0.7602,-0.7595,-0.7053,-0.5311,-0.4123,-0.352,-0.3544,-0.3573,-0.3365,-0.2917,-0.2243,-0.1565,-0.111,-0.0447,0.0,0.0,0.0,0.0,0.0,0.0,0.0,0.0,0.0,0.0,0.0,0.0728,0.0493,0.0,0.0757,0.1029,0.1055,0.0264,0.0801,0.1898,0.134,0.1331,0.2122,0.2096,0.5442,1.0288,0.0,0.0,0.0,0.0,0.0,0.0,0.0,0.0,0.0,0.0,-4.1723,-4.1137,-4.0524,-3.9863,-3.8834,0.0,0.0,0.0,0.0,0.0,0.0,0.0,0.0,0.0,-3.525,-3.8033,-4.0293,-4.1822,-4.4246,-4.5111,-4.462,-4.3586,-4.1005,-3.726,-3.5251,-3.3283,0.0,0.0,0.0,0.0,-3.2059,-3.1855,0.0,0.0,0.0,0.0,-3.0274,-3.0432,0.0,0.0,0.0,0.0,0.0,0.0,0.0,0.0,-2.6185,-2.596,-2.5132,0.0,-2.4391,-2.3538,-2.3112,-2.2873,0.0,-2.1965,-2.1803,-2.1803,-2.0796,-1.9304,-1.7475,-1.5934,-1.3854,-1.1196,-1.052,-1.0069,-0.91,-0.7757,-0.6608,-0.5471,-0.421,-0.402,-0.4918,-0.4032,-0.3589,-0.3365,-0.2676,-0.245,-0.2237,-0.1337,-0.0668,-0.0672,-0.0226,0.0,0.0,0.0,0.0,0.0,0.0,0.0,0.0,0.0247,0.025,0.0,0.0257,0.0261,0.0264,0.0,0.0267,0.0531,0.0266,0.0792,0.1299,0.1296,0.5161,1.0299,0.0,0.0,0.0,0.0,0.0,0.0,0.0,0.0,0.0,0.0,-4.1325,-4.0599,-3.932,-3.8818,0.0,0.0,0.0,0.0,0.0,0.0,0.0,0.0,0.0,-3.5842,-3.6806,-3.9026,-4.1394,-4.376,-4.5491,-4.6621,-4.6963,-4.5623,-4.3121,-3.957,-3.6278,-3.3909,0.0,0.0,0.0,-3.2827,-3.3621,0.0,0.0,0.0,0.0,0.0,-3.0741,-3.0721,0.0,-3.1021,-3.0699,-3.0283,0.0,0.0,0.0,0.0,-2.7633,-2.7109,-2.7188,-2.6168,-2.4923,-2.3295,-2.3053,-2.3,-2.2305,-2.1965,-2.1836,-2.1943,-2.1306,-2.018,-1.865,-1.7347,-1.5639,-1.3468,-1.2958,-1.2439,-1.1459,-0.9438,-0.7581,-0.6586,-0.534,-0.4488,-0.4485,-0.4039,-0.3589,-0.3589,-0.2897,-0.2666,-0.2676,-0.1777,-0.111,-0.0893,-0.0675,-0.0226,0.0,0.0,0.0,0.0,0.0,0.0,0.0,0.0,0.0,0.0,0.0,0.0,0.0,0.0,0.0,0.0,0.0,0.0261,0.0778,0.2074,0.5433,0.9572,0.0,0.0,0.0,0.0,0.0,0.0,0.0,0.0,0.0,0.0,0.0,0.0,0.0,0.0,0.0,0.0,0.0,0.0,0.0,0.0,0.0,0.0,-3.694,-3.741,-3.8661,-3.9876,-4.2219,-4.5779,-4.6491,-4.7543,-4.8981,-4.7702,-4.5018,-4.1287,-3.7197,-3.4662,-3.3586,-3.4318,-3.4342,-3.4006,-3.5064,0.0,0.0,0.0,0.0,0.0,0.0,0.0,0.0,-3.1433,-3.1139,-3.0728,-3.1292,0.0,0.0,0.0,0.0,0.0,-2.9552,-2.835,-2.6348,-2.3794,-2.3246,-2.3033,-2.2446,-2.1965,-2.1696,-2.1965,-2.1526,-2.0657,-2.0085,-1.8458,-1.712,-1.6088,-1.5255,-1.4672,-1.3834,-1.1552,-0.9551,-0.8743,-0.7104,-0.5826,-0.4933,-0.4703,-0.47,-0.4709,-0.378,-0.3323,-0.3329,-0.2441,-0.1775,-0.111,-0.0895,-0.0678,-0.0228,0.0,0.0,0.0,0.0,0.0,0.0,0.0,0.0,0.0,0.0,0.0,0.0,0.0,0.0,0.0,0.0,0.0,0.026,0.2856,0.572,0.8867,0.0,0.0,0.0,0.0,0.0,0.0,0.0,0.0,0.0,0.0,0.0,0.0,0.0,0.0,0.0,0.0,0.0,0.0,0.0,0.0,0.0,-4.0544,-3.9579,-3.9268,-3.9743,-4.1614,-4.3448,-4.5346,-4.8097,-4.997,-5.1121,-5.0995,-4.7438,-4.1041,-3.8755,-3.6243,-3.3655,-3.3546,-3.3477,-3.3501,-3.4535,0.0,0.0,0.0,0.0,0.0,0.0,0.0,0.0,-3.2413,-3.1903,-3.1616,-3.0894,0.0,0.0,0.0,0.0,0.0,-3.0373,-3.0269,-2.921,-2.5404,-2.3598,-2.2699,-2.2446,-2.1965,-2.1749,-2.2191,-2.2107,-2.1625,-2.0505,-1.998,-1.8879,-1.656,-1.5361,-1.4571,-1.3995,-1.318,-1.2665,-1.2463,-1.0937,-1.0289,-1.0957,-1.0218,-0.9539,-0.9616,-0.7498,-0.6387,-0.6481,-0.4004,-0.2446,-0.2462,-0.1355,-0.0914,-0.0696,-0.0233,0.0,0.0,0.0,0.0,0.0,0.0,0.0,0.0,0.0,0.0,0.0,0.0,0.0,0.0,0.0,0.0,0.0,0.0512,0.3879,0.9187,0.0,0.0,0.0,0.0,0.0,0.0,0.0,0.0,0.0,0.0,0.0,0.0,0.0,0.0,0.0,0.0,0.0,0.0,0.0,0.0,-4.1624,-4.3005,-4.2708,-4.226,-4.1644,-4.3278,-4.5228,-4.7365,-4.9688,-5.1686,-5.3152,-5.0768,-4.7327,-4.2949,-4.0023,-3.7997,-3.6785,-3.5779,-3.5544,-3.5864,0.0,0.0,0.0,0.0,0.0,0.0,0.0,0.0,0.0,0.0,-3.2229,-3.1929,-3.1253,0.0,0.0,0.0,0.0,0.0,-3.1193,-3.1333,-3.0514,-2.7499,-2.5731,-2.458,-2.3753,-2.3214,-2.3063,-2.3408,-2.3483,-2.2934,-2.1458,-2.1283,-2.0946,-1.9135,-1.8343,-1.7768,-1.7871,-1.6474,-1.5213,-1.4838,-1.2926,-1.1612,-1.1329,-1.0924,-1.071,-1.0657,-0.9742,-0.8436,-0.7161,-0.578,-0.4231,-0.2711,-0.1822,-0.1155,-0.0943,-0.0237,0.0,0.0,0.0,0.0,0.0,0.0,0.0,0.0,0.0,0.0,0.0,0.0,0.0,0.0,0.0,0.0,0.0254,0.3611,0.7321,1.1365,0.0,0.0,0.0,0.0,0.0,0.0,0.0,0.0,0.0,0.0,0.0,0.0,0.0,0.0,0.0,0.0,0.0,0.0,0.0,-4.3032,-4.3578,-4.496,-4.5144,-4.4849,-4.4086,-4.5433,-4.7332,-4.9931,-5.154,-5.3123,-5.4662,-5.0919,-4.774,-4.4969,-4.1775,-4.0012,-3.9537,-3.8261,-3.7855,-3.7965,0.0,0.0,0.0,0.0,0.0,0.0,0.0,0.0,0.0,0.0,0.0,0.0,0.0,0.0,0.0,-3.1217,-3.1131,-3.12,-3.2347,-3.2406,-3.1794,-3.0079,-2.8221,-2.6402,-2.4877,-2.4237,-2.4107,-2.4398,-2.4362,-2.38,-2.2664,-2.2332,-2.1944,-2.0955,-2.0604,-2.0556,-2.1059,-1.9267,-1.748,-1.6679,-1.4838,-1.3338,-1.2363,-1.2496,-1.2534,-1.2181,-1.178,-1.0932,-0.895,-0.8227,-0.6704,-0.3866,-0.3214,-0.2332,-0.1196,-0.0482,-0.0243,0.0,0.0,0.0,0.0,0.0,0.0,0.0,0.0,0.0,0.0,0.0,0.0,0.0,0.0,0.0,0.0511,0.575,0.8991,1.1155,0.0,0.0,0.0,0.0,0.0,0.0,0.0,0.0,0.0,0.0,0.0,0.0,0.0,0.0,0.0,0.0,0.0,0.0,0.0,-4.4522,-4.5203,-4.6565,-4.6055,-4.6173,-4.714,-4.8248,-5.0019,-5.2413,-5.3646,-5.4662,-5.53,-5.3588,-5.0531,-4.6401,-4.4676,-4.2301,-3.9564,-3.9511,-3.8865,-3.8015,-3.8417,0.0,0.0,0.0,0.0,0.0,0.0,0.0,0.0,0.0,0.0,0.0,0.0,0.0,-3.3732,-3.2429,-3.2278,-3.2775,-3.3905,-3.4032,-3.3742,-3.3212,-3.0069,-2.681,-2.4973,-2.4107,-2.3903,-2.4366,-2.4051,-2.3455,-2.3686,-2.266,-2.1464,-2.0332,-2.0385,-2.0702,-2.1075,-2.0023,-1.9095,-1.8962,-1.8003,-1.7219,-1.6994,-1.7014,-1.7286,-1.7391,-1.529,-1.3953,-1.3838,-1.1612,-0.9454,-0.6875,-0.6239,-0.4698,-0.1929,-0.1215,-0.0734,0.0,0.0,0.0,0.0,0.0,0.0,0.0,0.0,0.0,0.0,0.0,0.0,0.0,0.0,0.0,0.0263,0.3447,0.4785,0.5313,0.0,0.0,0.0,0.0,0.0,0.0,0.0,0.0,0.0,0.0,0.0,0.0,0.0,0.0,0.0,0.0,0.0,0.0,0.0,-4.5953,-4.6716,-4.849,-4.8409,-4.8883,-4.9911,-5.0044,-5.1482,-5.4342,-5.562,-5.5765,-5.4807,-5.23,-4.9852,-4.7363,-4.4948,-4.361,-4.3013,-4.168,-4.1213,-4.1459,-4.0633,-3.927,0.0,0.0,0.0,0.0,0.0,0.0,0.0,0.0,-3.6156,-3.5107,-3.4293,-3.3459,-3.2872,-3.232,-3.2398,-3.2981,-3.4385,-3.4976,-3.4979,-3.3985,-3.2703,-3.1208,-2.9444,-2.7641,-2.6522,-2.7227,-2.5708,-2.3908,-2.2913,-2.1915,-2.0969,-2.0556,-2.0669,-2.0848,-2.1092,-2.0039,-1.9357,-1.9297,-1.8347,-1.7704,-1.7528,-1.7758,-1.786,-1.7738,-1.6956,-1.5928,-1.4407,-1.3573,-1.1435,-0.7447,-0.6836,-0.5261,-0.2429,-0.147,-0.0987,-0.0497,-0.025,0.0,0.0,0.0,0.0,0.0,0.0,0.0,0.0,0.0,0.0,0.0,0.0,0.0,0.0266,0.3174,0.424,0.4519,0.0,0.0,0.0,0.0,0.0,0.0,0.0,0.0,0.0,0.0,0.0,0.0,0.0,0.0,0.0,0.0,0.0,0.0,-4.7206,-4.7276,-4.8027,-4.9613,-5.0128,-5.0778,-5.1789,-5.1943,-5.3143,-5.5416,-5.6897,-5.6432,-5.4168,-5.1851,-5.0052,-4.8766,-4.6175,-4.5436,-4.6041,-4.4084,-4.3409,-4.3534,-4.1855,-4.0185,0.0,0.0,0.0,0.0,0.0,0.0,0.0,0.0,-3.6716,-3.5605,-3.5156,-3.4316,-3.3256,-3.2956,-3.3272,-3.3991,-3.4722,-3.5799,-3.6372,-3.5035,-3.5018,-3.4998,-3.3993,-3.0882,-2.8276,-2.899,-2.7344,-2.4794,-2.2047,-2.1703,-2.1703,-2.107,-2.0945,-2.1027,-2.1043,-2.0046,-1.9401,-1.9245,-1.8326,-1.7738,-1.7575,-1.7846,-1.7968,-1.786,-1.8057,-1.7497,-1.5943,-1.5834,-1.3709,-0.8989,-0.837,-0.6529,-0.2938,-0.1974,-0.1244,-0.1002,-0.0252,0.0,0.0,0.0,0.0,0.0,0.0,0.0,0.0,0.0,0.0,0.0,0.0,0.0,0.0269,0.2135,0.2936,0.3216,0.0,0.0,0.0,0.0,0.0,0.0,0.0,0.0,0.0,0.0,0.0,0.0,0.0,0.0,0.0,0.0,0.0,0.0,-4.7968,-4.8496,-4.9154,-4.9879,-5.0659,-5.158,-5.251,-5.4171,-5.513,-5.5416,-5.7332,-5.6636,-5.35,-5.2943,-5.1966,-5.0738,-4.8872,-4.8134,-4.805,-4.6813,-4.5302,-4.3562,-4.1881,-4.0211,-3.8631,0.0,0.0,0.0,0.0,0.0,0.0,0.0,-3.8997,-3.7655,-3.7976,-3.7057,-3.5845,-3.4724,-3.5189,-3.5918,-3.4929,-3.624,-3.7521,-3.6498,-3.668,-3.7144,-3.7348,-3.2888,-2.8731,-2.9248,-2.8141,-2.5828,-2.1433,-2.2645,-2.3621,-2.1276,-2.1148,-2.1254,-2.0905,-2.0295,-1.9461,-1.8954,-1.8114,-1.7704,-1.7846,-1.786,-1.7989,-1.8301,-1.8321,-1.8389,-1.8531,-1.8687,-1.6531,-1.1519,-1.1299,-0.8729,-0.2961,-0.2239,-0.1753,-0.101,-0.0254,0.0,0.0,0.0,0.0,0.0,0.0,0.0,0.0,0.0,0.0,0.0,0.0,0.0,0.0,0.0,0.0,0.0,0.0,0.0,0.0,0.0,0.0,0.0,0.0,0.0,0.0,0.0,0.0,0.0,0.0,0.0,0.0,0.0,0.0,0.0,-4.777,-4.8754,-4.9403,-4.9458,-5.0995,-5.1678,-5.1351,-5.2366,-5.3769,-5.5416,-5.5997,-5.5097,-5.2833,-5.188,-5.0938,-5.0138,-4.9126,-4.8724,-4.8668,-4.7459,-4.7119,-4.7244,-4.5353,-4.3468,-4.1676,0.0,0.0,0.0,0.0,0.0,0.0,0.0,0.0,0.0,-3.6898,-3.5886,-3.4511,-3.4435,-3.5189,-3.62,-3.6402,-3.6844,-3.7484,-3.7338,-3.6653,-3.5735,-3.5512,-3.2915,-2.9591,-2.6233,-2.5023,-2.3767,-2.1205,-2.1163,-2.1356,-2.0865,-2.0759,-2.0832,-2.0848,-2.0186,-1.9401,-1.9252,-1.8326,-1.7772,-1.7717,-1.7894,-1.8111,-1.8301,-1.8409,-1.8586,-1.885,-1.8993,-1.6763,-1.1625,-1.1686,-0.9084,-0.3732,-0.2494,-0.2009,-0.1781,-0.0513,0.0,0.0,0.0,0.0,0.0,0.0,0.0,0.0,0.0,0.0,0.0,0.0,0.0,0.0,0.0,0.0,0.0,0.0,0.0,0.0,0.0,0.0,0.0,0.0,0.0,0.0,0.0,-4.8002,-4.9329,0.0,0.0,0.0,0.0,0.0,0.0,-4.7704,-4.8882,-4.9491,-4.9349,-5.1145,-5.2091,-5.2029,-5.2611,-5.3549,-5.4582,-5.4679,-5.3936,-5.2572,-5.232,-5.2223,-5.2109,-5.1694,-5.1309,-5.0775,-4.9539,-4.9174,-4.9238,-4.7421,-4.5395,-4.3566,0.0,0.0,0.0,0.0,0.0,0.0,0.0,0.0,0.0,-3.5756,-3.4907,-3.373,-3.4539,-3.5638,-3.6661,-3.6908,-3.7385,-3.7767,-3.6622,-3.5824,-3.4703,-3.3,-3.1476,-2.9225,-2.4904,-2.4327,-2.3737,-2.1193,-2.1135,-2.133,-2.088,-2.0913,-2.0921,-2.0954,-2.0085,-1.9521,-1.9394,-1.8494,-1.7948,-1.7914,-1.8124,-1.8355,-1.8565,-1.8728,-1.8905,-1.9149,-1.9305,-1.6995,-1.1719,-1.1772,-0.939,-0.3994,-0.3003,-0.227,-0.2042,-0.1029,-0.026,0.0,0.0,0.0,0.0,0.0,0.0,0.0,0.0,0.0,0.0,0.0,0.0,0.0,0.0,0.0,0.0,0.0,0.0,0.0,0.0,0.0,0.0,0.0,0.0,0.0,-4.8314,-4.9615,-5.053,0.0,0.0,0.0,-4.9804,-4.8668,-4.7902,-4.7803,-4.8915,-4.9524,-4.9343,-5.1177,-5.2701,-5.3773,-5.4168,-5.4083,-5.3408,-5.3574,-5.336,-5.2894,-5.4172,-5.4937,-5.5481,-5.5532,-5.4878,-5.3585,-5.2264,-5.1084,-4.9967,-4.816,-4.6323,-4.4607,-4.3522,0.0,0.0,0.0,0.0,0.0,0.0,0.0,0.0,-3.4757,-3.4103,-3.3579,-3.5123,-3.6225,-3.7123,-3.6626,-3.7644,-3.8071,-3.5041,-3.4547,-3.3742,-3.025,-2.9384,-2.8268,-2.4754,-2.4969,-2.475,-2.1741,-2.1965,-2.244,-2.1546,-2.136,-2.1295,-2.1148,-2.0324,-1.9752,-1.9439,-1.86,-1.8179,-1.8301,-1.8477,-1.8687,-1.8993,-1.9149,-1.9291,-1.9447,-1.959,-1.7191,-1.2049,-1.1813,-0.9397,-0.3998,-0.3273,-0.2538,-0.2044,-0.1286,-0.0518,0.0,0.0,0.0,0.0,0.0,0.0,0.0,0.0,0.0,0.0,0.0,0.0,0.0,0.0,0.0,0.0,0.0,0.0,0.0,0.0,0.0,0.0,0.0,0.0,-4.835,-4.9138,-4.9972,-5.0744,-5.1351,-5.0465,0.0,-4.9804,-4.8543,-4.7935,-4.8292,-4.8968,-4.9505,-4.9913,-5.1361,-5.278,-5.3945,-5.3467,-5.3377,-5.356,-5.4596,-5.4858,-5.4565,-5.583,-5.6321,-5.6223,-5.6181,-5.5271,-5.3557,-5.1815,-5.1197,-5.1148,-4.8712,-4.6976,-4.5693,-4.3966,-4.1864,0.0,0.0,0.0,0.0,0.0,0.0,0.0,-3.5333,-3.4503,-3.3891,-3.5192,-3.6022,-3.6592,-3.6899,-3.7296,-3.6919,-3.5018,-3.2762,-3.0419,-2.8298,-2.8016,-2.729,-2.4817,-2.4442,-2.3899,-2.1524,-2.1226,-2.1185,-2.1157,-2.1181,-2.1173,-2.1132,-2.0324,-1.9789,-1.9595,-1.886,-1.8409,-1.8321,-1.8674,-1.8972,-1.9149,-1.9291,-1.9447,-1.961,-1.9644,-1.7191,-1.2049,-1.1878,-0.9222,-0.403,-0.2791,-0.2046,-0.206,-0.0774,-0.0259,0.0,0.0,0.0,0.0,0.0,0.0,0.0,0.0,0.0,0.0,0.0,0.0,0.0,0.0,0.0,0.0,0.0,0.0,0.0,0.0,0.0,0.0,0.0,0.0,-5.0521,-5.0557,-5.0865,-5.1244,-5.1637,-5.0515,0.0,0.0,-4.8718,-4.816,-4.8315,-4.9322,-5.0091,-5.0584,-5.1977,-5.2842,-5.3149,-5.3738,-5.4242,-5.4427,-5.5815,-5.6185,-5.5496,-5.6474,-5.7212,-5.7794,-5.7394,-5.6283,-5.4484,-5.3501,-5.2939,-5.2603,-5.0864,-4.9167,-4.7581,-4.5478,-4.3227,-4.0953,-4.0203,0.0,0.0,0.0,0.0,0.0,0.0,0.0,-3.3897,-3.5292,-3.6307,-3.6796,-3.7517,-3.7554,-3.6878,-3.3904,-3.0962,-2.832,-2.7502,-2.7144,-2.6539,-2.4827,-2.44,-2.3851,-2.1773,-2.1303,-2.1303,-2.149,-2.1506,-2.1506,-2.1506,-2.0686,-2.0199,-2.0102,-1.9374,-1.8905,-1.8762,-1.9094,-1.9305,-1.9305,-1.9447,-1.9576,-1.9664,-1.9664,-1.7971,-1.3839,-1.2409,-1.0009,-0.6084,-0.4075,-0.2818,-0.2065,-0.1291,-0.0777,0.0,0.0,0.0,0.0,0.0,0.0,0.0,0.0,0.0,0.0,0.0,0.0,0.0,0.0,0.0,0.0,0.0,0.0,0.0,0.0,0.0,0.0,0.0,0.0,0.0,-5.1779,-5.1708,-5.1708,-5.1658,-5.046,-4.9698,0.0,0.0,0.0,-4.8567,-4.9766,-5.0765,-5.1329,-5.2495,-5.3013,-5.2754,-5.4373,-5.5409,-5.5798,-5.6783,-5.7078,-5.6714,-5.7268,-5.8253,-5.9273,-5.8579,-5.7322,-5.5636,-5.5327,-5.4597,-5.3584,-5.2498,-5.111,-4.9238,-4.6861,-4.4535,-4.2381,-4.1522,-4.126,-4.0899,-3.8633,0.0,0.0,0.0,0.0,-3.4057,-3.56,-3.6745,-3.7434,-3.8007,-3.7686,-3.64,-3.2851,-2.9659,-2.7424,-2.7424,-2.6901,-2.5928,-2.4919,-2.4477,-2.3693,-2.2038,-2.1684,-2.1766,-2.1912,-2.1936,-2.1953,-2.2017,-2.1148,-2.0661,-2.0683,-1.9936,-1.9447,-1.9291,-1.9556,-1.9678,-1.9556,-1.9664,-1.9732,-1.9732,-1.9732,-1.8561,-1.6176,-1.371,-1.1056,-0.8147,-0.587,-0.3847,-0.2065,-0.1807,-0.1037,0.0,0.0,0.0,0.0,0.0,0.0,0.0,0.0,0.0,0.0,0.0,0.0,0.0,0.0,0.0,0.0,0.0,0.0,0.0,0.0,0.0,0.0,0.0,0.0,0.0,0.0,-5.1708,-5.1607,-5.1402,-5.0659,-5.0195,-5.0134,-4.9389,-4.925,-5.0033,0.0,0.0,-5.2041,-5.2236,-5.3175,-5.4956,-5.4697,-5.5442,-5.7288,-5.6413,-5.7322,-5.9773,-5.9895,-5.9989,-6.0022,-5.8777,-5.7547,-5.6198,-5.4597,-5.381,-5.3443,-5.1094,-5.0037,-4.9585,-4.6318,-4.4666,-4.3984,-4.3088,-4.3051,-4.3071,-4.0541,-3.9853,0.0,0.0,0.0,-3.5867,-3.5983,-3.6745,-3.7496,-3.8154,-3.6146,-3.3614,-3.2492,-3.0071,-2.7919,-2.7919,-2.7256,-2.6236,-2.5519,-2.4348,-2.3153,-2.1874,-2.179,-2.1912,-2.1936,-2.1936,-2.2042,-2.2359,-2.141,-2.0877,-2.1034,-2.0267,-1.9752,-1.961,-1.9875,-2.0031,-2.001,-2.0031,-2.0051,-2.0051,-2.0051,-1.879,-1.6303,-1.5906,-1.3195,-0.8147,-0.7176,-0.5147,-0.2065,-0.0774,-0.0259,0.0,0.0,0.0,0.0,0.0,0.0,0.0,0.0,0.0,0.0,0.0,0.0,0.0,0.0,0.0,0.0,0.0,0.0,0.0,0.0,0.0,0.0,0.0,0.0,0.0,0.0,0.0,-5.2183,-5.2537,-5.173,-5.1073,-5.0701,-5.0293,-5.0298,-5.0797,-5.108,-5.1329,-5.162,-5.2398,-5.3272,-5.4211,-5.4729,-5.583,-5.7579,-5.6745,-5.8113,-6.1472,-6.0395,-6.0196,-6.0595,-5.905,-5.7997,-5.7407,-5.6226,-5.5749,-5.5541,-5.3068,-5.2201,-5.1872,-4.8415,-4.7064,-4.6674,-4.5341,-4.5117,-4.5119,-4.2195,-4.1275,-4.0888,-3.7191,0.0,0.0,0.0,-3.7097,-3.765,-3.7138,-3.4482,-3.179,-3.0883,-2.9308,-2.7632,-2.712,-2.6333,-2.5567,-2.4762,-2.3501,-2.2636,-2.1961,-2.2017,-2.2147,-2.2342,-2.2383,-2.2234,-2.2257,-2.1666,-2.1196,-2.1013,-2.047,-2.0187,-2.0051,-2.0153,-2.0187,-2.0098,-2.0098,-2.0098,-2.0098,-2.0098,-1.9641,-1.8454,-1.6989,-1.4258,-1.0493,-0.8731,-0.5937,-0.2077,-0.0779,0.0,0.0,0.0,0.0,0.0,0.0,0.0,0.0,0.0,0.0,0.0,0.0,0.0,0.0,0.0,0.0,0.0,0.0,0.0,0.0,0.0,0.0,0.0,0.0,0.0,0.0,0.0,0.0,-5.2873,-5.3419,0.0,0.0,0.0,-5.1057,-5.1015,-5.121,-5.1199,-5.1199,-5.1199,-5.2365,-5.3142,-5.3337,-5.4697,-5.6122,-5.7579,-5.6947,-5.8651,-6.2331,-6.0132,-6.0052,-6.155,-5.9541,-5.8671,-5.8502,-5.7884,-5.7444,-5.7092,-5.5043,-5.4152,-5.3733,-5.0765,-4.972,-4.9549,-4.8067,-4.762,-4.7372,-4.4082,-4.2858,-4.2128,-3.8456,-3.7362,0.0,0.0,0.0,-3.7825,-3.6653,-3.4266,-3.1861,-3.0465,-2.9169,-2.7739,-2.6633,-2.5433,-2.467,-2.4038,-2.303,-2.2212,-2.2253,-2.2253,-2.2359,-2.2675,-2.2724,-2.2579,-2.2141,-2.179,-2.1571,-2.0964,-2.0505,-2.0417,-2.0383,-2.0349,-2.0295,-2.0227,-2.0207,-2.0207,-2.0207,-2.0207,-2.0261,-2.0383,-1.8344,-1.6099,-1.3363,-0.9772,-0.5946,-0.2087,-0.0783,-0.0262,0.0,0.0,0.0,0.0,0.0,0.0,0.0,0.0,0.0,0.0,0.0,0.0,0.0,0.0,0.0,0.0,0.0,0.0,0.0,0.0,0.0,0.0,0.0,0.0,0.0,0.0,0.0,-5.3419,-5.3176,-5.2354,-5.177,-5.1665,-5.1181,-5.0975,-5.121,-5.1199,-5.1199,-5.1199,-5.1879,0.0,-5.3304,-5.4697,-5.6122,-5.7579,-5.6718,-5.8338,-6.2247,-5.9392,-5.9707,-6.2851,-6.0898,-5.9711,-5.9121,-5.8502,-5.7786,-5.6828,-5.5393,-5.4628,-5.4249,-5.2392,-5.1979,-5.2333,-5.1493,-5.0834,-4.9966,-4.6499,-4.479,-4.3496,-3.954,-3.8381,-3.8212,0.0,0.0,0.0,-3.8179,-3.6609,-3.4533,-3.2776,-3.0846,-2.8826,-2.7341,-2.5326,-2.3804,-2.4173,-2.3208,-2.2253,-2.2424,-2.2448,-2.2513,-2.27,-2.2724,-2.2668,-2.2468,-2.2077,-2.1535,-2.1256,-2.07,-2.0227,-2.0505,-2.0397,-2.0383,-2.0505,-2.0526,-2.0526,-2.0526,-2.0526,-2.0526,-2.0526,-2.0285,-1.8988,-1.6185,-1.0278,-0.5428,-0.2087,-0.1305,-0.0526,0.0,0.0,0.0,0.0,0.0,0.0,0.0,0.0,0.0,0.0,0.0,0.0,0.0,0.0,0.0,0.0,0.0,0.0,0.0,0.0,0.0,0.0,0.0,0.0,0.0,0.0,0.0,0.0,0.0,-5.3852,-5.3229,-5.2469,-5.1625,-5.1132,-5.1167,-5.1588,-5.1847,-5.1847,-5.2981,-5.3725,-5.4017,-5.5409,-5.6608,-5.7579,-5.7522,-5.9097,-6.2247,-6.0516,-6.0968,-6.291,-6.0983,-6.0469,-6.0947,-5.9907,-6.0018,-6.0518,-5.8387,-5.7953,-5.8218,-5.577,-5.5108,-5.5509,-5.435,-5.3727,-5.2969,-4.8826,-4.7175,-4.5899,-4.0804,-3.9554,-3.9841,-3.8735,-3.7975,-3.7057,-3.619,-3.5017,-3.3625,-3.2312,-3.0409,-2.8715,-2.7508,-2.544,-2.3745,-2.3318,-2.2645,-2.2383,-2.2448,-2.2553,-2.2683,-2.287,-2.3,-2.2933,-2.2039,-2.1918,-2.1319,-2.0505,-2.0409,-2.0261,-2.0261,-2.0383,-2.0404,-2.0275,-2.0349,-2.0397,-2.0397,-2.0397,-2.0451,-2.0539,-2.0539,-1.8224,-1.3884,-0.9044,-0.4944,-0.2102,-0.0788,-0.0265,0.0,0.0,0.0,0.0,0.0,0.0,0.0,0.0,0.0,0.0,0.0,0.0,0.0,0.0,0.0,0.0,0.0,0.0,0.0,0.0,0.0,0.0,0.0,0.0,-5.3762,-5.4479,0.0,0.0,0.0,0.0,-5.4396,-5.2994,-5.2089,-5.1523,-5.1523,-5.2171,-5.2689,-5.2916,-5.4082,-5.4859,-5.5118,-5.6478,-5.745,-5.7935,-5.8351,-5.9696,-6.1901,-6.0877,-6.141,-6.291,-6.1411,-6.134,-6.2296,-6.1874,-6.183,-6.2067,-6.0671,-6.0088,-5.9713,-5.818,-5.7593,-5.7682,-5.6659,-5.6207,-5.5563,-5.1744,-4.9823,-4.8098,-4.3364,-4.1083,-4.0298,-3.9354,-3.8019,-3.6806,-3.5929,-3.4682,-3.3727,-3.2947,-3.1499,-2.9888,-2.8225,-2.6243,-2.4576,-2.29,-2.2472,-2.2472,-2.2472,-2.2659,-2.2846,-2.2976,-2.3146,-2.2838,-2.1805,-2.169,-2.1283,-2.0107,-2.001,-2.0098,-2.0098,-2.0227,-2.0261,-2.0119,-2.0187,-2.0275,-2.0329,-2.0329,-2.0397,-2.0539,-2.0539,-1.7975,-1.2339,-0.932,-0.6007,-0.2111,-0.0793,-0.0266,0.0,0.0,0.0,0.0,0.0,0.0,0.0,0.0,0.0,0.0,0.0,0.0,0.0,0.0,0.0,0.0,0.0,0.0,0.0,0.0,0.0,0.0,-5.3689,-5.4272,-5.4656,-5.4349,0.0,0.0,0.0,0.0,0.0,-5.3394,-5.2617,-5.2268,-5.2268,-5.2948,-5.3693,-5.4438,-5.5037,-5.5716,-5.651,-5.7818,-5.8561,-5.8594,-5.9083,-6.0012,-6.1239,-6.0276,-6.0911,-6.282,-6.2352,-6.2408,-6.3026,-6.4207,-6.3355,-6.111,-6.2135,-6.077,-5.8165,-5.9247,-5.9342,-5.9017,-5.8494,-5.8296,-5.8029,-5.571,-5.3046,-4.9949,-4.6733,-4.301,-3.9488,-3.9488,-3.8052,-3.6781,0.0,0.0,0.0,-3.4723,-3.4236,-3.2885,-2.9075,-2.754,-2.6291,-2.3147,-2.2472,-2.2472,-2.2489,-2.2765,-2.3,-2.3,-2.3146,-2.2838,-2.1805,-2.1593,-2.1166,-2.0086,-1.9752,-1.9786,-2.0064,-1.9963,-1.9942,-2.0085,-2.0085,-2.0153,-2.0315,-2.0329,-2.0397,-2.0539,-2.0539,-1.7975,-1.2595,-1.1651,-0.8349,-0.2111,-0.1329,-0.0535,0.0,0.0,0.0,0.0,0.0,0.0,0.0,0.0,0.0,0.0,0.0,0.0,0.0,0.0,0.0,0.0,0.0,0.0,0.0,0.0,0.0,-5.41,-5.4343,-5.4535,-5.4931,0.0,0.0,0.0,-5.6656,-5.7193,-5.7006,-5.5469,-5.5303,-5.4861,-5.3823,-5.4115,-5.4659,-5.5365,-5.5729,-5.6034,-5.6225,-5.7115,-5.7815,-5.8324,-5.9065,-6.0156,-6.1464,-6.1365,-6.191,-6.2878,-6.3236,-6.3392,-6.356,-6.3476,-6.3997,-6.4984,-6.4069,-6.3407,-6.3048,-6.2106,-6.1702,-6.1666,-6.1119,-6.0707,-5.9954,-5.7752,-5.4744,-5.1005,-4.5699,-4.222,-4.0224,-3.995,-3.8597,-3.7321,-3.7289,0.0,0.0,0.0,0.0,0.0,-3.0752,-2.9075,-2.724,-2.4244,-2.3828,-2.3692,-2.3031,-2.2935,-2.2796,-2.2449,-2.2614,-2.2499,-2.182,-2.1115,-2.0644,-1.9962,-1.9766,-1.98,-1.9786,-1.9942,-1.9963,-1.98,-1.9875,-1.9997,-2.0153,-2.0363,-2.0505,-2.0539,-2.0539,-1.8746,-1.5413,-1.2163,-0.8604,-0.5002,-0.1859,-0.0268,0.0,0.0,0.0,0.0,0.0,0.0,0.0,0.0,0.0,0.0,0.0,0.0,0.0,0.0,0.0,0.0,0.0,0.0,-5.4954,-5.5812,-5.6075,-5.6404,-5.6894,-5.6821,-5.6834,0.0,0.0,0.0,-5.9047,-5.9689,-5.9553,-5.8136,-5.7631,-5.6854,-5.5486,-5.5505,-5.5793,-5.632,-5.6467,-5.6726,-5.701,-5.7706,-5.8274,-5.856,-5.9781,-6.0571,-6.0969,-6.1291,-6.1761,-6.2395,-6.3062,-6.3869,-6.4572,-6.4488,-6.4555,-6.4945,-6.5135,-6.446,-6.3434,-6.2897,-6.2664,-6.2573,-6.2409,-6.2245,-6.1898,-6.0256,-5.6466,-5.1594,-4.699,-4.3484,-4.1251,-4.1046,-3.9891,-3.8578,-3.8015,-3.71,-3.6282,-3.6162,0.0,0.0,-3.1342,-3.0092,-2.8274,-2.4244,-2.3607,-2.347,-2.3072,-2.2951,-2.282,-2.2265,-2.2211,-2.1835,-2.1358,-2.088,-2.038,-1.9664,-1.9732,-1.9752,-1.9664,-1.982,-1.9854,-1.9678,-1.9732,-1.9875,-2.0085,-2.0383,-2.0539,-2.0539,-2.0539,-1.9267,-1.6445,-1.3443,-1.0674,-0.7851,-0.3706,-0.1601,-0.1608,-0.0538,0.0,0.0,0.0,0.0,0.0,0.0,0.0,0.0,0.0,0.0,0.0,0.0,0.0,0.0,0.0,0.0,-5.6704,-5.8452,-5.9207,-5.9752,-6.0212,-5.9993,-5.9731,0.0,-5.9668,-6.0634,-6.2875,-6.322,-6.2751,-6.1346,-6.0037,-5.8823,-5.7483,-5.7157,-5.7179,-5.7425,-5.7459,-5.7743,-5.8247,-5.9003,-5.9349,-5.9286,-6.0808,-6.1196,-6.0425,-6.0886,-6.1377,-6.1862,-6.2705,-6.401,-6.5724,-6.6398,-6.5209,-6.3051,-6.5788,-6.4863,-6.1613,-6.2637,-6.3153,-6.3106,-6.3123,-6.337,-6.3646,-6.2578,-5.8074,-5.2389,-4.9492,-4.5979,-4.2743,-4.2347,-4.1302,-4.0109,-3.9098,-3.7928,-3.7111,-3.6545,-3.7022,0.0,-3.1308,-3.0608,-2.952,-2.3954,-2.2629,-2.2703,-2.2659,-2.283,-2.2756,-2.2203,-2.1894,-2.1306,-2.063,-2.0622,-2.0394,-1.9664,-1.9664,-1.9664,-1.9664,-1.9664,-1.9664,-1.9664,-1.9698,-1.982,-2.0085,-2.0383,-2.0539,-2.0539,-2.0539,-1.9255,-1.695,-1.5258,-1.3237,-1.0664,-0.6595,-0.4516,-0.3988,-0.1608,-0.0269,0.0,0.0,0.0,0.0,0.0,0.0,0.0,0.0,0.0,0.0,0.0,0.0,0.0,-5.7606,-5.8181,-5.8771,-5.91,-6.0361,-6.1312,-6.1427,-6.1396,-6.171,-6.2603,-6.3772,-6.5152,-6.6807,-6.704,-6.6484,-6.5175,-6.4319,-6.306,-6.1247,-5.9676,-5.8876,-5.8996,-5.9197,-5.9092,-5.869,-5.9866,-6.0237,-5.968,-6.1093,-6.1976,-6.2242,-6.24,-6.3084,-6.4129,-6.3789,-6.4403,-6.5752,-6.6848,-6.6223,-6.4621,-6.663,-6.6409,-6.4942,-6.5118,-6.5515,-6.5794,-6.5299,-6.523,-6.4851,-6.1341,-5.8211,-5.4897,-5.0533,-4.7357,-4.4841,-4.2932,-4.1672,-4.0749,-3.9227,-3.7928,-3.6989,-3.6179,-3.6509,0.0,-3.2468,-3.179,-3.0596,-2.5796,-2.4047,-2.3257,-2.2686,-2.2553,-2.2354,-2.1689,-2.1483,-2.1055,-2.0594,-2.0144,-1.9908,-1.9664,-1.9664,-1.9664,-1.9664,-1.9664,-1.9664,-1.9664,-1.9875,-2.0051,-2.0098,-2.0383,-2.0539,-2.0539,-2.0539,-2.0278,-1.977,-1.6292,-1.4017,-1.35,-0.9437,-0.6325,-0.3958,-0.3455,-0.2128,0.0,0.0,0.0,0.0,0.0,0.0,0.0,0.0,0.0,0.0,0.0,0.0,0.0,-5.9346,-5.9402,-5.975,-6.0892,-6.2064,-6.3273,-6.4459,-6.4485,-6.4893,-6.6221,-6.7738,-6.8785,-6.9213,-6.9305,-6.8876,-6.7811,-6.6509,-6.5115,-6.3449,-6.181,-6.0652,-6.0183,-6.0219,-6.0116,-5.9778,-6.0794,-6.0978,-6.0301,-6.1994,-6.2517,-6.1859,-6.2231,-6.3175,-6.4501,-6.4025,-6.5083,-6.7424,-6.8501,-6.7925,-6.6391,-6.7286,-6.6666,-6.5061,-6.5367,-6.584,-6.6493,-6.624,-6.5988,-6.5355,-6.1884,-5.8521,-5.5164,-5.1724,-4.858,-4.5836,-4.4497,-4.358,-4.2821,-4.0318,-3.9221,-3.8333,-3.6963,-3.6978,0.0,0.0,-3.205,-3.0208,-2.6512,-2.4138,-2.2712,-2.2637,-2.2472,-2.229,-2.1775,-2.1536,-2.1019,-2.0867,-1.9984,-1.9556,-1.9556,-1.961,-1.9624,-1.9556,-1.961,-1.9664,-1.9664,-1.9942,-2.0098,-2.0098,-2.0383,-2.0539,-2.0539,-2.0539,-2.0539,-2.0539,-1.7779,-1.6527,-1.6527,-1.2235,-0.9676,-0.8107,-0.6854,-0.4754,-0.2109,-0.2115,-0.1326,0.0,0.0,0.0,0.0,0.0,0.0,0.0,0.0,0.0,0.0,-6.0893,-6.049,-6.0653,-6.237,-6.3833,-6.5395,-6.7301,-6.7661,-6.8187,-6.9739,-7.1297,-7.2108,-7.1328,-7.1647,-7.1737,-7.0859,-6.9339,-6.7875,-6.6444,-6.4851,-6.3536,-6.2364,-6.1871,-6.1656,-6.1779,-6.2302,-6.221,-6.1379,-6.341,-6.3528,-6.1902,-6.2322,-6.341,-6.4805,-6.4439,-6.6031,-6.9093,-7.0054,-6.9432,-6.7867,-6.8066,-6.6546,-6.4385,-6.5229,-6.5873,-6.67,-6.6906,-6.67,-6.5842,-6.2989,-5.9317,-5.5366,-5.3038,-4.9846,-4.6854,-4.596,-4.5618,-4.4836,-4.1803,-4.0674,-4.0054,-3.82,-3.7622,-3.7098,0.0,0.0,0.0,-2.7034,-2.4244,-2.2153,-2.2212,-2.2302,-2.2169,-2.1953,-2.1483,-2.1093,-2.0899,-2.0124,-1.9571,-1.966,-1.9576,-1.961,-1.9447,-1.9535,-1.961,-1.961,-1.9888,-2.0064,-2.0098,-2.0349,-2.0505,-2.0539,-2.0539,-2.0539,-2.0278,-1.9007,-1.8497,-1.8254,-1.4739,-1.2966,-1.2195,-0.993,-0.7602,-0.4981,-0.4986,-0.3415,-0.0789,-0.0788,-0.0524,0.0,0.0,0.0,0.0,0.0,0.0,0.0258,-6.0428,-6.1401,-6.2399,-6.2018,-6.4772,-6.7336,-6.7964,-6.9118,-7.0567,-7.2084,-7.4124,-7.5136,-7.4364,-7.5934,-7.674,-7.6105,-7.5746,-7.4897,-7.3049,-7.0362,-6.8625,-6.8051,-6.5688,-6.4703,-6.5319,-6.5411,-6.4795,-6.3472,-6.5565,-6.6129,-6.5351,-6.4785,-6.5228,-6.6387,-6.6117,-6.7252,-6.9455,-7.0325,-7.0152,-6.9024,-6.9152,-6.7366,-6.5047,-6.6406,-6.71,-6.732,-6.8215,-6.8514,-6.7873,-6.4599,-6.1617,-5.8524,-5.4493,-5.1436,-4.9023,-4.6871,-4.6371,-4.5922,-4.2576,-4.123,-4.0416,-3.8542,-3.7797,-3.7258,-3.572,0.0,-3.0691,-2.7929,0.0,-2.2557,-2.1718,0.0,0.0,-2.1595,-2.1315,-2.1063,-2.0267,-1.972,-1.9918,-2.0345,-2.0053,-1.961,-1.9447,-1.9447,-1.9447,-1.9447,-1.9732,-1.9963,-2.0098,-2.0261,-2.0417,-2.0539,-2.0539,-2.0292,-1.9528,-1.8764,-1.8254,-1.7489,-1.6472,-1.469,-1.2372,-1.2191,-1.0377,-0.7741,-0.7787,-0.6252,-0.3648,-0.3624,-0.2074,0.0,0.0,0.0,0.0,0.0,0.0258,0.1033,-6.1085,-6.1335,-6.2143,-6.3032,-6.504,-6.7246,-6.9118,-7.2222,-7.4602,-7.5223,-7.6918,-7.7475,-7.6307,-7.6959,-7.7293,-7.6912,-7.658,-7.5868,-7.4699,-7.3115,-7.1534,-7.009,-6.8243,-6.735,-6.7627,-6.6888,-6.6027,-6.5042,-6.6304,-6.6162,-6.4693,-6.487,-6.5606,-6.6873,-6.6835,-6.8186,-7.0539,-7.1493,-7.0762,-6.9105,-6.9608,-6.8065,-6.553,-6.6905,-6.766,-6.8261,-6.8973,-6.9042,-6.8077,-6.3757,-6.0899,-5.8433,-5.3669,-5.0908,-4.9314,-4.7639,-4.733,-4.6771,-4.4167,-4.3246,-4.2657,-4.0523,-3.9687,-3.9063,-3.7738,-3.4518,-3.1071,-2.9337,0.0,0.0,0.0,0.0,0.0,0.0,-2.1526,-2.0971,-2.0492,-2.0127,-1.9521,-1.949,-1.9338,-1.9149,-1.9169,-1.9169,-1.9257,-1.9413,-1.9624,-1.9854,-2.0085,-2.0241,-2.0397,-2.0539,-2.0539,-2.0285,-2.0037,-1.9007,-1.8242,-1.7993,-1.6978,-1.595,-1.4666,-1.4715,-1.3151,-1.0548,-1.0583,-0.9044,-0.6463,-0.4641,-0.3356,-0.2331,-0.0518,0.0,0.0,0.0,0.0516,0.1033,-6.2078,-6.1988,-6.2786,-6.4315,-6.5786,-6.7842,-7.0843,-7.4499,-7.6982,-7.7189,-7.8729,-7.9245,-7.7821,-7.8596,-7.8924,-7.8332,-7.8561,-7.8217,-7.7244,-7.6272,-7.5121,-7.4066,-7.1442,-7.0274,-7.0828,-6.8982,-6.7689,-6.7012,-6.7689,-6.7056,-6.5166,-6.5571,-6.6272,-6.709,-6.7515,-6.8777,-7.061,-7.1771,-7.0752,-6.8494,-6.9155,-6.8142,-6.6349,-6.7061,-6.7917,-6.8835,-6.9202,-6.9179,-6.8096,-6.2734,-6.0145,-5.8387,-5.3137,-5.0759,-4.9882,-4.8854,-4.8546,-4.8107,-4.5989,-4.4939,-4.411,-4.1999,-4.0785,-4.0033,-3.9119,-3.5842,-3.2533,-3.043,-2.7135,0.0,0.0,0.0,-2.1741,-2.1782,0.0,-2.1043,-2.0563,-1.9906,-1.9498,-1.9198,-1.9035,-1.8871,-1.8972,-1.8993,-1.9094,-1.9345,-1.9522,-1.9732,-2.0031,-2.0187,-2.0329,-2.0471,-2.0526,-2.0278,-2.0031,-1.9007,-1.8242,-1.7993,-1.6978,-1.6472,-1.6472,-1.6472,-1.5444,-1.3633,-1.3633,-1.1831,-0.9262,-0.7204,-0.5405,-0.3862,-0.1805,-0.0774,0.0,0.0,0.0516,0.1291,-6.3377,-6.4076,-6.5252,-6.5745,-6.7669,-7.0187,-7.3222,-7.5085,-7.6395,-7.712,-7.9023,-8.004,-7.9239,-8.2246,-8.3628,-8.2072,-8.389,-8.4374,-8.3003,-8.103,-8.0518,-8.1704,-7.6046,-7.3783,-7.5754,-7.2491,-7.0428,-6.9751,-7.0428,-6.9945,-6.8208,-6.7991,-6.7538,-6.7208,-6.8434,-6.8924,-6.8759,-7.0425,-6.9429,-6.693,-6.7415,-6.7413,-6.7228,-6.7274,-6.7917,-6.8812,-6.8812,-6.9111,-6.855,-6.2839,-6.0753,-5.9655,-5.4021,-5.1692,-5.1115,-5.0344,-5.0139,-4.971,-4.7806,-4.6013,-4.4248,-4.2281,-4.0346,-3.8939,-3.8631,-3.7533,-3.5617,-3.0928,-2.9262,-2.7165,-2.2608,-2.1806,-2.1806,-2.1465,-2.1555,0.0,0.0,-1.9454,-1.967,-1.9612,-1.9365,-1.8993,-1.8993,-1.8993,-1.9047,-1.9203,-1.9345,-1.9569,-1.9875,-2.0031,-2.0173,-2.0329,-2.0471,-1.9776,-1.8503,-1.8497,-1.7732,-1.6472,-1.6472,-1.6472,-1.6472,-1.6472,-1.6472,-1.6467,-1.6467,-1.4666,-1.2091,-1.2091,-0.9005,-0.4121,-0.4121,-0.2319,0.0,0.0,0.0774,0.2065,-6.8114,-6.8698,-6.8483,-6.5566,-6.6566,-6.9118,-7.3153,-7.5879,-7.7964,-7.9166,-8.0344,-8.0901,-8.0601,-8.2085,-8.2578,-8.1463,-8.3345,-8.4245,-8.3253,-8.2517,-8.2188,-8.2244,-7.7965,-7.5969,-7.6677,-7.4214,-7.2398,-7.1259,-7.1506,-7.037,-6.808,-6.8348,-6.8178,-6.7382,-6.8531,-6.8923,-6.9016,-7.0241,-6.9359,-6.7152,-6.6905,-6.7127,-6.7297,-6.7297,-6.7917,-6.8812,-6.8812,-6.9111,-6.8873,-6.4442,-6.196,-5.9996,-5.5291,-5.264,-5.1166,-5.043,-5.019,-4.9846,-4.7982,-4.7404,-4.6317,-4.3622,-4.2471,-4.155,-4.0164,-3.8509,-3.664,-3.4019,-3.079,-2.7916,-2.5179,-2.3216,-2.1847,-2.1595,-2.1514,-2.0929,0.0,-1.8748,-1.8323,-1.8712,-1.8678,-1.8511,-1.8409,-1.8674,-1.8905,-1.9047,-1.9291,-1.9556,-1.9854,-2.001,-2.0173,-2.0329,-1.9965,-1.9528,-1.9267,-1.8254,-1.7489,-1.7239,-1.6734,-1.6472,-1.6472,-1.6472,-1.6472,-1.6472,-1.6472,-1.595,-1.4922,-1.3116,-1.1322,-0.9262,-0.5406,-0.3605,-0.2319,-0.0258,0.1291,0.2323,-7.0699,-7.0625,-6.9946,-6.7532,-6.8601,-7.0981,-7.4464,-7.7066,-7.9084,-8.0612,-8.1375,-8.1817,-8.2052,-8.2674,-8.2876,-8.2244,-8.3692,-8.4315,-8.3588,-8.3542,-8.3526,-8.3233,-8.0409,-7.8924,-7.917,-7.6954,-7.5138,-7.3783,-7.3129,-7.1473,-6.8926,-6.9177,-6.8832,-6.8225,-6.9068,-6.9221,-6.8669,-6.9605,-6.8569,-6.6125,-6.6222,-6.6677,-6.7297,-6.748,-6.8054,-6.8812,-6.8996,-6.9155,-6.8536,-6.441,-6.207,-5.9854,-5.5455,-5.3125,-5.1988,-5.1354,-5.1217,-5.0869,-4.8961,-4.8195,-4.7397,-4.4517,-4.3173,-4.2304,-4.1017,-3.9785,-3.8308,-3.5869,-3.3183,-3.0687,-2.8512,-2.561,-2.3397,0.0,0.0,0.0,0.0,-1.8213,-1.767,-1.7894,-1.807,-1.8199,-1.8321,-1.8498,-1.8762,-1.9115,-1.9271,-1.9481,-1.9786,-1.9997,-2.0153,-2.0241,-1.9672,-1.9267,-1.9261,-1.7993,-1.7483,-1.7239,-1.6734,-1.6472,-1.6472,-1.6472,-1.6472,-1.6472,-1.6472,-1.6472,-1.6467,-1.4661,-1.3377,-1.1831,-0.7207,-0.489,-0.3348,-0.0258,0.1549,0.2581,-7.126,-7.0049,-7.0084,-7.1567,-7.3567,-7.5533,-7.6996,-7.8313,-7.9799,-8.136,-8.2043,-8.2687,-8.3253,-8.4026,-8.4373,-8.4244,-8.475,-8.4906,-8.4275,-8.4331,-8.4636,-8.5354,-8.3379,-8.2525,-8.3141,-8.0586,-7.8555,-7.7108,-7.5286,-7.3193,-7.0931,-7.0424,-6.9936,-6.9489,-7.0023,-6.9357,-6.7749,-6.831,-6.693,-6.4427,-6.5437,-6.6447,-6.7389,-6.7894,-6.8422,-6.8927,-6.9386,-6.926,-6.794,-6.3017,-6.1123,-5.9918,-5.474,-5.3272,-5.3461,-5.3118,-5.3015,-5.2608,-5.047,-4.8856,-4.7194,-4.4766,-4.3156,-4.185,-4.1221,-4.1572,-4.0888,-3.684,-3.6244,-3.5474,-3.193,-2.86,-2.6509,0.0,0.0,0.0,-1.9416,-1.8065,-1.7473,-1.765,-1.7792,0.0,0.0,0.0,-1.862,-1.9325,-1.9271,0.0,0.0,-1.9929,-2.0098,-2.0098,-1.9639,-1.9261,-1.8497,-1.7732,-1.7239,-1.6472,-1.6472,-1.6472,-1.6472,-1.6472,-1.6472,-1.6472,-1.6472,-1.6472,-1.6472,-1.6472,-1.4922,-1.2347,-0.9512,-0.6174,-0.2833,0.0,0.2065,0.3356,-7.3845,-7.3926,-7.4843,-7.6361,-7.6189,-7.6321,-7.7699,-7.8621,-7.989,-8.1702,-8.2106,-8.2582,-8.3793,-8.4149,-8.4069,-8.3472,-8.4497,-8.5352,-8.5696,-8.5744,-8.6259,-8.7475,-8.5483,-8.4188,-8.3849,-8.2187,-8.0402,-7.8555,-7.6227,-7.433,-7.2906,-7.1034,-7.0278,-7.0726,-6.9375,-6.8351,-6.7724,-6.7237,-6.6324,-6.546,-6.6493,-6.7274,-6.7917,-6.8789,-6.9455,-6.9937,-7.0075,-7.0231,-6.981,-6.5688,-6.321,-6.0866,-5.6817,-5.4443,-5.3118,-5.3067,-5.3015,-5.2473,-4.9876,-4.9031,-4.8078,-4.495,-4.3989,-4.3519,-4.2875,-4.3065,-4.2701,-4.0624,-3.8931,-3.6799,-3.456,-3.1505,-2.8656,-2.6308,-2.3052,-2.0427,-1.9566,-1.8467,-1.7871,-1.7914,-1.7914,0.0,0.0,0.0,0.0,0.0,0.0,0.0,-1.9644,-1.9841,-1.9976,-2.0098,-1.9121,-1.8758,-1.8497,-1.7228,-1.6734,-1.6472,-1.6472,-1.6472,-1.6472,-1.6472,-1.6472,-1.6472,-1.6472,-1.6472,-1.6472,-1.6472,-1.595,-1.5183,-1.2351,-0.7713,-0.206,0.1289,0.3098,0.3873,-7.6133,-7.671,-7.7982,-7.9155,-7.9368,-7.9467,-7.9658,-8.0205,-8.1234,-8.2955,-8.2761,-8.319,-8.4883,-8.4807,-8.4647,-8.4834,-8.5637,-8.6029,-8.6091,-8.6401,-8.6804,-8.7269,-8.6543,-8.585,-8.545,-8.4711,-8.3172,-8.0832,-7.8448,-7.6331,-7.4498,-7.2115,-7.1376,-7.199,-7.0103,-6.9128,-6.868,-6.7086,-6.6271,-6.6172,-6.6975,-6.771,0.0,-6.9225,-6.9845,-7.0373,-7.081,-7.0489,-6.9246,-6.5834,-6.3058,-6.0399,-5.651,-5.4624,-5.3495,-5.3495,-5.3495,-5.2982,-5.0153,-4.938,-4.8528,-4.5591,-4.4733,-4.4601,-4.4119,-4.4031,-4.3691,-4.287,-4.0811,-3.911,-3.7892,-3.4828,-3.1,-2.6553,-2.283,-2.0482,-1.9936,-1.9058,-1.8143,-1.8211,-1.7998,-1.7704,0.0,0.0,0.0,0.0,0.0,0.0,-1.9468,-1.9664,-1.9875,-2.0098,-1.9258,-1.8634,-1.8497,-1.7425,-1.6678,-1.6472,-1.6472,-1.6472,-1.6472,-1.6472,-1.6472,-1.6472,-1.6472,-1.6472,-1.6472,-1.6472,-1.6472,-1.595,-1.1571,-0.6431,-0.1289,0.2321,0.3873,0.4131,-7.8013,-7.8844,-8.012,-8.0672,-8.2508,-8.353,-8.2206,-8.2483,-8.3387,-8.4551,-8.4089,-8.4315,-8.6211,-8.5868,-8.5996,-8.7081,-8.7266,-8.7081,-8.6558,-8.7204,-8.7358,-8.6804,-8.7297,-8.7543,-8.7451,-8.7025,-8.5642,-8.3061,-8.0407,-7.7946,-7.5566,-7.3271,-7.2552,-7.3198,-7.1518,-7.0446,-6.9593,-6.736,-6.643,-6.6585,-6.7159,-6.794,-6.8858,-6.9409,-6.9914,-7.0442,-7.1146,-7.019,-6.7905,-6.4584,-6.1775,-5.9278,-5.5301,-5.4128,-5.4128,-5.4128,-5.4128,-5.3559,-5.0524,-4.9746,-4.9179,-4.6171,-4.5377,-4.5333,-4.5011,-4.4762,-4.4288,-4.3748,-4.2586,-4.1507,-4.1128,-3.7579,-3.3012,-2.7793,-2.3834,-2.153,-2.1743,-2.0035,-1.8784,-1.8871,-1.8347,0.0,0.0,0.0,0.0,0.0,0.0,0.0,0.0,-1.9434,-1.9732,-2.0085,-1.9365,-1.8762,-1.8758,-1.7627,-1.712,-1.6728,-1.6472,-1.6472,-1.6472,-1.6472,-1.6472,-1.6472,-1.6472,-1.6472,-1.6472,-1.6472,-1.6472,-1.5689,-0.874,-0.4371,-0.103,0.2579,0.4131,0.4131,-7.954,-8.0845,-8.2155,-8.1672,-8.3873,-8.5492,-8.5034,-8.4969,-8.5188,-8.6,-8.6371,-8.6793,-8.7032,-8.7449,-8.7601,-8.7173,-8.7697,-8.8189,-8.8651,-8.9297,-8.9882,-9.0313,-8.9913,-8.9421,-8.8866,-8.6244,-8.4003,-8.2461,-7.8535,-7.6161,-7.5699,-7.3369,-7.2777,-7.3816,-7.1712,-6.9856,-6.7769,-6.6818,-6.643,-6.6608,-6.7526,-6.8261,-6.8904,-6.9822,-7.0236,-7.0185,-6.9878,-6.9703,-6.8988,-6.4791,-6.2431,-6.0415,-5.5524,-5.4128,-5.4128,-5.4128,-5.4128,-5.361,-5.0831,-5.0095,-4.9525,-4.6513,-4.5904,-4.6021,-4.5699,-4.5772,-4.5539,-4.4497,-4.3563,-4.2467,-4.1018,-3.7464,-3.4063,-3.276,-2.8533,-2.5884,-2.7436,-2.3527,-2.1142,-2.2337,0.0,-1.9036,0.0,0.0,0.0,0.0,0.0,0.0,0.0,0.0,-1.9413,-2.0085,-1.8968,-1.8603,-1.9267,-1.7471,-1.6961,-1.7228,-1.6717,-1.6472,-1.6472,-1.6472,-1.6472,-1.6472,-1.6472,-1.6472,-1.6472,-1.6472,-1.6211,-1.4922,-0.874,-0.5401,-0.3603,0.2063,0.4131,0.4131,-8.0859,-8.219,-8.3742,-8.457,-8.5679,-8.6758,-8.7926,-8.7821,-8.759,-8.7437,-8.7103,-8.7254,-8.8265,-8.8369,-8.8546,-8.9174,-8.9574,-9.019,-9.1206,-9.1575,-9.1914,-9.2222,-9.1606,-9.0929,-9.0252,-8.7975,-8.5692,-8.3341,-8.0082,-7.7558,-7.6233,-7.4152,-7.3451,-7.3857,-7.1714,-6.9512,-6.7416,-6.6995,-6.6687,-6.6631,-6.7618,-6.8468,-6.9225,-6.9707,-6.9914,-6.975,-6.919,-6.8168,-6.6465,-6.3246,-6.1348,-5.9984,-5.5541,-5.4128,-5.4128,-5.4128,-5.4128,-5.3644,-5.1662,-5.0682,-4.9635,-4.7523,-4.6636,-4.6226,-4.6065,-4.5904,-4.5684,-4.4858,-4.3793,-4.237,-4.0664,-3.7409,-3.4913,-3.4791,-3.1219,-2.8792,-2.9833,-2.6263,-2.3535,-2.418,0.0,0.0,0.0,0.0,0.0,0.0,0.0,0.0,0.0,0.0,-1.9291,-1.9963,-1.8993,-1.863,-1.8906,-1.758,-1.6849,-1.6978,-1.6728,-1.6472,-1.6472,-1.6472,-1.6472,-1.6472,-1.6472,-1.6472,-1.6472,-1.6472,-1.5961,-1.4415,-0.848,-0.5658,-0.386,0.2063,0.4131,0.4131,-8.2742,-8.3845,-8.5363,-8.7329,-8.7498,-8.7911,-8.9684,-8.9886,-8.9607,-8.9024,-8.7956,-8.7993,-8.9687,-8.9231,-8.9542,-9.1267,-9.1544,-9.216,-9.333,-9.3545,-9.3638,-9.3638,-9.3022,-9.2187,-9.1166,-8.9569,-8.7117,-8.3901,-8.1295,-7.8767,-7.6261,-7.4875,-7.4008,-7.3626,-7.1703,-6.9643,-6.7881,-6.7338,-6.7062,-6.6906,-6.7687,-6.8605,-6.9524,-6.9524,-6.9315,-6.8942,-6.8269,-6.6472,-6.4004,-6.1094,-5.9627,-5.8458,-5.5266,-5.4128,-5.4128,-5.4128,-5.4128,-5.3869,-5.2654,-5.114,-4.9913,-4.8448,-4.7252,-4.627,-4.6182,-4.5772,-4.5377,-4.5216,-4.3751,-4.1809,-4.0307,-3.778,-3.6143,-3.6242,-3.3397,-3.1505,-3.2401,-2.86,-2.5746,0.0,0.0,0.0,-1.9353,0.0,0.0,0.0,0.0,0.0,-1.904,-1.8993,-1.9237,-1.9602,-1.9025,-1.8404,-1.8259,-1.7439,-1.6748,-1.6689,-1.6429,-1.6445,-1.6472,-1.6472,-1.6472,-1.6472,-1.6472,-1.6472,-1.6472,-1.6472,-1.5705,-1.3893,-0.8224,-0.5401,-0.3348,0.2063,0.4135,0.4142,-8.5742,-8.6536,-8.7398,-8.8329,-8.8719,-8.8948,-8.9182,-8.9984,-9.0481,-9.0417,-9.0839,-9.1125,-9.1267,-9.1259,-9.1357,-9.2006,-9.2653,-9.333,-9.413,-9.4746,-9.5084,-9.5084,-9.4438,-9.3249,-9.1221,-8.8249,-8.5287,-8.2551,-7.9552,-7.6957,-7.507,-7.4884,-7.4242,-7.2976,-7.1539,-7.0196,-6.8919,-6.775,-6.7461,-6.7871,-6.7963,-6.8605,-6.9524,-6.9524,-6.8896,-6.7843,-6.6804,-6.5823,-6.4245,-5.954,-5.7381,-5.6474,-5.4732,-5.4128,-5.4128,-5.4128,-5.4128,-5.3869,-5.2654,-5.114,-4.9913,-4.8448,-4.7252,-4.6182,-4.5904,-4.5772,-4.5582,-4.4967,-4.3593,-4.1809,-4.0307,-3.9734,-3.9256,-3.8755,-3.6451,-3.5525,-3.7671,-3.154,-2.7552,-2.9165,0.0,0.0,-1.9655,-1.9014,0.0,0.0,-1.8145,-1.8124,-1.8565,-1.8708,-1.8885,-1.911,-1.8385,-1.7959,-1.8118,-1.6972,-1.6535,-1.7304,-1.6562,-1.6358,-1.6472,-1.6472,-1.6472,-1.6472,-1.6472,-1.6472,-1.6472,-1.6472,-1.5705,-1.3893,-0.8224,-0.5401,-0.3348,0.2063,0.4148,0.417,-8.8088,-8.8226,-8.8777,-9.0916,-9.0042,-8.9516,-9.0973,-9.1233,-9.1421,-9.1874,-9.1674,-9.1841,-9.2658,-9.1843,-9.1825,-9.3299,-9.3699,-9.4315,-9.5392,-9.61,-9.6131,-9.53,-9.5023,-9.3668,-9.1238,-8.8859,-8.6296,-8.3548,-8.0358,-7.8228,-7.7132,-7.6089,-7.4798,-7.3142,-7.183,-7.0097,-6.8197,-6.7445,-6.7415,-6.7618,-6.8238,-6.8904,-6.9524,-6.9524,-6.9315,-6.8663,-6.6738,-6.5327,-6.3387,-5.9449,-5.7826,-5.723,-5.4607,-5.3803,-5.3837,-5.4077,-5.4128,-5.4111,-5.3401,-5.1906,-4.9944,-4.9436,-4.7568,-4.5948,-4.5816,-4.5494,-4.5128,-4.485,-4.3565,-4.2105,-4.1045,-4.0388,-4.0,-3.996,-3.8821,-3.8099,-3.9229,-3.5404,-3.2511,-3.2972,0.0,-2.385,0.0,-2.043,-1.8589,-1.8267,-1.7935,-1.8057,-1.8762,-1.8782,-1.902,-1.9111,-1.8303,-1.7929,-1.7978,-1.6943,-1.6546,-1.6787,-1.6618,-1.6429,-1.6472,-1.6472,-1.6472,-1.6472,-1.6472,-1.6472,-1.6472,-1.595,-1.5183,-1.3898,-0.9772,-0.6431,-0.3609,0.0259,0.2861,0.4177,-9.0054,-8.9778,-9.0123,-9.2951,-9.1614,-9.0739,-9.2547,-9.2514,-9.245,-9.3056,-9.2622,-9.2816,-9.3795,-9.2411,-9.2252,-9.4099,-9.4438,-9.4961,-9.5915,-9.6623,-9.647,-9.5331,-9.5269,-9.3872,-9.1014,-8.9329,-8.7131,-8.422,-8.1349,-7.9604,-7.8625,-7.6812,-7.4993,-7.3017,-7.2167,-7.0208,-6.7653,-6.7638,-6.7595,-6.7802,-6.8514,-6.9088,-6.9524,-6.9524,-6.9315,-6.8686,-6.6915,-6.5197,-6.3304,-5.9623,-5.8518,-5.7919,-5.4741,-5.3752,-5.3803,-5.4043,-5.4128,-5.4111,-5.3644,-5.184,-5.0032,-4.9541,-4.7588,-4.5611,-4.5494,-4.5128,-4.4792,-4.4448,-4.3267,-4.2147,-4.1437,-4.079,-4.0214,-4.0334,-4.0,-3.9773,-3.9893,-3.7544,-3.5382,-3.437,-2.942,-2.5377,-2.4096,-2.1074,-1.8891,-1.843,-1.8145,-1.8233,-1.883,-1.883,-1.8818,-1.9052,-1.8253,-1.7616,-1.7405,-1.6603,-1.6206,-1.6233,-1.6315,-1.6402,-1.6472,-1.6472,-1.6472,-1.6472,-1.6472,-1.6472,-1.6472,-1.5705,-1.4922,-1.4154,-1.0548,-0.7204,-0.3866,-0.1039,0.1827,0.4193,-9.1675,-9.133,-9.1537,-9.3847,-9.3196,-9.2559,-9.3418,-9.3664,-9.3766,-9.3769,-9.4176,-9.4617,-9.4617,-9.3126,-9.2776,-9.413,-9.4869,-9.5269,-9.5269,-9.5915,-9.5977,-9.53,-9.5269,-9.3726,-9.0323,-8.9673,-8.7665,-8.4157,-8.2014,-8.0267,-7.8879,-7.6784,-7.4454,-7.2351,-7.2351,-7.0665,-6.7963,-6.7985,-6.8307,-6.8789,-6.8789,-6.9088,-6.9524,-6.9524,-6.8896,-6.7676,-6.7075,-6.5974,-6.4486,-5.9968,-5.8518,-5.7975,-5.5038,-5.4128,-5.4128,-5.4128,-5.4128,-5.3869,-5.2621,-5.0913,-4.9439,-4.7972,-4.652,-4.5216,-4.4894,-4.4806,-4.4462,-4.3676,-4.2884,-4.2147,-4.1437,-4.0939,-4.0361,-4.0067,-4.0027,-3.992,-3.964,-3.7405,-3.4868,-3.1973,-2.8445,-2.4963,-2.2054,-2.0518,-1.9571,-1.9169,-1.8918,-1.8694,-1.8552,-1.883,-1.8781,-1.7886,-1.777,-1.7035,-1.5923,-1.5934,-1.5994,-1.6108,-1.6108,-1.6233,-1.6472,-1.6472,-1.6472,-1.6472,-1.6472,-1.6472,-1.6472,-1.5705,-1.4922,-1.4154,-1.0548,-0.7204,-0.3866,-0.1039,0.1833,0.4222,-9.402,-9.4089,-9.433,-9.5572,-9.5307,-9.4785,-9.4412,-9.5076,-9.5115,-9.3833,-9.4652,-9.5192,-9.4614,-9.3498,-9.3453,-9.4838,-9.5146,-9.5269,-9.5269,-9.5915,-9.5546,-9.3915,-9.4315,-9.3057,-8.9673,-8.9297,-8.7726,-8.4803,-8.2654,-8.0385,-7.8166,-7.6475,-7.4531,-7.2588,-7.1784,-7.0188,-6.8031,-6.8399,-6.8651,-6.8835,-6.9156,-6.9386,-6.9524,-6.9524,-6.8896,-6.7632,-6.6701,-6.5478,-6.4044,-5.9559,-5.8291,-5.7901,-5.4443,-5.3546,-5.3803,-5.4043,-5.394,-5.3545,-5.2571,-5.0735,-4.9107,-4.788,-4.6311,-4.4923,-4.485,-4.4645,-4.4426,-4.4113,-4.3096,-4.2374,-4.2133,-4.1195,-4.0441,-4.0361,-4.0334,-4.0294,-4.0214,-3.9451,-3.7885,-3.491,-3.1173,-2.7632,-2.4806,-2.1309,-1.9338,-1.9203,-1.883,-1.8674,-1.883,-1.9027,-1.8787,-1.8345,-1.8008,-1.7316,-1.6534,-1.6215,-1.6037,-1.5994,-1.6146,-1.6315,-1.6472,-1.6472,-1.6472,-1.6472,-1.6472,-1.6472,-1.6472,-1.5183,-1.4676,-1.4154,-1.2103,-0.8494,-0.387,-0.3132,0.0263,0.4225,-9.5158,-9.54,-9.571,-9.6745,-9.67,-9.6331,-9.5619,-9.6265,-9.6042,-9.3962,-9.4852,-9.5234,-9.4152,-9.3524,-9.3545,-9.4407,-9.4746,-9.4777,-9.45,-9.5146,-9.4838,-9.3268,-9.3126,-9.1989,-8.9179,-8.867,-8.7322,-8.5112,-8.3044,-8.0652,-7.8273,-7.6693,-7.5027,-7.306,-7.2027,-7.0384,-6.833,-6.8858,-6.9065,-6.9088,-6.9386,-6.9524,-6.9524,-6.9524,-6.8896,-6.7632,-6.6745,-6.5521,-6.4086,-6.0276,-5.8749,-5.7863,-5.4851,-5.3627,-5.3409,-5.3649,-5.3546,-5.2931,-5.143,-5.0089,-4.8534,-4.7041,-4.571,-4.4601,-4.4601,-4.4484,-4.4323,-4.4323,-4.3364,-4.2388,-4.2388,-4.1423,-4.0481,-4.0481,-4.0481,-4.0481,-4.0481,-4.0481,-3.9136,-3.5157,-3.1946,-2.8599,-2.4662,-2.1306,-1.94,-1.9447,-1.9203,-1.9115,-1.9312,-1.9203,-1.9059,-1.869,-1.8039,-1.7567,-1.6796,-1.6165,-1.5967,-1.5934,-1.6135,-1.626,-1.6331,-1.6385,-1.6375,-1.6331,-1.6385,-1.6375,-1.6331,-1.4809,-1.4305,-1.4046,-1.2779,-0.9465,-0.5392,-0.4415,-0.1047,0.2893,-9.5331,-9.5537,-9.6089,-9.7503,-9.7638,-9.7367,-9.6926,-9.7194,-9.6492,-9.3838,-9.4775,-9.5018,-9.3335,-9.3207,-9.3207,-9.3207,-9.3853,-9.3976,-9.3299,-9.3884,-9.3945,-9.3207,-9.1861,-9.0519,-8.9179,-8.7813,-8.6448,-8.4849,-8.2767,-8.091,-7.9041,-7.7277,-7.5406,-7.3576,-7.233,-7.0696,-6.8881,-6.934,-6.9524,-6.9524,-6.9524,-6.9524,-6.9524,-6.9524,-6.8663,-6.7676,-6.7053,-6.593,-6.4486,-6.1965,-5.9817,-5.8019,-5.6146,-5.4346,-5.2964,-5.3015,-5.3015,-5.2507,-4.9863,-4.8888,-4.8125,-4.5516,-4.4558,-4.4323,-4.4323,-4.4323,-4.4323,-4.4323,-4.3364,-4.2388,-4.2388,-4.1423,-4.0481,-4.0481,-4.0481,-4.0481,-4.0481,-4.0481,-3.865,-3.3205,-3.1227,-2.8102,-2.2597,-2.0736,-1.9732,-1.9854,-1.9854,-1.9854,-1.9854,-1.9325,-1.9113,-1.9058,-1.8089,-1.7519,-1.69,-1.6049,-1.5809,-1.5923,-1.6037,-1.6092,-1.6108,-1.6217,-1.6217,-1.6108,-1.6233,-1.6206,-1.6103,-1.4607,-1.411,-1.3855,-1.2605,-1.0377,-0.7644,-0.4882,-0.2329,0.0521,-9.6193,-9.7193,-9.809,-9.8469,-9.8894,-9.8702,-9.7119,-9.6957,-9.6081,-9.3775,-9.3731,-9.3685,-9.3304,-9.3207,-9.3207,-9.3207,-9.3853,-9.4192,-9.4007,-9.4161,-9.3945,-9.3207,-9.1861,-9.0519,-8.9179,-8.7813,-8.5486,-8.2192,-8.0447,-7.915,-7.7865,-7.4893,-7.3478,-7.3378,-7.1106,-6.9871,-6.9363,-6.9478,-6.9524,-6.9524,-6.9524,-6.9524,-6.9524,-6.9524,-6.8243,-6.6547,-6.6229,-6.4981,-6.3064,-6.0938,-5.9364,-5.7512,-5.5612,-5.3695,-5.2622,-5.2913,-5.281,-5.1931,-4.9783,-4.8697,-4.781,-4.5472,-4.4558,-4.4323,-4.4323,-4.4323,-4.4323,-4.4323,-4.3364,-4.2388,-4.2388,-4.1423,-4.0481,-4.0481,-4.0481,-4.0481,-4.0481,-4.0481,-3.9214,-3.5917,-3.246,-2.8861,-2.563,-2.1928,-1.9786,-1.9712,-1.961,-1.959,-1.9698,-1.9468,-1.9213,-1.8774,-1.7977,-1.7471,-1.6767,-1.6005,-1.5809,-1.5923,-1.5951,-1.6021,-1.6108,-1.6135,-1.6135,-1.6108,-1.6135,-1.6135,-1.6103,-1.4607,-1.411,-1.3869,-1.2681,-1.043,-0.7649,-0.5164,-0.2339,0.0521,-9.7582,-9.8228,-9.8883,-9.9228,-9.9607,-9.9382,-9.7778,-9.7179,-9.6124,-9.441,-9.3693,-9.3375,-9.3273,-9.3207,-9.3207,-9.3207,-9.3545,-9.3761,-9.3761,-9.3761,-9.3607,-9.3207,-9.1372,-9.002,-8.9179,-8.7148,-8.4568,-8.1242,-7.973,-7.8354,-7.7473,-7.4379,-7.3281,-7.3378,-7.0696,-6.9524,-6.9524,-6.9524,-6.9524,-6.9524,-6.9524,-6.9524,-6.9524,-6.8896,-6.7609,-6.6098,-6.5477,-6.4183,-6.246,-6.1541,-5.9685,-5.7363,-5.623,-5.4265,-5.2193,-5.2433,-5.233,-5.1743,-4.9331,-4.8395,-4.7432,-4.5264,-4.4441,-4.4323,-4.4323,-4.4323,-4.4323,-4.4323,-4.3364,-4.2388,-4.2388,-4.1423,-4.0481,-4.0481,-4.0481,-4.0481,-4.0481,-4.0481,-3.947,-3.6515,-3.3784,-3.0384,-2.6133,-2.3189,-2.1052,-1.9773,-1.9678,-1.9664,-1.9752,-1.9678,-1.9428,-1.9263,-1.8222,-1.7459,-1.7221,-1.6238,-1.5782,-1.5853,-1.5853,-1.588,-1.5951,-1.5994,-1.5994,-1.5951,-1.5994,-1.574,-1.5445,-1.4464,-1.371,-1.348,-1.2571,-1.1123,-0.9383,-0.5387,-0.31,-0.1296,-9.8869,-9.8883,-9.9159,-9.978,-9.9883,-9.9533,-9.8546,-9.7335,-9.6095,-9.5045,-9.3804,-9.3064,-9.296,-9.3145,-9.3207,-9.3207,-9.3207,-9.3207,-9.3207,-9.3207,-9.3207,-9.3207,-9.0684,-8.9179,-8.9179,-8.6186,-8.3321,-8.0788,-7.9385,-7.8036,-7.694,-7.4479,-7.3157,-7.2858,-7.0396,-6.9409,-6.9409,-6.9501,-6.9524,-6.9524,-6.9524,-6.9524,-6.9315,-6.8243,-6.7185,-6.5884,-6.4831,-6.377,-6.2679,-6.2679,-6.0416,-5.7718,-5.7287,-5.5019,-5.2314,-5.1868,-5.1851,-5.137,-4.8799,-4.7842,-4.6912,-4.4802,-4.4323,-4.4323,-4.4323,-4.4323,-4.4323,-4.4323,-4.3364,-4.2388,-4.2388,-4.1423,-4.0481,-4.0481,-4.0481,-4.0481,-4.0481,-4.0481,-3.947,-3.6515,-3.503,-3.1831,-2.6256,-2.4587,-2.2535,-2.0086,-1.9841,-1.9841,-1.9841,-1.9841,-1.9834,-1.9834,-1.8504,-1.7703,-1.7459,-1.6244,-1.5755,-1.5755,-1.5755,-1.5755,-1.5755,-1.5853,-1.5842,-1.5755,-1.5853,-1.5355,-1.4771,-1.4036,-1.3306,-1.2841,-1.2191,-1.2033,-1.1619,-0.6361,-0.4353,-0.3348,-9.8745,-9.9297,-9.9745,-9.9883,-9.9883,-9.9533,-9.8546,-9.645,-9.4768,-9.4271,-9.2632,-9.1793,-9.2314,-9.2868,-9.3207,-9.3207,-9.3207,-9.3207,-9.3207,-9.3207,-9.3207,-9.3207,-9.0684,-8.9179,-8.9179,-8.4466,-8.0862,-7.8662,-7.7508,-7.6155,-7.4787,-7.2925,-7.1662,-7.0907,-6.9473,-6.8927,-6.8927,-6.934,-6.9524,-6.9524,-6.9524,-6.9524,-6.9315,-6.8243,-6.7185,-6.5884,-6.4831,-6.377,-6.2679,-6.2679,-6.1341,-5.9305,-5.7699,-5.5911,-5.3893,-5.2332,-5.1851,-5.137,-4.8799,-4.6438,-4.4802,-4.4338,-4.4323,-4.4323,-4.4323,-4.4323,-4.4323,-4.4323,-4.3364,-4.2388,-4.2388,-4.1423,-4.0481,-4.0481,-4.0481,-4.0481,-4.0481,-4.0481,-4.0225,-3.897,-3.5994,-3.2563,-2.8931,-2.5555,-2.2496,-1.9949,-1.9698,-1.9698,-1.9698,-1.9698,-1.9448,-1.896,-1.8203,-1.7221,-1.6005,-1.5999,-1.5755,-1.5755,-1.5755,-1.5755,-1.5755,-1.5771,-1.5771,-1.5755,-1.5771,-1.5532,-1.4771,-1.4036,-1.3351,-1.2943,-1.2287,-1.2131,-1.1713,-0.8716,-0.6174,-0.3605,-9.9481,-9.9676,-9.9883,-9.9883,-9.9883,-9.9767,-9.9264,-9.6605,-9.4707,-9.488,-9.2394,-9.0929,-9.1606,-9.1945,-9.2129,-9.2129,-9.2468,-9.2529,-9.216,-9.2807,-9.2857,-9.2185,-8.9858,-8.7628,-8.5217,-8.2008,-7.9659,-7.803,-7.6823,-7.5347,-7.3824,-7.2682,-7.1514,-7.0211,-6.943,-6.9179,-6.9202,-6.9432,-6.9524,-6.9524,-6.9524,-6.9524,-6.9315,-6.8243,-6.7185,-6.5884,-6.4831,-6.377,-6.2679,-6.2679,-6.1561,-5.975,-5.7943,-5.6156,-5.4333,-5.2528,-5.0904,-4.9487,-4.8345,-4.6186,-4.4323,-4.4323,-4.4323,-4.4323,-4.4323,-4.4323,-4.4323,-4.4323,-4.3364,-4.2388,-4.2388,-4.1423,-4.0481,-4.0481,-4.0481,-4.0481,-4.0481,-4.0481,-3.9943,-3.8777,-3.7048,-3.4575,-3.0701,-2.7575,-2.4544,-2.2054,-2.038,-1.9664,-1.9664,-1.9664,-1.9177,-1.819,-1.7459,-1.6721,-1.5755,-1.5755,-1.5755,-1.5755,-1.5755,-1.5755,-1.5755,-1.5755,-1.5755,-1.5755,-1.5505,-1.4771,-1.4286,-1.3602,-1.2908,-1.2473,-1.2119,-1.2192,-1.1987,-0.9247,-0.6437,-0.3605,-10.0114,-9.9883,-9.9883,-9.9883,-9.9883,-9.9883,-9.9883,-9.6825,-9.4776,-9.5333,-9.2278,-9.0406,-9.0929,-9.1144,-9.1237,-9.1237,-9.1698,-9.1791,-9.1267,-9.216,-9.2079,-9.0756,-8.8766,-8.5651,-8.1415,-8.0082,-7.8884,-7.7452,-7.6298,-7.4825,-7.308,-7.2539,-7.1437,-6.9833,-6.9569,-6.9363,-6.9363,-6.9478,-6.9524,-6.9524,-6.9524,-6.9524,-6.9315,-6.8032,-6.676,-6.5884,-6.4399,-6.3552,-6.2679,-6.2679,-6.1781,-6.0215,-5.7943,-5.6364,-5.4791,-5.2511,-5.0205,-4.8077,-4.7637,-4.5948,-4.4323,-4.4323,-4.4323,-4.4323,-4.4323,-4.4323,-4.4309,-4.4084,-4.311,-4.2374,-4.2147,-4.1195,-4.0481,-4.0481,-4.0481,-4.0481,-4.0481,-4.0481,-3.989,-3.8445,-3.7873,-3.6136,-3.206,-2.9619,-2.6823,-2.372,-2.1578,-2.0373,-1.9664,-1.9664,-1.9171,-1.7709,-1.6971,-1.6238,-1.5755,-1.5755,-1.5755,-1.5755,-1.5755,-1.5755,-1.5755,-1.5755,-1.5755,-1.5755,-1.5021,-1.4546,-1.3839,-1.3173,-1.2486,-1.2033,-1.218,-1.2245,-1.2019,-1.0022,-0.6954,-0.3862,-9.9883,-9.9883,-9.9883,-9.9883,-9.9883,-9.9883,-9.9883,-9.6825,-9.4612,-9.4645,-9.1994,-9.0221,-9.0282,-9.0837,-9.1237,-9.1237,-9.1267,-9.1267,-9.1237,-9.1298,-9.0703,-8.956,-8.6853,-8.3645,-7.9739,-7.9506,-7.8308,-7.5957,-7.5748,-7.4447,-7.2098,-7.1978,-7.0507,-6.8236,-6.8605,-6.8858,-6.8881,-6.934,-6.9524,-6.9524,-6.9524,-6.9524,-6.9315,-6.6951,-6.6098,-6.5884,-6.3531,-6.27,-6.2679,-6.2679,-6.2659,-6.1981,-5.8392,-5.7287,-5.6364,-5.2973,-5.0205,-4.7842,-4.6691,-4.5279,-4.4323,-4.4323,-4.4323,-4.4323,-4.4323,-4.4323,-4.4099,-4.3605,-4.2855,-4.2147,-4.1651,-4.0953,-4.0481,-4.0481,-4.0481,-4.0481,-4.0481,-4.0481,-3.9996,-3.8509,-3.8013,-3.6197,-3.229,-3.1147,-2.8752,-2.3969,-2.3238,-2.2288,-1.9908,-1.9664,-1.9171,-1.7709,-1.6488,-1.5755,-1.5755,-1.5755,-1.5755,-1.5755,-1.5755,-1.5755,-1.5755,-1.5755,-1.5755,-1.5755,-1.5021,-1.434,-1.3934,-1.3195,-1.2562,-1.2213,-1.2225,-1.2286,-1.236,-1.2111,-0.8754,-0.4121,-9.9883,-9.9883,-9.9883,-9.9883,-9.9883,-9.9883,-9.9883,-9.6825,-9.458,-9.458,-9.1728,-8.9574,-8.9574,-8.9821,-8.9975,-8.9975,-9.0344,-9.0406,-9.0005,-8.9538,-8.8775,-8.746,-8.4812,-8.1983,-7.8963,-7.8936,-7.812,-7.627,-7.529,-7.404,-7.2421,-7.1805,-7.0294,-6.8514,-6.9019,-6.9248,-6.9271,-6.9432,-6.9524,-6.9524,-6.9524,-6.9524,-6.9315,-6.7821,-6.676,-6.5884,-6.4399,-6.3335,-6.2679,-6.2679,-6.2679,-6.22,-5.9731,-5.8167,-5.6346,-5.112,-4.8815,-4.7622,-4.5487,-4.4772,-4.4323,-4.4323,-4.4323,-4.4323,-4.4323,-4.4323,-4.4084,-4.359,-4.2884,-4.2147,-4.1437,-4.0939,-4.0481,-4.0481,-4.0481,-4.0481,-4.0481,-4.0225,-3.9418,-3.8267,-3.7658,-3.64,-3.4318,-3.2284,-3.0179,-2.8275,-2.5172,-2.3005,-2.2062,-1.9887,-1.7947,-1.7221,-1.6238,-1.5755,-1.5755,-1.5755,-1.5755,-1.5755,-1.5755,-1.5755,-1.5755,-1.5755,-1.5755,-1.5755,-1.4601,-1.4162,-1.371,-1.2838,-1.2424,-1.2245,-1.2298,-1.2339,-1.2372,-1.2372,-1.0045,-0.6437,-9.9952,-9.9883,-9.9883,-9.9883,-9.9883,-9.9883,-9.9883,-9.6825,-9.458,-9.458,-9.1506,-8.9205,-8.9205,-8.9205,-8.9205,-8.9205,-8.9636,-8.9698,-8.9236,-8.8026,-8.6806,-8.5475,-8.3164,-8.0958,-7.861,-7.8773,-7.8174,-7.661,-7.5216,-7.4021,-7.2986,-7.1586,-7.025,-6.9042,-6.9363,-6.9524,-6.9524,-6.9524,-6.9524,-6.9524,-6.9524,-6.9524,-6.9315,-6.7821,-6.676,-6.5884,-6.4399,-6.3335,-6.2679,-6.2679,-6.2679,-6.2221,-5.9992,-5.7512,-5.4526,-4.9487,-4.8093,-4.759,-4.5026,-4.4323,-4.4323,-4.4323,-4.4323,-4.4323,-4.4323,-4.4099,-4.3844,-4.311,-4.2643,-4.1906,-4.1195,-4.0724,-4.0481,-4.0481,-4.0481,-4.0481,-4.0481,-3.9916,-3.9032,-3.8089,-3.7267,-3.6277,-3.5392,-3.3437,-3.1859,-3.1138,-2.7072,-2.3969,-2.2296,-1.9394,-1.7459,-1.6977,-1.6283,-1.5809,-1.5809,-1.5771,-1.5755,-1.5755,-1.5798,-1.5809,-1.5809,-1.5853,-1.5869,-1.5869,-1.4707,-1.4259,-1.3808,-1.2938,-1.2499,-1.2286,-1.2351,-1.2372,-1.2372,-1.2372,-1.0555,-0.7721,-10.009,-9.9883,-9.9883,-9.9883,-9.9883,-9.9883,-9.9883,-9.6825,-9.458,-9.458,-9.1506,-8.9205,-8.9205,-8.9205,-8.9205,-8.9205,-8.9205,-8.9205,-8.9205,-8.6787,-8.4696,-8.3376,-8.2058,-8.0513,-7.861,-7.9153,-7.8549,-7.661,-7.5436,-7.4404,-7.3378,-7.1778,-7.0438,-6.9524,-6.9524,-6.9524,-6.9524,-6.9524,-6.9524,-6.9524,-6.9524,-6.9524,-6.9315,-6.6951,-6.6098,-6.5884,-6.3531,-6.2679,-6.2679,-6.2679,-6.2679,-6.2022,-5.8411,-5.4809,-5.1387,-4.8799,-4.8093,-4.7637,-4.5026,-4.4323,-4.4323,-4.4323,-4.4323,-4.4323,-4.4323,-4.3844,-4.3138,-4.2643,-4.1892,-4.1195,-4.0495,-4.0481,-4.0481,-4.0481,-4.0481,-4.0481,-4.0481,-3.9745,-3.8825,-3.8089,-3.7129,-3.6067,-3.5392,-3.5126,-3.4017,-3.1364,-2.8752,-2.5163,-1.9894,-1.844,-1.7709,-1.7709,-1.6608,-1.5923,-1.5923,-1.5809,-1.5755,-1.5755,-1.5869,-1.5923,-1.5923,-1.6048,-1.6108,-1.6103,-1.5358,-1.4656,-1.4253,-1.3506,-1.306,-1.2372,-1.2372,-1.2372,-1.2372,-1.2372,-1.0555,-0.7721,-10.009,-9.9883,-9.9883,-9.9883,-9.9883,-9.9883,-9.9883,-9.6825,-9.458,-9.458,-9.1506,-8.9205,-8.9205,-8.9205,-8.9205,-8.9205,-8.9205,-8.8378,-8.6569,-8.483,-8.3376,-8.2058,-8.1575,-8.0708,-7.918,-7.9343,-7.8769,-7.7812,-7.5213,-7.3997,-7.4117,-7.1311,-6.9779,-6.9524,-6.9524,-6.9524,-6.9524,-6.9524,-6.9524,-6.9524,-6.9524,-6.9106,-6.8243,-6.6738,-6.567,-6.4615,-6.3335,-6.2679,-6.2679,-6.2679,-6.2679,-6.2022,-5.8411,-5.5892,-5.3592,-4.9252,-4.7385,-4.6453,-4.4787,-4.4323,-4.4323,-4.4323,-4.4323,-4.4323,-4.4323,-4.3844,-4.3138,-4.2643,-4.1892,-4.1195,-4.0495,-4.0481,-4.0481,-4.0481,-4.0481,-4.0481,-4.0481,-3.9418,-3.8624,-3.8394,-3.6936,-3.5909,-3.5646,-3.5223,-3.4735,-3.4006,-2.9694,-2.4657,-1.8671,-1.8039,-1.7346,-1.6356,-1.6231,-1.6048,-1.6048,-1.6021,-1.601,-1.601,-1.6037,-1.6048,-1.6048,-1.6092,-1.6108,-1.6103,-1.5435,-1.4735,-1.4267,-1.3579,-1.3116,-1.2372,-1.2372,-1.2372,-1.2372,-1.2372,-1.185,-1.0816,-10.009,-9.9883,-9.9883,-9.9883,-9.9883,-9.9767,-9.9382,-9.6605,-9.4445,-9.404,-9.1217,-8.9205,-8.9205,-8.9205,-8.9205,-8.9205,-8.8716,-8.7542,-8.5449,-8.4175,-8.282,-8.174,-8.1769,-8.1041,-7.9424,-7.9913,-7.9227,-7.733,-7.4959,-7.3644,-7.3381,-7.0724,-6.9524,-6.9524,-6.9524,-6.9524,-6.9524,-6.9524,-6.9524,-6.9524,-6.9524,-6.8896,-6.7609,-6.6525,-6.5477,-6.4204,-6.3096,-6.2679,-6.2679,-6.2679,-6.2241,-6.112,-5.8167,-5.5892,-5.3574,-4.9252,-4.7149,-4.5978,-4.4577,-4.4323,-4.4323,-4.4323,-4.4323,-4.4323,-4.4323,-4.3605,-4.2898,-4.2388,-4.1664,-4.0953,-4.0481,-4.0481,-4.0481,-4.0481,-4.0481,-4.0481,-4.0481,-3.9149,-3.8356,-3.8356,-3.6744,-3.5778,-3.5778,-3.5489,-3.456,-3.2373,-2.9251,-2.4905,-1.8606,-1.8182,-1.7482,-1.6496,-1.6358,-1.6179,-1.6179,-1.6233,-1.6206,-1.6108,-1.6146,-1.6179,-1.6179,-1.6233,-1.6244,-1.626,-1.5819,-1.5337,-1.4329,-1.387,-1.3142,-1.2372,-1.2372,-1.2372,-1.2372,-1.2372,-1.2372,-1.2111,-10.009,-9.9883,-9.9883,-9.9883,-9.9767,-9.9416,-9.8546,-9.6222,-9.404,-9.3111,-9.0842,-8.9205,-8.9205,-8.9205,-8.9236,-8.9297,-8.8006,-8.6589,-8.5435,-8.4019,-8.3134,-8.2387,-8.2443,-8.157,-7.9614,-8.07,-7.9575,-7.6006,-7.4913,-7.3583,-7.1981,-7.0333,-6.9524,-6.9524,-6.9524,-6.9524,-6.9524,-6.9524,-6.9524,-6.9524,-6.9524,-6.8686,-6.7609,-6.6525,-6.5262,-6.4204,-6.3137,-6.2679,-6.2679,-6.2679,-6.1541,-5.9992,-5.7962,-5.521,-5.2211,-4.9002,-4.7164,-4.5756,-4.4563,-4.4323,-4.4323,-4.4323,-4.4323,-4.4323,-4.4309,-4.3364,-4.2374,-4.2374,-4.1409,-4.0481,-4.0481,-4.0481,-4.0481,-4.0481,-4.0481,-4.0468,-4.0468,-3.9006,-3.8114,-3.8114,-3.6683,-3.5815,-3.5815,-3.5778,-3.3805,-2.8648,-2.7934,-2.5475,-1.9594,-1.8611,-1.7875,-1.7125,-1.6491,-1.6304,-1.6304,-1.6418,-1.6358,-1.6135,-1.6244,-1.6304,-1.6304,-1.6418,-1.6472,-1.6472,-1.6472,-1.5705,-1.4415,-1.4415,-1.3646,-1.2372,-1.2372,-1.2372,-1.2372,-1.2372,-1.2372,-1.2111,-10.009,-9.9883,-9.9883,-9.9883,-9.9264,-9.8667,-9.8425,-9.5573,-9.3249,-9.3004,-9.0842,-8.9205,-8.9205,-8.9205,-8.9421,-8.9944,-8.8306,-8.6627,-8.5351,-8.402,-8.3269,-8.3061,-8.3539,-8.2876,-8.0862,-8.1134,-7.9761,-7.6589,-7.5112,-7.3583,-7.1981,-7.0333,-6.9524,-6.9524,-6.9524,-6.9524,-6.9524,-6.9524,-6.9524,-6.9524,-6.9524,-6.8243,-6.6525,-6.6098,-6.4831,-6.3116,-6.2877,-6.2679,-6.2679,-6.2679,-6.244,-6.1541,-5.8372,-5.542,-5.2602,-4.9204,-4.6438,-4.4577,-4.4323,-4.4323,-4.4323,-4.4323,-4.4323,-4.4099,-4.3619,-4.287,-4.2161,-4.1678,-4.0953,-4.0481,-4.0481,-4.0481,-4.0481,-4.0481,-4.0481,-4.0238,-3.9726,-3.8945,-3.8189,-3.7676,-3.6735,-3.6068,-3.6068,-3.5911,-3.454,-3.1353,-2.9145,-2.5948,-2.1785,-1.945,-1.7762,-1.6502,-1.6375,-1.6429,-1.6429,-1.6456,-1.6445,-1.6385,-1.6418,-1.6429,-1.6429,-1.6456,-1.6472,-1.6472,-1.6472,-1.595,-1.5183,-1.4676,-1.3907,-1.3138,-1.2629,-1.2372,-1.2372,-1.2372,-1.2372,-1.2111,-9.9987,-9.9883,-9.9883,-9.9883,-9.9026,-9.8405,-9.8217,-9.5541,-9.3443,-9.2844,-9.1376,-9.0123,-8.9698,-8.9975,-8.9974,-8.9687,-8.8172,-8.6539,-8.5247,-8.3928,-8.3398,-8.3707,-8.4016,-8.3404,-8.1676,-8.0881,-7.8918,-7.5584,-7.4763,-7.3154,-7.0747,-6.9941,-6.9524,-6.9524,-6.9524,-6.9524,-6.9524,-6.9524,-6.9524,-6.9524,-6.9524,-6.8243,-6.6098,-6.6098,-6.4594,-6.2679,-6.2679,-6.2679,-6.2679,-6.2679,-6.2679,-6.2001,-5.7699,-5.5137,-5.262,-4.8532,-4.5725,-4.4323,-4.4323,-4.4323,-4.4323,-4.4323,-4.4323,-4.4099,-4.3605,-4.2898,-4.2147,-4.1651,-4.0953,-4.0481,-4.0481,-4.0481,-4.0481,-4.0481,-4.0481,-4.0238,-3.9496,-3.8996,-3.829,-3.7544,-3.6919,-3.6358,-3.6358,-3.6237,-3.5145,-3.2406,-2.9697,-2.6486,-2.2498,-1.9859,-1.7898,-1.6375,-1.6445,-1.6472,-1.6472,-1.6472,-1.6472,-1.6472,-1.6472,-1.6472,-1.6472,-1.6472,-1.6472,-1.6472,-1.6472,-1.595,-1.5439,-1.4676,-1.3898,-1.3385,-1.262,-1.2372,-1.2372,-1.2372,-1.2372,-1.2111,-9.9883,-9.9883,-9.9918,-9.9823,-9.8958,-9.8217,-9.7876,-9.5868,-9.396,-9.295,-9.2012,-9.1291,-9.0375,-9.0804,-9.0576,-8.9077,-8.783,-8.6554,-8.525,-8.4268,-8.382,-8.4326,-8.4354,-8.3682,-8.2138,-8.0534,-7.8001,-7.4363,-7.4162,-7.2342,-6.9524,-6.9524,-6.9524,-6.9524,-6.9524,-6.9524,-6.9524,-6.9524,-6.9524,-6.9524,-6.9315,-6.8032,-6.6098,-6.5884,-6.4615,-6.2679,-6.2679,-6.2679,-6.2679,-6.2679,-6.244,-6.1541,-5.676,-5.4225,-5.2124,-4.7606,-4.5279,-4.4323,-4.4323,-4.4323,-4.4323,-4.4323,-4.4323,-4.4084,-4.3379,-4.2884,-4.2147,-4.1423,-4.0939,-4.0481,-4.0481,-4.0481,-4.0481,-4.0481,-4.0481,-4.0238,-3.9483,-3.8778,-3.8277,-3.7531,-3.6808,-3.6563,-3.6563,-3.6563,-3.579,-3.3549,-3.0314,-2.7029,-2.3259,-2.0258,-1.7987,-1.6472,-1.6472,-1.6472,-1.6472,-1.6472,-1.6472,-1.6472,-1.6472,-1.6472,-1.6472,-1.6472,-1.6472,-1.6472,-1.6472,-1.595,-1.5439,-1.4676,-1.3898,-1.3385,-1.262,-1.2372,-1.2372,-1.2372,-1.2372,-1.2111,-9.9883,-9.9883,-9.9857,-9.964,-9.8724,-9.791,-9.7657,-9.5911,-9.4346,-9.3595,-9.2701,-9.1975,-9.1083,-9.0692,-8.9768,-8.8422,-8.7574,-8.6541,-8.5188,-8.5038,-8.4888,-8.4972,-8.5,-8.4099,-8.2138,-8.0534,-7.8001,-7.4363,-7.2976,-7.1366,-6.9524,-6.9524,-6.9524,-6.9524,-6.9524,-6.9524,-6.9524,-6.9524,-6.9524,-6.9315,-6.8476,-6.7185,-6.5884,-6.5047,-6.377,-6.2679,-6.2679,-6.2679,-6.2679,-6.2679,-6.1561,-5.9731,-5.6516,-5.3345,-5.0554,-4.7133,-4.5279,-4.4323,-4.4323,-4.4323,-4.4323,-4.4323,-4.4323,-4.4069,-4.2884,-4.2388,-4.2133,-4.0939,-4.0481,-4.0481,-4.0481,-4.0481,-4.0481,-4.0481,-4.0481,-4.0009,-3.8778,-3.8534,-3.802,-3.6796,-3.6563,-3.6563,-3.6563,-3.6563,-3.6539,-3.6048,-3.1547,-2.7808,-2.6027,-2.1273,-1.7987,-1.6472,-1.6472,-1.6472,-1.6472,-1.6472,-1.6472,-1.6472,-1.6472,-1.6472,-1.6472,-1.6472,-1.6472,-1.6472,-1.6472,-1.595,-1.5439,-1.4676,-1.3898,-1.3385,-1.262,-1.2372,-1.2372,-1.2372,-1.2372,-1.2372,-10.0987,-9.9965,-9.9283,-9.9955,-9.8368,-9.7327,-9.7978,-9.6571,-9.5227,-9.4292,-9.3875,-9.3119,-9.1947,-9.1202,-8.9935,-8.7749,-8.7322,-8.6448,-8.5112,-8.5112,-8.5112,-8.5112,-8.5112,-8.4183,-8.2138,-7.9725,-7.7005,-7.4363,-7.2773,-7.1324,-6.996,-6.9662,-6.9685,-6.996,-6.9639,-6.9524,-6.9524,-6.9524,-6.9524,-6.9315,-6.8265,-6.7185,-6.5884,-6.4831,-6.377,-6.2679,-6.2679,-6.2679,-6.2679,-6.2679,-6.1561,-5.9266,-5.5573,-5.262,-5.0122,-4.6186,-4.4787,-4.4323,-4.4323,-4.4323,-4.4323,-4.4323,-4.4323,-4.4069,-4.2629,-4.2388,-4.192,-4.0724,-4.0481,-4.0481,-4.0481,-4.0481,-4.0481,-4.0481,-4.0225,-3.9496,-3.8752,-3.8277,-3.7544,-3.6808,-3.6563,-3.6563,-3.6563,-3.6563,-3.6563,-3.6563,-3.3055,-2.9537,-2.6788,-2.2777,-1.9496,-1.6472,-1.6472,-1.6472,-1.6472,-1.6472,-1.6472,-1.6472,-1.6472,-1.6472,-1.6472,-1.6472,-1.6472,-1.6472,-1.6472,-1.595,-1.5439,-1.4676,-1.3898,-1.3385,-1.262,-1.2372,-1.2372,-1.2372,-1.2372,-1.2372]}]]